[[{"header":{"parameterUnit":"m.s-1","parameterCategory":1,"la1":30.6,"la2":28.766,"lo1":-90.7593,"lo2":-88.6598,"dy":0.0162,"dx":0.0183,"nx":116,"ny":114,"refTime":"2023-05-28T06:00:00:Z","depth":0,"parameterNumber":2,"parameterNumberName":"U-component_of_WINDS"},"data":[0.0,0.0,0.0,0.0,0.0,0.0,0.0,0.0,0.0,0.0,0.0,0.0,0.0,0.0,0.0,0.0,0.0,0.0,0.0,0.0,0.0,0.0,0.0,0.0,0.0,0.0,0.0,0.0,0.0,0.0,0.0,0.0,0.0,0.0,0.0,0.0,0.0,0.0,0.0,0.0,0.0,0.0,0.0,0.0,0.0,0.0,0.0,0.0,0.0,0.0,0.0,0.0,0.0,0.0,0.0,0.0,0.0,0.0,0.0,0.0,0.0,0.0,0.0,0.0,0.0,0.0,0.0,0.0,0.0,0.0,0.0,0.0,0.0,0.0,0.0,0.0,0.0,0.0,0.0,0.0,0.0,0.0,0.0,0.0,0.0,0.0,0.0,0.0,0.0,0.0,0.0,0.0,0.0,0.0,0.0,0.0,0.0,0.0,0.0,0.0,0.0,0.0,0.0,0.0,0.0,0.0,0.0,0.0,0.0,0.0,0.0,0.0,0.0,0.0,0.0,0.0,0.0,0.0,0.0,0.0,0.0,0.0,0.0,0.0,0.0,0.0,0.0,0.0,0.0,0.0,0.0,0.0,0.0,0.0,0.0,0.0,0.0,0.0,0.0,0.0,0.0,0.0,0.0,0.0,0.0,0.0,0.0,0.0,0.0,0.0,0.0,0.0,0.0,0.0,0.0,0.0,0.0,0.0,0.0,0.0,0.0,0.0,0.0,0.0,0.0,0.0,0.0,0.0,0.0,0.0,0.0,0.0,0.0,0.0,0.0,0.0,0.0,0.0,0.0,0.0,0.0,0.0,0.0,0.0,0.0,0.0,0.0,0.0,0.0,0.0,0.0,0.0,0.0,0.0,0.0,0.0,0.0,0.0,0.0,0.0,0.0,0.0,0.0,0.0,0.0,0.0,0.0,0.0,0.0,0.0,0.0,0.0,0.0,0.0,0.0,0.0,0.0,0.0,0.0,0.0,0.0,0.0,0.0,0.0,0.0,0.0,0.0,0.0,0.0,0.0,0.0,0.0,0.0,0.0,0.0,0.0,0.0,0.0,0.0,0.0,0.0,0.0,0.0,0.0,0.0,0.0,0.0,0.0,0.0,0.0,0.0,0.0,0.0,0.0,0.0,0.0,0.0,0.0,0.0,0.0,0.0,0.0,0.0,0.0,0.0,0.0,0.0,0.0,0.0,0.0,0.0,0.0,0.0,0.0,0.0,0.0,0.0,0.0,0.0,0.0,0.0,0.0,0.0,0.0,0.0,0.0,0.0,0.0,0.0,0.0,0.0,0.0,0.0,0.0,0.0,0.0,0.0,0.0,0.0,0.0,0.0,0.0,0.0,0.0,0.0,0.0,0.0,0.0,0.0,0.0,0.0,0.0,0.0,0.0,0.0,0.0,0.0,0.0,0.0,0.0,0.0,0.0,0.0,0.0,0.0,0.0,0.0,0.0,0.0,0.0,0.0,0.0,0.0,0.0,0.0,0.0,0.0,0.0,0.0,0.0,0.0,0.0,0.0,0.0,0.0,0.0,0.0,0.0,0.0,0.0,0.0,0.0,0.0,0.0,0.0,0.0,0.0,0.0,0.0,0.0,0.0,0.0,0.0,0.0,0.0,0.0,0.0,0.0,0.0,0.0,0.0,0.0,0.0,0.0,0.0,0.0,0.0,0.0,0.0,0.0,0.0,0.0,0.0,0.0,0.0,0.0,0.0,0.0,0.0,0.0,0.0,0.0,0.0,0.0,0.0,0.0,0.0,0.0,0.0,0.0,0.0,0.0,0.0,0.0,0.0,0.0,0.0,0.0,0.0,0.0,0.0,0.0,0.0,0.0,0.0,0.0,0.0,0.0,0.0,0.0,0.0,0.0,0.0,0.0,0.0,0.0,0.0,0.0,0.0,0.0,0.0,0.0,0.0,0.0,0.0,0.0,0.0,0.0,0.0,0.0,0.0,0.0,0.0,0.0,0.0,0.0,0.0,0.0,0.0,0.0,0.0,0.0,0.0,0.0,0.0,0.0,0.0,0.0,0.0,0.0,0.0,0.0,0.0,0.0,0.0,0.0,0.0,0.0,0.0,0.0,0.0,0.0,0.0,0.0,0.0,0.0,0.0,0.0,0.0,0.0,0.0,0.0,0.0,0.0,0.0,0.0,0.0,0.0,0.0,0.0,0.0,0.0,0.0,0.0,0.0,0.0,0.0,0.0,0.0,0.0,0.0,0.0,0.0,0.0,0.0,0.0,0.0,0.0,0.0,0.0,0.0,0.0,0.0,0.0,0.0,0.0,0.0,0.0,0.0,0.0,0.0,0.0,0.0,0.0,0.0,0.0,0.0,0.0,0.0,0.0,0.0,0.0,0.0,0.0,0.0,0.0,0.0,0.0,0.0,0.0,0.0,0.0,0.0,0.0,0.0,0.0,0.0,0.0,0.0,0.0,0.0,0.0,0.0,0.0,0.0,0.0,0.0,0.0,0.0,0.0,0.0,0.0,0.0,0.0,0.0,0.0,0.0,0.0,0.0,0.0,0.0,0.0,0.0,0.0,0.0,0.0,0.0,0.0,0.0,0.0,0.0,0.0,0.0,0.0,0.0,0.0,0.0,0.0,0.0,0.0,0.0,0.0,0.0,0.0,0.0,0.0,0.0,0.0,0.0,0.0,0.0,0.0,0.0,0.0,0.0,0.0,0.0,0.0,0.0,0.0,0.0,0.0,0.0,0.0,0.0,0.0,0.0,0.0,0.0,0.0,0.0,0.0,0.0,0.0,0.0,0.0,0.0,0.0,0.0,0.0,0.0,0.0,0.0,0.0,0.0,0.0,0.0,0.0,0.0,0.0,0.0,0.0,0.0,0.0,0.0,0.0,0.0,0.0,0.0,0.0,0.0,0.0,0.0,0.0,0.0,0.0,0.0,0.0,0.0,0.0,0.0,0.0,0.0,0.0,0.0,0.0,0.0,0.0,0.0,0.0,0.0,0.0,0.0,0.0,0.0,0.0,0.0,0.0,0.0,0.0,0.0,0.0,0.0,0.0,0.0,0.0,0.0,0.0,0.0,0.0,0.0,0.0,0.0,0.0,0.0,0.0,0.0,0.0,0.0,0.0,0.0,0.0,0.0,0.0,0.0,0.0,0.0,0.0,0.0,0.0,0.0,0.0,0.0,0.0,0.0,0.0,0.0,0.0,0.0,0.0,0.0,0.0,0.0,0.0,0.0,0.0,0.0,0.0,0.0,0.0,0.0,0.0,0.0,0.0,0.0,0.0,0.0,0.0,0.0,0.0,0.0,0.0,0.0,0.0,0.0,0.0,0.0,0.0,0.0,0.0,0.0,0.0,0.0,0.0,0.0,0.0,0.0,0.0,0.0,0.0,0.0,0.0,0.0,0.0,0.0,0.0,0.0,0.0,0.0,0.0,0.0,0.0,0.0,0.0,0.0,0.0,0.0,0.0,0.0,0.0,0.0,0.0,0.0,0.0,0.0,0.0,0.0,0.0,0.0,0.0,0.0,0.0,0.0,0.0,0.0,0.0,0.0,0.0,0.0,0.0,0.0,0.0,0.0,0.0,0.0,0.0,0.0,0.0,0.0,0.0,0.0,0.0,0.0,0.0,0.0,0.0,0.0,0.0,0.0,0.0,0.0,0.0,0.0,0.0,0.0,0.0,0.0,0.0,0.0,0.0,0.0,0.0,0.0,0.0,0.0,0.0,0.0,0.0,0.0,0.0,0.0,0.0,0.0,0.0,0.0,0.0,0.0,0.0,0.0,0.0,0.0,0.0,0.0,0.0,0.0,0.0,0.0,0.0,0.0,0.0,0.0,0.0,0.0,0.0,0.0,0.0,0.0,0.0,0.0,0.0,0.0,0.0,0.0,0.0,0.0,0.0,0.0,0.0,0.0,0.0,0.0,0.0,0.0,0.0,0.0,0.0,0.0,0.0,0.0,0.0,0.0,0.0,0.0,0.0,0.0,0.0,0.0,0.0,0.0,0.0,0.0,0.0,0.0,0.0,0.0,0.0,0.0,0.0,0.0,0.0,0.0,0.0,0.0,0.0,0.0,0.0,0.0,0.0,0.0,0.0,0.0,0.0,0.0,0.0,0.0,0.0,0.0,0.0,0.0,0.0,0.0,0.0,0.0,0.0,0.0,0.0,0.0,0.0,0.0,0.0,0.0,0.0,0.0,0.0,0.0,0.0,0.0,0.0,0.0,0.0,0.0,0.0,0.0,0.0,0.0,0.0,0.0,0.0,0.0,0.0,0.0,0.0,0.0,0.0,0.0,0.0,0.0,0.0,0.0,0.0,0.0,0.0,0.0,0.0,0.0,0.0,0.0,0.0,0.0,0.0,0.0,0.0,0.0,0.0,0.0,0.0,0.0,0.0,0.0,0.0,0.0,0.0,0.0,0.0,0.0,0.0,0.0,0.0,0.0,0.0,0.0,0.0,0.0,0.0,0.0,0.0,0.0,0.0,0.0,0.0,0.0,0.0,0.0,0.0,0.0,0.0,0.0,0.0,0.0,0.0,0.0,0.0,0.0,0.0,0.0,0.0,0.0,0.0,0.0,0.0,0.0,0.0,0.0,0.0,0.0,0.0,0.0,0.0,0.0,0.0,0.0,0.0,0.0,0.0,0.0,0.0,0.0,0.0,0.0,0.0,0.0,0.0,0.0,0.0,0.0,0.0,0.0,0.0,0.0,0.0,0.0,0.0,0.0,0.0,0.0,0.0,0.0,0.0,0.0,0.0,0.0,0.0,0.0,0.0,0.0,0.0,0.0,0.0,0.0,0.0,0.0,0.0,0.0,0.0,0.0,0.0,0.0,0.0,0.0,0.0,0.0,0.0,0.0,0.0,0.0,0.0,0.0,0.0,0.0,0.0,0.0,0.0,0.0,0.0,0.0,0.0,0.0,0.0,0.0,0.0,0.0,0.0,0.0,0.0,0.0,0.0,0.0,0.0,0.0,0.0,0.0,0.0,0.0,0.0,0.0,0.0,0.0,0.0,0.0,0.0,0.0,0.0,0.0,0.0,0.0,0.0,0.0,0.0,0.0,0.0,0.0,0.0,0.0,0.0,0.0,0.0,0.0,0.0,0.0,0.0,0.0,0.0,0.0,0.0,0.0,0.0,0.0,0.0,0.0,0.0,0.0,0.0,0.0,0.0,0.0,0.0,0.0,0.0,0.0,0.0,0.0,0.0,0.0,0.0,0.0,0.0,0.0,0.0,0.0,0.0,0.0,0.0,0.0,0.0,0.0,0.0,0.0,0.0,0.0,0.0,0.0,0.0,0.0,0.0,0.0,0.0,0.0,0.0,0.0,0.0,0.0,0.0,0.0,0.0,0.0,0.0,0.0,0.0,0.0,0.0,0.0,0.0,0.0,0.0,0.0,0.0,0.0,0.0,0.0,0.0,0.0,0.0,0.0,0.0,0.0,0.0,0.0,0.0,0.0,0.0,0.0,0.0,0.0,0.0,0.0,0.0,0.0,0.0,0.0,0.0,0.0,0.0,0.0,0.0,0.0,0.0,0.0,0.0,0.0,0.0,0.0,0.0,0.0,0.0,0.0,0.0,0.0,0.0,0.0,0.0,0.0,0.0,0.0,0.0,0.0,0.0,0.0,0.0,0.0,0.0,0.0,0.0,0.0,0.0,0.0,0.0,0.0,0.0,0.0,0.0,0.0,0.0,0.0,0.0,0.0,0.0,0.0,0.0,0.0,0.0,0.0,0.0,0.0,0.0,0.0,0.0,0.0,0.0,0.0,0.0,0.0,0.0,0.0,0.0,0.0,0.0,0.0,0.0,0.0,0.0,0.0,0.0,0.0,0.0,0.0,0.0,0.0,0.0,0.0,0.0,0.0,0.0,0.0,0.0,0.0,0.0,0.0,0.0,0.0,0.0,0.0,0.0,0.0,0.0,0.0,0.0,0.0,0.0,0.0,0.0,0.0,0.0,0.0,0.0,0.0,0.0,0.0,0.0,0.0,0.0,0.0,0.0,0.0,0.0,0.0,0.0,0.0,0.0,0.0,0.0,0.0,0.0,0.0,0.0,0.0,0.0,0.0,0.0,0.0,0.0,0.0,0.0,0.0,0.0,0.0,0.0,0.0,0.0,0.0,0.0,-1.7582,0.0,0.0,0.0,0.0,0.0,0.0,0.0,0.0,0.0,0.0,0.0,0.0,0.0,0.0,0.0,0.0,0.0,0.0,0.0,0.0,0.0,0.0,0.0,0.0,0.0,0.0,0.0,0.0,0.0,0.0,0.0,0.0,0.0,0.0,0.0,0.0,0.0,0.0,-0.6,-0.5817,-0.5996,-0.6264,-0.6172,-0.6395,-0.6936,0.0,0.0,0.0,0.0,0.0,0.0,0.0,0.0,0.0,0.0,0.0,0.0,0.0,0.0,0.0,0.0,0.0,0.0,0.0,0.0,0.0,0.0,0.0,0.0,0.0,0.0,0.0,0.0,0.0,0.0,0.0,0.0,0.0,0.0,0.0,0.0,0.0,0.0,0.0,0.0,0.0,0.0,0.0,0.0,0.0,0.0,0.0,0.0,0.0,0.0,0.0,0.0,0.0,0.0,0.0,0.0,0.0,0.0,0.0,0.0,0.0,0.0,0.0,0.0,0.0,0.0,0.0,0.0,0.0,0.0,0.0,-1.7582,0.0,0.0,0.0,0.0,0.0,0.0,0.0,0.0,0.0,0.0,0.0,0.0,0.0,0.0,0.0,0.0,0.0,0.0,0.0,0.0,0.0,0.0,0.0,-0.2509,-0.3135,-0.4302,-0.4654,-0.4921,0.0,0.0,0.0,0.0,0.0,0.0,-0.5763,-0.5763,-0.5913,-0.6311,-0.6143,-0.6255,-0.6651,-0.658,-0.6494,-0.6496,-0.6396,0.0,0.0,0.0,0.0,0.0,0.0,0.0,0.0,0.0,0.0,0.0,0.0,0.0,0.0,0.0,0.0,0.0,0.0,0.0,0.0,0.0,0.0,0.0,0.0,0.0,0.0,0.0,0.0,0.0,0.0,0.0,0.0,0.0,0.0,0.0,0.0,0.0,0.0,0.0,0.0,0.0,0.0,0.0,0.0,0.0,0.0,0.0,0.0,0.0,0.0,0.0,0.0,0.0,0.0,0.0,0.0,0.0,0.0,0.0,0.0,0.0,0.0,0.0,-1.658,-1.658,-1.664,-1.6887,-1.7027,-1.7088,-1.7382,-1.7535,-1.7582,0.0,0.0,0.0,0.0,0.0,0.0,0.0,0.0,0.0,0.0,0.0,0.0,0.0,0.0,0.0,0.0,0.0,0.0,0.0,0.0,0.0,0.0,-0.1075,-0.197,-0.3045,-0.3491,-0.4115,-0.501,0.0,0.0,0.0,0.0,-0.5779,-0.588,-0.588,-0.5939,-0.6156,-0.6452,-0.6617,-0.6751,-0.6961,-0.7114,-0.7015,-0.6631,-0.6437,-0.6437,0.0,0.0,0.0,0.0,0.0,0.0,0.0,0.0,0.0,0.0,0.0,0.0,0.0,0.0,0.0,0.0,0.0,0.0,0.0,0.0,0.0,0.0,0.0,0.0,0.0,0.0,0.0,0.0,0.0,0.0,0.0,0.0,0.0,0.0,0.0,0.0,0.0,0.0,0.0,0.0,0.0,-1.4394,-1.4196,0.0,0.0,0.0,0.0,0.0,0.0,0.0,0.0,0.0,0.0,0.0,0.0,0.0,-1.5992,-1.6326,-1.6039,-1.6039,-1.6326,-1.6066,-1.6079,-1.6333,-1.6373,-1.6526,-1.678,-1.7081,0.0,-1.7582,-1.7582,0.0,0.0,0.0,0.0,0.0,0.0,0.0,0.0,0.0,0.0,0.0,0.0,0.0,0.0,0.0,0.0,0.0,0.0,0.0,0.0,0.0,-0.0358,-0.0985,-0.197,-0.2416,-0.3041,-0.4115,-0.4613,0.0,0.0,-0.5893,-0.5956,-0.6005,-0.544,-0.5209,-0.5317,-0.5806,-0.6355,-0.6955,-0.7111,-0.7238,-0.7441,-0.7039,-0.6836,-0.6936,-0.7633,0.0,0.0,0.0,0.0,0.0,0.0,0.0,0.0,0.0,0.0,0.0,0.0,0.0,0.0,0.0,0.0,0.0,0.0,0.0,0.0,0.0,0.0,0.0,0.0,0.0,0.0,0.0,0.0,0.0,0.0,0.0,0.0,0.0,0.0,0.0,0.0,0.0,0.0,0.0,-1.535,-1.5064,-1.4968,-1.5064,-1.5064,0.0,0.0,0.0,0.0,0.0,0.0,0.0,0.0,0.0,-1.5832,-1.5832,-1.5892,-1.6019,-1.5892,-1.5892,-1.6019,-1.5892,-1.5899,-1.6032,-1.6192,-1.6339,-1.648,-1.6774,-1.6662,-1.6285,-1.7036,-1.7378,-1.7272,0.0,0.0,0.0,0.0,-1.4137,-1.3906,0.0,0.0,0.0,0.0,0.0,0.0,0.0,0.0,0.0,0.0,0.0,0.0,0.0448,0.0359,0.0,-0.0985,-0.1259,-0.1894,-0.3157,-0.349,-0.4087,-0.5111,-0.5186,-0.5337,-0.5267,-0.4522,-0.4179,-0.4339,-0.5092,-0.5927,-0.6734,-0.7036,-0.7341,-0.7547,-0.7341,-0.7238,-0.7238,-0.8131,-0.8627,-0.9019,0.0,0.0,0.0,0.0,0.0,0.0,0.0,0.0,0.0,0.0,0.0,0.0,0.0,0.0,0.0,0.0,0.0,0.0,0.0,0.0,0.0,0.0,0.0,0.0,0.0,0.0,0.0,0.0,0.0,0.0,0.0,0.0,0.0,0.0,0.0,0.0,0.0,-1.573,-1.573,-1.5635,-1.573,-1.554,0.0,0.0,0.0,0.0,0.0,0.0,-1.5832,-1.5832,-1.5832,-1.5832,-1.5832,-1.5832,-1.5832,-1.5832,-1.5832,-1.5832,-1.5832,-1.5832,-1.5838,-1.6059,-1.6159,-1.6179,-1.6466,-1.6188,-1.5526,-1.6639,-1.6847,-1.6526,-1.5674,-1.5135,-1.4713,-1.3848,-1.2777,-1.1693,0.0,0.0,0.0,0.0,0.0,0.0,0.0,0.0,0.0,0.0,0.0,0.1346,0.1345,0.1345,0.0987,0.0,-0.0274,-0.0922,-0.2121,-0.244,-0.2751,-0.3037,-0.304,-0.3068,-0.3127,-0.3184,-0.3317,-0.332,-0.4626,-0.5229,-0.5329,-0.6634,-0.7341,-0.7547,-0.7341,-0.7238,-0.7238,-0.7543,-0.8237,-0.9217,-0.9509,0.0,0.0,0.0,0.0,0.0,0.0,0.0,0.0,0.0,0.0,0.0,0.0,0.0,0.0,0.0,0.0,0.0,0.0,0.0,0.0,0.0,0.0,0.0,0.0,0.0,0.0,0.0,0.0,0.0,0.0,0.0,0.0,0.0,0.0,0.0,0.0,0.0,0.0,-1.5825,-1.5825,0.0,0.0,0.0,0.0,-1.573,-1.5737,-1.5832,-1.5832,-1.5832,-1.5832,-1.5832,-1.5832,-1.5832,-1.5832,-1.5832,-1.5832,-1.5832,-1.5832,-1.5832,-1.5832,-1.5845,-1.5852,-1.5872,-1.6166,-1.6293,-1.6319,-1.6627,-1.6036,-1.5023,-1.5847,-1.5537,-1.4401,-1.4089,-1.3259,-1.2122,0.0,0.0,0.0,0.0,0.0,0.0,0.0,0.0,0.1794,0.1436,0.1436,0.1436,0.1436,0.1453,0.1373,0.1007,0.0932,0.0283,-0.1129,-0.1342,-0.1841,-0.2906,-0.304,-0.2773,-0.2095,-0.2109,-0.2217,-0.2217,-0.2818,-0.3519,-0.4223,-0.5527,-0.6226,-0.6329,-0.6936,-0.7238,-0.7238,-0.7444,-0.7842,-0.8237,-0.9217,-0.9801,0.0,0.0,0.0,0.0,0.0,0.0,0.0,0.0,0.0,0.0,0.0,0.0,0.0,0.0,0.0,0.0,0.0,0.0,0.0,0.0,0.0,0.0,0.0,0.0,0.0,0.0,0.0,0.0,0.0,0.0,0.0,0.0,0.0,0.0,0.0,0.0,0.0,-1.5832,-1.5832,0.0,-1.5832,-1.5832,-1.5832,-1.5832,-1.5832,-1.5832,-1.5832,-1.5832,-1.5832,-1.5832,-1.5832,-1.5832,-1.5832,-1.5832,-1.5832,-1.5832,-1.5832,-1.5832,-1.5832,-1.5832,-1.5832,-1.5838,-1.5747,-1.5403,-1.483,-1.5422,-1.5276,-1.4665,-1.3953,-1.3335,-1.2823,-1.1066,-1.0651,-1.0841,0.0,0.0,0.0,0.0,0.0,0.0,0.0,0.0,0.1794,0.1615,0.1444,0.1451,0.1451,0.1478,0.1496,0.1403,0.1428,0.0866,-0.0289,-0.0392,-0.089,-0.1978,-0.2102,-0.1815,-0.111,-0.111,-0.111,-0.111,-0.1612,-0.2215,-0.2919,-0.4221,-0.4824,-0.4922,-0.5527,-0.6132,-0.6534,-0.6739,-0.7042,-0.754,-0.8425,-0.8821,-0.9118,0.0,0.0,0.0,0.0,0.0,0.0,0.0,0.0,0.0,0.0,0.0,0.0,0.0,0.0,0.0,0.0,0.0,0.0,0.0,0.0,0.0,0.0,0.0,0.0,0.0,0.0,0.0,0.0,0.0,0.0,0.0,0.0,0.0,0.0,-1.5832,-1.5832,-1.5832,-1.5832,-1.5832,-1.5832,-1.5832,-1.5832,-1.5832,-1.5832,-1.5832,-1.5832,-1.5832,-1.5832,-1.5832,-1.5832,-1.5832,-1.5832,-1.5832,-1.5832,-1.5832,-1.5832,-1.5832,-1.5832,-1.5832,-1.5832,-1.5825,-1.5635,-1.5064,-1.4484,-1.4885,-1.4801,-1.4207,-1.2994,-1.2193,-1.1586,-0.9654,-0.9046,-0.9335,0.0,0.0,0.0,0.0,0.0,0.0,0.4115,0.2959,0.2156,0.1886,0.1646,0.1482,0.1574,0.1509,0.1432,0.1145,0.1166,0.0983,0.0491,0.04,0.0303,0.0,0.0,0.0,0.0,0.0,0.0,0.0,-0.1009,-0.1513,-0.1613,-0.262,-0.3323,-0.3521,-0.3323,-0.3925,-0.5129,-0.5129,-0.5932,-0.7036,-0.7135,-0.7341,-0.7743,0.0,0.0,0.0,0.0,0.0,0.0,0.0,0.0,0.0,0.0,0.0,0.0,0.0,0.0,0.0,0.0,0.0,0.0,0.0,0.0,0.0,0.0,0.0,0.0,0.0,0.0,0.0,0.0,0.0,0.0,0.0,0.0,0.0,-1.5832,-1.5832,-1.5832,-1.5832,-1.5832,-1.5832,-1.5832,-1.5832,-1.5832,-1.5832,-1.5832,-1.5832,-1.5832,-1.5832,-1.5832,-1.5832,-1.5832,-1.5832,-1.5832,-1.5832,-1.5832,-1.5832,-1.5832,-1.5832,-1.5832,-1.5832,-1.5832,-1.5825,-1.5635,-1.554,-1.5445,-1.5172,-1.4394,-1.3414,-1.3221,-1.2339,-1.1072,-0.9998,-0.892,-0.8038,0.0,0.0,0.0,0.0,0.0,0.0,0.5181,0.3987,0.3386,0.393,0.2517,0.1796,0.2548,0.202,0.1559,0.1461,0.1289,0.1103,0.0702,0.0504,0.0303,0.0,0.0,0.0,0.0,0.0,0.0,0.0,-0.0303,-0.0404,-0.0505,-0.1513,-0.2116,-0.2216,-0.292,-0.3425,-0.3726,-0.3726,-0.3925,-0.4427,-0.6434,-0.7238,-0.7437,0.0,0.0,0.0,0.0,0.0,0.0,0.0,0.0,0.0,0.0,0.0,0.0,0.0,0.0,0.0,0.0,0.0,0.0,0.0,0.0,0.0,0.0,0.0,0.0,0.0,0.0,0.0,0.0,0.0,0.0,0.0,-1.5832,-1.5832,-1.5832,-1.5832,-1.5832,-1.5832,-1.5832,-1.5832,-1.5832,-1.5832,-1.5832,-1.5832,-1.5832,-1.5832,-1.5832,-1.5832,-1.5832,-1.5832,-1.5832,-1.5832,-1.5832,-1.5832,-1.5832,-1.5832,-1.5832,-1.5832,-1.5832,-1.5832,-1.5832,-1.5825,-1.5635,-1.5356,-1.5172,-1.41,-1.3318,-1.2926,-1.3022,-1.2441,-1.137,-1.0096,-0.892,-0.8038,0.0,0.0,0.0,0.0,0.0,0.0,0.6494,0.5368,0.4665,0.5129,0.3896,0.3082,0.3177,0.2647,0.2085,0.1491,0.1305,0.101,0.0707,0.0404,0.0202,0.0,0.0,0.0,0.0,0.0,0.0,0.0,0.0,0.0,0.0,-0.0606,-0.0908,-0.0908,-0.1613,-0.2116,-0.2519,-0.2519,-0.2821,-0.3324,-0.4929,-0.5832,-0.6531,-0.773,-0.8329,-0.8627,-0.9608,-1.0293,-1.0779,-1.1072,0.0,0.0,0.0,0.0,0.0,0.0,0.0,0.0,0.0,0.0,0.0,0.0,0.0,0.0,0.0,0.0,0.0,0.0,0.0,0.0,0.0,0.0,0.0,0.0,-1.5635,-1.573,-1.5825,-1.5832,-1.5832,-1.5832,-1.5832,-1.5832,-1.5832,-1.5832,-1.5832,-1.5832,-1.5832,-1.5832,-1.5832,-1.5832,-1.5832,-1.5832,-1.5832,-1.5832,-1.5832,-1.5832,-1.5832,-1.5832,-1.5832,-1.5832,-1.5832,-1.5832,-1.5832,0.0,-1.5635,-1.5356,-1.4987,-1.41,-1.3318,0.0,0.0,0.0,0.0,0.0,-0.892,-0.8038,0.0,0.0,0.0,0.0,0.0,0.0,0.7847,0.6838,0.5994,0.5905,0.5523,0.4806,0.373,0.3489,0.2922,0.1515,0.1414,0.1111,0.0505,0.0202,0.0101,0.0101,0.0101,0.0,0.0,0.0,0.0,0.0,0.0,0.0,0.0,0.0,0.0,0.0,0.0,-0.0505,-0.1412,-0.1311,-0.1915,-0.272,-0.2922,-0.3825,-0.5229,-0.6239,-0.6945,-0.7547,-0.7547,-0.8333,-0.941,-0.9706,0.0,0.0,0.0,0.0,0.0,0.0,0.0,0.0,0.0,0.0,0.0,0.0,0.0,0.0,0.0,0.0,0.0,0.0,0.0,0.0,0.0,0.0,0.0,0.0,-1.554,-1.5635,-1.5737,-1.5737,-1.5737,-1.5832,-1.5832,-1.5832,-1.5832,-1.5832,-1.5832,-1.5832,-1.5832,-1.5832,-1.5832,0.0,0.0,0.0,0.0,-1.5832,-1.5832,-1.5832,-1.5832,-1.5832,-1.5832,-1.5832,-1.5832,-1.5832,-1.5825,-1.573,-1.554,-1.5356,-1.4987,-1.4592,-1.3516,-1.2242,-1.1365,-1.0979,-1.0881,-0.9805,-0.8825,-0.8038,0.0,0.0,0.0,0.0,0.0,0.0,0.8808,0.7875,0.7372,0.8247,0.6709,0.5695,0.6095,0.5316,0.4227,0.2923,0.262,0.2017,0.0808,0.0707,0.0606,0.0606,0.0404,0.0303,0.0303,0.0101,0.0,0.0,0.0,0.0,0.0,0.0,0.0,0.0,0.0202,0.0202,0.0,0.0202,0.0202,-0.0101,-0.1109,-0.292,-0.4933,-0.5331,-0.6137,-0.7045,-0.7447,-0.764,-0.7733,-0.8233,-0.911,-0.9985,-1.0288,-1.1268,0.0,0.0,0.0,0.0,0.0,0.0,0.0,0.0,0.0,0.0,0.0,0.0,0.0,0.0,0.0,0.0,0.0,0.0,0.0,-1.554,-1.5635,-1.573,-1.5825,-1.5642,-1.5635,-1.5737,-1.5832,-1.5832,-1.5832,-1.5832,-1.5832,-1.5832,-1.5832,-1.5832,-1.5832,-1.5832,-1.5832,-1.5832,-1.5832,-1.5832,-1.5832,-1.5832,-1.5832,-1.5832,0.0,0.0,-1.5832,-1.5832,-1.573,-1.554,-1.554,-1.5261,-1.4592,-1.2926,-1.1365,-1.0194,-0.9998,-0.9899,-0.9805,-0.8726,-0.8137,-0.8038,0.0,0.0,0.0,0.0,0.0,0.0,0.9348,0.8848,0.8608,0.9006,0.8082,0.7325,0.7027,0.6429,0.5327,0.3522,0.302,0.2318,0.1111,0.1413,0.1312,0.0808,0.0707,0.0606,0.0606,0.0505,0.0404,0.0404,0.0404,0.0404,0.0404,0.0404,0.0303,0.0202,0.0505,0.0505,0.0404,0.0505,0.0707,0.0707,-0.0202,-0.1613,-0.3122,-0.4529,-0.5737,-0.6845,-0.7144,-0.7241,-0.7238,-0.7537,-0.8031,-0.8619,-0.8722,-0.9702,-1.0877,0.0,0.0,0.0,0.0,0.0,0.0,0.0,0.0,0.0,0.0,0.0,0.0,0.0,0.0,-1.5267,-1.5083,0.0,-1.5458,-1.5356,-1.5363,-1.5458,-1.5458,-1.5363,-1.5356,-1.5635,-1.5635,-1.5635,-1.5635,-1.573,-1.5832,-1.5832,-1.5832,-1.5832,-1.5832,-1.5832,-1.5832,-1.5832,-1.5832,-1.5832,-1.5832,-1.5832,-1.5832,-1.5832,-1.5832,-1.5737,-1.5635,-1.5051,-1.4758,-1.4478,-1.4478,-1.3992,-1.3028,-1.1268,-1.0194,-0.9509,-0.9019,-0.9118,-0.9509,-0.9019,-0.8432,-0.8038,0.0,0.0,0.0,0.0,0.0,0.0,0.0,0.9628,0.9529,0.9331,0.9236,0.8832,0.7723,0.7428,0.6426,0.4522,0.3721,0.292,0.2017,0.2417,0.2216,0.1312,0.101,0.0909,0.0909,0.0808,0.0808,0.0808,0.0808,0.0808,0.0808,0.0808,0.0707,0.0505,0.0808,0.0808,0.0606,0.0606,0.0808,0.0909,0.0404,-0.0404,-0.131,-0.3425,-0.5135,-0.6442,-0.6439,-0.6739,-0.7039,-0.7135,-0.7341,-0.7543,-0.7547,-0.8333,-0.9316,-0.9509,-1.0391,0.0,0.0,0.0,0.0,0.0,0.0,0.0,0.0,-1.4987,-1.4987,-1.4987,-1.4987,-1.4987,-1.4987,-1.4987,-1.5083,-1.4987,-1.5083,-1.5083,-1.5083,-1.5083,-1.5077,-1.535,-1.5445,-1.554,-1.554,-1.573,-1.5832,-1.5832,-1.5832,-1.5832,-1.5832,-1.5832,-1.5832,-1.5832,-1.5832,-1.5832,-1.5832,-1.5832,-1.5737,-1.573,-1.573,-1.554,-1.5057,-1.4178,-1.3596,-1.3125,-1.3119,-1.2441,-1.1463,-1.0096,-0.9509,-0.9217,-0.8333,-0.8531,-0.9316,-0.9316,-0.8726,-0.8038,0.0,0.0,0.0,0.0,0.0,0.0,0.0,0.0,0.9628,0.9529,0.9529,0.943,0.9031,0.8935,0.8329,0.6921,0.5822,0.5125,0.4728,0.3922,0.332,0.2922,0.1817,0.1111,0.1111,0.0909,0.0808,0.0808,0.0808,0.0808,0.0808,0.0808,0.0808,0.0808,0.101,0.1111,0.1111,0.1415,0.1516,0.1415,0.0909,0.0101,-0.0907,-0.1713,-0.3224,-0.5035,-0.5331,-0.5834,-0.6537,-0.7036,-0.7238,-0.7238,-0.7543,-0.7842,-0.8333,-0.9312,-0.9702,-1.0096,-1.1072,-1.1565,-1.2047,-1.2727,-1.3318,-1.3806,0.0,-1.4592,-1.4694,-1.44,-1.4592,-1.4688,-1.4394,-1.479,-1.4987,-1.479,-1.4981,-1.5083,-1.5083,-1.4885,-1.4783,-1.4783,-1.5166,-1.554,-1.5737,-1.5825,-1.5832,-1.5832,-1.5832,-1.5832,-1.5832,-1.5832,-1.5832,-1.5832,-1.5832,-1.5832,-1.5832,-1.5832,-1.573,-1.554,-1.554,-1.4867,-1.3703,-1.3607,-1.2926,-1.176,-1.156,-1.1365,-1.117,-1.0096,-0.9019,-0.8137,-0.8038,-0.8038,-0.8137,-0.8137,-0.8137,-0.8038,0.0,0.0,0.0,0.0,0.0,0.0,0.0,0.0,0.0,0.9628,0.9628,0.9529,0.943,0.8726,0.8021,0.7223,0.6822,0.6224,0.5525,0.5622,0.5322,0.4624,0.3422,0.2821,0.2821,0.1918,0.1516,0.1516,0.1314,0.1313,0.1313,0.1313,0.1212,0.101,0.1314,0.1314,0.1212,0.1314,0.1415,0.1516,0.101,0.0505,0.0101,-0.0303,-0.1513,-0.3123,-0.4429,-0.5634,0.0,-0.6637,-0.6839,-0.7042,-0.7241,-0.7543,-0.7842,-0.8531,-0.8627,-0.892,-0.9998,-1.1268,-1.2339,-1.263,-1.3318,-1.4004,-1.4292,-1.4394,-1.44,-1.4298,-1.4394,-1.449,-1.449,-1.4694,-1.479,-1.4694,-1.479,-1.479,-1.4688,-1.4496,-1.4496,-1.4688,-1.4879,-1.5166,-1.5363,-1.5642,-1.5832,-1.5832,-1.5832,-1.5737,-1.5635,-1.5635,-1.5547,-1.5363,-1.5363,-1.5363,-1.5363,-1.5363,-1.5363,-1.5267,-1.5267,-1.4586,-1.3216,-1.2635,-1.1658,-1.0391,-0.9706,-0.9706,-1.0194,-0.9118,-0.8432,-0.8038,-0.8038,-0.8038,-0.8038,-0.8038,-0.8038,-0.8038,0.0,0.0,0.0,0.0,0.0,0.0,0.0,0.0,0.0,0.0,1.0015,0.9916,0.9628,0.8722,0.8117,0.7922,0.7822,0.7524,0.6623,0.7021,0.6921,0.6121,0.5024,0.4323,0.4024,0.3025,0.2424,0.2121,0.1919,0.1818,0.1818,0.1818,0.1717,0.1415,0.1617,0.1516,0.1314,0.1314,0.1415,0.1516,0.1111,0.0909,0.0909,0.0505,-0.0605,-0.2116,-0.3726,-0.5033,-0.6037,-0.6337,-0.6539,-0.6845,-0.7138,-0.7341,-0.7646,-0.7942,-0.8038,-0.8137,-0.892,-1.0485,-1.195,-1.2242,-1.3119,-1.3908,-1.4202,-1.4298,-1.4298,-1.4298,-1.4298,-1.4394,-1.4592,-1.4592,-1.4592,-1.4592,-1.4592,-1.449,-1.4298,-1.4298,-1.4394,-1.4592,-1.4688,-1.479,-1.4981,-1.5452,-1.5737,-1.5642,-1.5642,-1.5635,-1.5356,-1.5356,-1.5267,-1.5083,-1.5083,-1.5083,-1.5083,-1.5083,-1.5083,-1.4987,-1.4688,-1.3902,-1.2538,-1.117,-1.0194,-0.9509,-0.8432,-0.8627,-0.9509,-0.8432,-0.8038,-0.8038,-0.8038,-0.8038,-0.8038,-0.8038,-0.8038,-0.8038,0.0,0.0,0.0,0.0,0.0,0.0,0.0,0.0,0.0,0.0,0.0,0.0,0.0,0.9525,0.9529,0.9529,0.9529,0.943,0.9133,0.812,0.7415,0.712,0.6121,0.5024,0.4024,0.3924,0.3423,0.2422,0.2422,0.2422,0.2422,0.2422,0.2221,0.2022,0.2022,0.1819,0.1617,0.1617,0.1617,0.1617,0.1313,0.1212,0.1111,0.0606,-0.0908,-0.282,-0.3123,-0.3927,-0.5035,-0.6034,-0.6539,-0.6845,-0.7138,-0.7341,-0.7646,-0.7942,-0.8038,-0.8038,-0.8038,-0.8825,-0.9899,-1.0974,-1.2047,-1.3022,-1.41,-1.4298,-1.4298,-1.4298,-1.4298,-1.4298,-1.4298,-1.4298,-1.4298,-1.4298,-1.4298,-1.4298,-1.4298,-1.4298,-1.4298,-1.4298,-1.4496,-1.4688,-1.4694,-1.5166,-1.5356,-1.5178,-1.5356,-1.5356,-1.5083,-1.5083,-1.5083,-1.5083,-1.5083,-1.5083,-1.5083,-1.5083,-1.4981,-1.4688,-1.3709,-1.2533,-1.117,-0.9118,-0.8627,-0.9509,-0.8432,-0.8627,-0.9509,-0.8432,-0.8038,-0.8038,-0.8038,-0.8038,-0.8038,-0.8038,-0.8038,-0.8038,0.0,0.0,0.0,0.0,0.0,0.0,0.0,0.0,0.0,0.0,0.0,0.0,0.0,0.0,0.0,0.0,0.9628,0.9529,0.943,0.9122,0.8924,0.8825,0.7723,0.7021,0.6623,0.5127,0.4128,0.3726,0.2823,0.2422,0.2422,0.2422,0.2321,0.2221,0.2221,0.2121,0.1819,0.1819,0.1718,0.1617,0.1516,0.1314,0.1111,0.0,-0.0907,-0.1914,0.0,-0.4933,-0.5934,-0.6237,-0.6437,-0.6639,-0.7039,-0.7238,-0.7441,-0.7839,-0.8038,-0.8038,-0.8038,-0.8825,-0.9903,-1.0979,-1.195,-1.3022,-1.41,-1.4298,-1.4298,-1.4298,-1.4298,-1.4298,-1.4298,-1.4298,-1.4298,-1.4298,-1.4298,-1.4298,-1.4298,-1.4298,-1.4298,-1.4298,-1.4394,-1.4394,-1.4394,-1.4879,0.0,-1.5083,-1.5172,-1.5077,-1.4885,-1.479,-1.479,-1.4592,-1.4592,-1.4592,-1.4592,-1.4592,-1.449,-1.4394,-1.2635,-1.1268,-1.0096,-0.8627,-0.8237,-0.8531,-0.8137,-0.8237,-0.8528,-0.8137,-0.8038,-0.8038,-0.8038,-0.8038,-0.8038,-0.8038,-0.8038,-0.8038,0.0,0.0,0.0,0.0,0.0,0.0,0.0,0.0,0.0,0.0,0.0,0.0,0.0,0.0,0.0,0.0,0.0,0.992,0.992,0.992,0.992,0.992,0.9217,0.8418,0.7617,0.6024,0.4828,0.393,0.3127,0.2724,0.2724,0.2724,0.2623,0.2522,0.2522,0.2423,0.2121,0.2121,0.2021,0.1718,0.1718,0.1617,0.1212,-0.0101,-0.1109,0.0,-0.3927,-0.5434,-0.6437,-0.6437,-0.6437,-0.6437,-0.6939,-0.7141,-0.7441,-0.7743,-0.7942,-0.8038,-0.8038,-0.8825,-0.9805,-1.0489,-1.1658,-1.2926,-1.3607,-1.4004,-1.4298,-1.4298,-1.4004,-1.3806,-1.4202,-1.4004,-1.3806,-1.4202,-1.4298,-1.4298,-1.4298,-1.4298,-1.4298,-1.4298,-1.4298,-1.4298,-1.4298,-1.4592,-1.479,-1.479,-1.4885,-1.4885,-1.4592,-1.4592,-1.4496,-1.4298,-1.4298,-1.4298,-1.4298,-1.3908,-1.3318,-1.2635,-1.1268,-1.0096,-0.9019,-0.8333,-0.8038,-0.8038,-0.8038,-0.8038,-0.8038,-0.8038,-0.8038,-0.8038,-0.8038,-0.8038,-0.8038,-0.8038,-0.8038,-0.8038,0.0,0.0,0.0,0.0,0.0,0.0,0.0,0.0,0.0,0.0,0.0,0.0,0.0,0.0,0.0,0.0,0.0,0.0,1.0413,1.0413,1.0413,1.0413,1.0413,0.9308,0.7015,0.6915,0.5724,0.3331,0.3331,0.323,0.323,0.323,0.3029,0.2826,0.2826,0.2623,0.2422,0.2422,0.2221,0.2022,0.2022,0.1819,0.1414,0.0,-0.1309,-0.2618,-0.4026,-0.5331,-0.6437,-0.6437,-0.6437,-0.6437,-0.6742,-0.7144,-0.7547,-0.7547,-0.7743,-0.7942,-0.7942,-0.8726,-0.9509,-0.9608,-1.1072,-1.2533,-1.263,-1.3414,-1.41,-1.41,-1.3414,-1.3022,-1.4004,-1.3414,-1.3125,-1.41,-1.4298,-1.4298,-1.4298,-1.4298,-1.4298,-1.4298,-1.4298,-1.4298,-1.4298,-1.4298,-1.4298,-1.4298,0.0,-1.4592,-1.4298,-1.4298,-1.4298,-1.4202,-1.4202,-1.4202,-1.41,-1.3119,-1.1658,-0.9608,-0.9608,-0.9019,-0.8038,-0.8038,-0.8038,-0.8038,-0.8038,-0.8038,-0.8038,-0.8038,-0.8038,-0.8038,-0.8038,-0.8038,-0.8038,-0.8038,-0.8038,-0.7942,0.0,0.0,0.0,0.0,0.0,0.0,0.0,0.0,0.0,0.0,0.0,0.0,0.0,0.0,0.0,0.0,0.0,0.0,1.0413,1.0413,1.0413,1.0413,1.0413,0.9813,0.8612,0.7822,0.683,0.5534,0.4332,0.3833,0.3833,0.3432,0.313,0.313,0.313,0.2927,0.2724,0.2724,0.2424,0.2022,0.2022,0.1313,0.0303,-0.1108,-0.2415,-0.3723,-0.5133,-0.5937,-0.6437,-0.6437,-0.6539,-0.6742,-0.6742,-0.7042,-0.7341,-0.7341,-0.7444,-0.7743,-0.7743,-0.8038,-0.8627,-0.941,-0.9998,-1.0583,-1.1365,-1.1755,-1.1955,-1.1955,-1.2339,-1.2829,-1.3022,-1.3511,-1.4004,-1.4298,-1.4298,-1.4298,-1.4298,-1.4298,-1.4298,-1.4298,-1.4298,-1.4298,-1.4298,-1.4298,-1.4298,0.0,-1.4394,-1.4394,-1.4298,-1.4298,-1.3902,-1.3119,-1.3119,-1.2732,-1.2047,-1.1755,-1.0877,-0.9608,-0.9608,-0.9019,-0.8038,-0.8038,-0.8038,-0.8038,-0.8038,-0.8038,-0.8038,-0.8038,-0.8038,-0.8038,-0.8038,-0.8038,-0.8038,-0.8038,-0.7842,-0.7743,0.0,0.0,0.0,0.0,0.0,0.0,0.0,0.0,0.0,0.0,0.0,0.0,0.0,0.0,0.0,0.0,0.0,0.0,0.0,1.0703,1.0703,1.0703,1.0703,1.0306,0.9205,0.8219,0.7229,0.6234,0.4933,0.4334,0.4334,0.3831,0.3531,0.3531,0.3331,0.313,0.2927,0.2927,0.2624,0.0,0.0,0.1312,-0.0101,-0.1309,-0.2618,-0.4028,-0.5334,-0.6039,-0.6437,-0.6437,-0.6537,-0.6639,-0.6639,-0.6839,-0.7039,-0.7039,-0.7241,-0.7444,-0.7547,-0.7743,-0.8038,-0.8726,-0.9217,-0.9805,-1.0391,-1.0877,-1.117,-1.117,-1.1658,-1.2145,-1.263,-1.3221,-1.3709,-1.4202,-1.4298,-1.4298,-1.4298,-1.4298,-1.4298,-1.4298,-1.4298,-1.4298,-1.4298,-1.4298,-1.41,0.0,-1.3613,-1.3613,-1.3613,-1.3221,-1.2635,-1.2047,-1.2047,-1.156,-1.0489,-1.0489,-0.9998,-0.8924,-0.8924,-0.8627,-0.8038,-0.8038,-0.8038,-0.8038,0.0,-0.8038,-0.8038,-0.8038,-0.8038,-0.8038,-0.8038,-0.8038,-0.7939,-0.7842,-0.7746,-0.7547,0.0,0.0,0.0,0.0,0.0,0.0,0.0,0.0,0.0,0.0,0.0,0.0,0.0,0.0,0.0,0.0,0.0,0.0,0.0,0.0,1.1194,1.1194,1.1194,1.0596,0.9197,0.8418,0.7425,0.6029,0.5233,0.4935,0.4935,0.4332,0.4033,0.3932,0.343,0.323,0.323,0.323,0.2826,0.2219,0.2219,0.1109,-0.0504,0.0,-0.2621,-0.393,-0.5233,-0.5937,-0.6437,-0.6437,-0.6437,-0.6437,-0.6437,-0.6539,-0.6742,-0.6742,-0.6942,-0.7238,-0.7444,-0.7547,-0.7643,-0.7839,-0.8627,-0.9316,-0.9316,-1.0096,-1.0783,-1.0783,-1.0881,-1.1268,-1.2145,-1.2436,-1.2829,-1.3908,-1.41,-1.41,-1.4298,-1.4298,-1.4298,-1.4298,-1.4298,-1.4298,-1.4298,-1.4196,-1.3709,-1.2727,-1.2436,-1.2339,-1.2533,-1.1658,-1.117,-1.0974,-1.0881,-1.0293,-0.941,-0.941,-0.892,-0.8038,-0.8038,-0.8038,-0.8038,-0.8038,-0.8038,-0.8038,0.0,0.0,-0.8038,-0.8038,-0.7942,-0.7939,-0.7939,-0.7939,-0.7839,-0.7643,-0.7547,-0.7444,0.0,0.0,0.0,0.0,0.0,0.0,0.0,0.0,0.0,0.0,1.7326,1.7232,0.0,0.0,0.0,0.0,0.0,0.0,0.0,0.0,0.0,1.1194,1.1194,1.0502,0.892,0.8722,0.7925,0.6334,0.5734,0.5436,0.5436,0.4433,0.4033,0.3932,0.343,0.323,0.323,0.323,0.2422,0.1109,0.1109,-0.0403,-0.2619,-0.2821,0.0,0.0,-0.5641,-0.6139,-0.6437,-0.6437,-0.6437,-0.6437,-0.6437,-0.6437,-0.6437,-0.6437,-0.6639,-0.6842,-0.6945,-0.7141,-0.7238,-0.7338,-0.764,-0.7939,-0.7939,-0.8233,-0.8528,-0.8528,-0.9213,-0.9899,-1.0096,-1.0877,-1.1755,-1.2829,-1.3022,-1.3318,-1.4196,-1.4298,-1.4298,-1.4298,-1.4298,-1.4298,-1.4298,-1.3511,-1.2926,0.0,-1.1072,-1.0485,-1.1365,-1.1268,-1.0779,-0.9899,-0.9019,-0.8432,-0.8233,-0.8233,-0.8137,-0.8038,-0.8038,-0.8038,-0.8038,-0.8038,-0.8038,-0.8038,-0.8038,0.0,-0.8038,-0.8038,-0.7842,-0.7646,-0.7646,-0.754,-0.7338,-0.7238,-0.7141,-0.6945,0.0,0.0,0.0,0.0,0.0,0.0,0.0,1.7326,1.7326,1.7326,1.7326,1.7326,1.7326,1.5507,1.4268,0.0,0.0,0.0,0.0,0.0,0.0,1.1194,1.1194,1.0801,1.0109,0.9217,0.8425,0.763,0.0,0.5837,0.5534,0.4834,0.4234,0.3932,0.343,0.323,0.323,0.323,0.2422,0.121,0.0907,-0.0605,-0.2822,-0.3123,0.0,0.0,-0.5639,-0.5939,-0.6239,-0.6337,-0.6437,-0.6437,-0.6437,-0.6437,-0.6437,-0.6437,-0.6537,-0.6639,-0.6742,-0.6942,-0.7039,-0.7138,-0.7338,-0.7444,-0.7547,-0.7746,-0.7842,-0.7942,-0.8825,-0.9608,-0.9608,-1.0489,-1.1365,-1.1853,-1.195,-1.2145,-1.2635,-1.2732,-1.2732,-1.2732,-1.3119,-1.3221,-1.2732,-1.2732,-1.2242,-1.117,-1.019,-0.9801,-1.0293,-0.9801,-0.9316,-0.8825,-0.8233,-0.8038,-0.8038,-0.8038,-0.8038,-0.8038,-0.8038,-0.8038,-0.8038,-0.8038,-0.8038,-0.8038,-0.7842,0.0,-0.7743,-0.764,-0.754,-0.7441,-0.7441,-0.7341,-0.7138,-0.7039,-0.6942,-0.6745,0.0,0.0,0.0,0.0,0.0,0.0,0.0,1.7326,1.7326,1.7326,1.7138,1.6951,1.6951,1.5412,1.4172,0.0,0.0,0.0,0.0,0.0,0.0,0.0,0.0,0.0,1.0703,0.0,0.0,0.8326,0.7033,0.0,0.0,0.0,0.0,0.0,0.343,0.323,0.323,0.3027,0.2219,0.0,0.0,-0.1008,-0.2924,0.0,0.0,0.0,0.0,-0.5739,-0.6042,-0.6239,-0.6337,-0.6437,-0.6437,-0.6437,-0.6437,-0.6437,-0.6437,-0.6437,-0.6642,-0.6742,-0.6742,-0.6936,-0.7039,-0.7138,-0.7344,-0.7547,-0.7646,-0.7842,-0.8627,-0.9217,-0.9217,-0.9899,-1.0583,-1.0783,-1.0881,-1.0877,-1.1072,-1.117,-1.1175,-1.1072,-1.1853,-1.2047,-1.1268,-1.1658,-1.1268,-0.9706,-0.941,0.0,-0.9217,-0.8432,-0.8038,-0.8038,-0.8038,-0.8038,-0.8038,-0.8038,-0.8038,-0.8038,-0.7939,-0.7942,-0.7942,-0.7839,-0.7839,-0.7839,-0.7643,0.0,0.0,-0.7238,-0.7138,-0.7138,-0.7138,-0.7039,-0.6936,-0.6539,-0.6342,-0.6339,0.0,0.0,0.0,0.0,0.0,0.0,0.0,1.7326,1.7326,1.7326,1.6466,1.5988,1.5988,1.4937,1.3884,0.0,0.0,0.0,0.0,0.0,0.0,0.0,0.0,0.0,0.0,0.0,0.0,0.6634,0.6437,0.0,0.0,0.0,0.0,0.0,0.0,0.323,0.313,0.2422,0.0,0.0,0.0,0.0,0.0,0.0,0.0,0.0,0.0,-0.5541,-0.6042,-0.6042,-0.6239,-0.6437,-0.6437,-0.6437,-0.6437,-0.6437,-0.6437,-0.6437,-0.6437,-0.6437,-0.6437,-0.6437,-0.6639,-0.6842,-0.6845,-0.7244,-0.7646,-0.7646,-0.7942,-0.8137,-0.8137,-0.8233,-0.8627,-0.9608,-0.9702,-0.9998,-1.0685,-1.1072,-1.1072,-1.0877,-1.117,-1.1268,-1.117,-1.0194,-0.9509,-0.9608,-0.8726,0.0,-0.8137,-0.8038,-0.8038,-0.8038,-0.8038,-0.8038,-0.8038,-0.8038,-0.8038,-0.8038,-0.7743,-0.7646,-0.7646,-0.7341,-0.7238,-0.7238,-0.7238,0.0,0.0,-0.7238,-0.7042,-0.6842,-0.6842,-0.6639,-0.6337,-0.5336,-0.4935,-0.4834,0.0,0.0,0.0,0.0,0.0,0.0,1.7326,1.7326,1.7037,1.6466,1.6082,1.5317,1.407,1.3596,1.321,1.2732,0.0,0.0,0.0,0.0,0.0,0.0,0.0,0.0,0.0,0.0,0.8226,0.7132,0.6334,0.0,0.0,0.0,0.0,0.0,0.0,0.323,0.313,0.2826,0.0,0.0,0.0,0.0,0.0,0.0,0.0,0.0,0.0,0.0,-0.5739,-0.5942,-0.6139,-0.6437,-0.6437,-0.6437,-0.6437,-0.6437,-0.6437,-0.6437,-0.6437,-0.6437,-0.6437,-0.6437,-0.6437,-0.6639,-0.6742,-0.6945,-0.7144,-0.7341,-0.7441,-0.754,-0.7743,-0.764,-0.7736,-0.8528,-0.8528,-0.8528,-0.9019,-0.9217,-0.9217,-0.892,-0.9509,-0.9702,-0.8913,-0.8913,-0.8715,-0.8226,0.0,0.0,-0.7537,-0.7643,-0.7643,-0.7537,-0.7537,-0.7537,-0.7537,-0.7537,-0.7537,-0.7537,-0.7441,-0.7341,-0.7341,-0.7238,-0.7238,-0.7238,-0.7039,0.0,0.0,-0.6739,-0.6639,-0.6539,-0.5839,-0.5536,-0.5334,-0.423,-0.3827,-0.3726,0.0,0.0,0.0,0.0,0.0,1.7326,1.7326,1.7326,1.6943,1.5893,1.5514,1.4651,1.292,1.2441,1.2252,1.2252,1.158,0.0,0.0,0.0,0.0,0.0,0.0,0.0,0.0,0.0,0.7928,0.7033,0.6034,0.5233,0.0,0.0,0.3732,0.323,0.0,0.0,0.0,0.0,0.0,0.0,0.0,0.0,0.0,0.0,0.0,0.0,0.0,0.0,0.0,0.0,0.0,-0.6339,-0.6337,-0.6437,-0.6437,-0.6437,-0.6437,-0.6437,-0.6437,-0.6437,-0.6437,-0.6437,-0.6437,-0.6437,-0.6639,-0.6742,-0.6845,-0.7039,-0.7138,-0.7238,-0.7444,-0.7341,-0.7338,-0.7739,-0.7643,-0.7543,-0.764,-0.7739,-0.764,-0.7444,-0.8134,-0.8226,-0.7335,-0.7925,-0.8021,-0.7138,0.0,0.0,-0.7039,-0.7244,-0.7344,-0.7238,-0.7238,-0.7238,-0.7238,-0.7238,-0.7238,-0.7238,-0.7138,-0.7039,-0.7039,-0.7039,-0.6936,-0.6936,0.0,0.0,0.0,-0.6137,-0.5937,-0.5834,-0.4732,-0.4331,-0.423,-0.3123,-0.272,-0.272,0.0,0.0,0.0,0.0,0.0,0.0,1.7326,1.7326,1.6943,1.5893,1.4937,1.3884,1.2823,1.177,1.1194,1.1194,1.1194,0.0,0.0,0.0,0.0,0.0,0.0,0.0,0.0,0.0,0.6933,0.5636,0.5636,0.5035,0.4033,0.4033,0.3732,0.323,0.0,0.0,0.0,0.0,0.0,0.0,0.0,0.0,0.0,0.0,0.0,0.0,0.0,0.0,0.0,0.0,0.0,0.0,0.0,-0.6437,-0.6437,-0.6437,-0.6437,-0.6437,-0.6437,-0.6437,-0.6437,-0.6437,-0.6437,-0.6437,-0.6437,-0.6639,-0.6845,-0.6845,-0.7042,-0.7238,-0.7238,-0.7238,-0.7238,-0.7238,-0.7238,-0.7138,-0.6845,-0.7039,-0.7138,-0.6842,-0.7042,-0.7238,-0.7238,-0.7238,-0.7138,-0.6842,0.0,0.0,-0.6845,-0.6845,-0.6942,-0.7238,-0.7238,-0.7238,-0.7238,-0.7238,-0.7238,-0.7238,-0.6942,-0.6845,-0.6845,-0.6539,-0.6437,0.0,0.0,0.0,0.0,-0.5233,-0.4834,-0.4734,-0.3626,-0.3224,-0.3123,-0.2016,-0.1613,-0.1513,0.0,0.0,0.0,0.0,0.0,0.0,0.0,1.7326,1.6943,1.5893,1.4937,1.3884,1.2823,1.177,1.1194,1.1194,1.1194,0.0,0.0,0.0,0.0,0.0,0.0,0.0,0.0,0.0,0.6933,0.5636,0.5236,0.4734,0.4033,0.3632,0.3331,0.323,0.323,0.323,0.0,0.0,0.0,0.0,0.0,0.0,0.0,0.0,0.0,0.0,0.0,0.0,0.0,0.0,0.0,0.0,0.0,0.0,0.0,-0.6437,-0.6437,-0.6437,-0.6437,-0.6437,-0.6437,-0.6437,-0.6437,-0.6437,-0.6437,-0.6437,-0.6539,-0.6539,-0.6637,-0.6736,-0.6942,-0.6739,-0.6736,-0.7138,-0.7042,-0.6942,-0.7042,-0.7138,-0.7138,-0.6842,-0.6739,-0.6637,-0.6637,0.0,-0.6637,0.0,0.0,0.0,-0.6539,-0.6539,-0.6537,-0.6637,-0.6637,-0.6637,-0.6637,-0.6637,-0.6637,-0.6637,-0.6537,-0.6539,-0.6539,-0.6437,0.0,0.0,0.0,0.0,0.0,-0.4935,-0.4331,-0.3626,-0.2519,-0.2116,-0.2017,-0.0908,-0.0505,-0.0505,0.0,0.0,0.0,0.0,0.0,0.0,0.0,1.7326,1.6756,1.5412,1.4651,1.3788,1.2252,1.158,1.1194,1.1194,1.1194,0.0,0.0,0.0,0.0,0.0,0.0,0.0,0.7132,0.6933,0.6334,0.5336,0.4734,0.4234,0.3732,0.3331,0.323,0.323,0.323,0.323,0.0,0.0,0.0,0.0,0.0,0.0,-0.4834,0.0,0.0,0.0,0.0,0.0,0.0,0.0,0.0,0.0,0.0,0.0,0.0,0.0,-0.6437,-0.6437,-0.6437,-0.6437,-0.6437,-0.6437,-0.6437,-0.6437,-0.6437,-0.6437,-0.6437,-0.6437,-0.6437,-0.6437,-0.6639,-0.6539,-0.6537,-0.6836,-0.6739,-0.6739,-0.6836,-0.6936,-0.6836,-0.6642,-0.6537,-0.6437,0.0,-0.6437,0.0,0.0,0.0,0.0,-0.6437,-0.6437,-0.6437,-0.6437,-0.6437,-0.6437,-0.6437,-0.6437,-0.6437,-0.6437,-0.6437,-0.6437,-0.6437,-0.6437,0.0,0.0,0.0,0.0,0.0,-0.3927,-0.3224,-0.2519,-0.1412,-0.1009,-0.0908,-0.0202,0.0,0.0,0.0,0.0,0.0,0.0,0.0,0.0,0.0,1.7232,1.6466,1.4555,1.4268,1.3403,1.1482,1.1194,1.1194,1.1194,0.0,0.0,0.0,0.0,0.0,0.0,0.0,0.0,0.6334,0.5837,0.5336,0.4734,0.4234,0.3732,0.323,0.323,0.323,0.323,0.313,0.3027,0.0,0.0,0.0,0.0,0.0,0.0,0.0,0.0,0.0,0.0,0.0,0.0,0.0,0.0,0.0,0.0,0.0,0.0,0.0,0.0,0.0,0.0,0.0,-0.6437,-0.6437,-0.6437,-0.6437,-0.6437,-0.6437,-0.6437,0.0,-0.6437,-0.6437,-0.6437,-0.6437,-0.6437,-0.6437,-0.6437,-0.6437,-0.6437,-0.6437,-0.6437,-0.6437,-0.6437,-0.6437,-0.6437,-0.6437,-0.6437,0.0,0.0,0.0,0.0,-0.6437,-0.6437,-0.6437,-0.6437,-0.6437,-0.6437,-0.6437,-0.6437,-0.6437,-0.6437,-0.6437,-0.6437,-0.6437,-0.6437,0.0,0.0,0.0,0.0,0.0,-0.2418,-0.1513,-0.1412,-0.0404,0.0,0.0,0.0,0.0,0.0,0.0,0.0,0.0,0.0,0.0,0.0,0.0,0.0,0.0,0.0,1.3596,1.292,1.2441,1.1678,1.1194,0.0,0.0,0.0,0.0,0.0,0.0,0.0,0.0,0.0,0.5834,0.5634,0.5135,0.4234,0.4033,0.3732,0.323,0.323,0.323,0.313,0.2522,0.1108,0.0,0.0,0.0,0.0,0.0,0.0,0.0,0.0,0.0,0.0,-0.4834,-0.4834,0.0,0.0,0.0,0.0,0.0,0.0,0.0,0.0,-0.6437,-0.6437,-0.6437,0.0,-0.6437,-0.6437,-0.6437,-0.6437,0.0,-0.6437,-0.6437,-0.6437,-0.6437,-0.6437,-0.6437,-0.6437,-0.6437,-0.6437,-0.6437,-0.6437,-0.6437,-0.6437,-0.6437,-0.6437,-0.6437,-0.6437,-0.6437,-0.6437,0.0,0.0,0.0,-0.6437,-0.6437,-0.6437,-0.6437,-0.6437,-0.6437,-0.6437,-0.6437,-0.6437,-0.6437,-0.6437,-0.6437,-0.6437,-0.6437,-0.6437,0.0,0.0,0.0,0.0,-0.2318,-0.1815,-0.111,-0.0303,-0.0101,0.0,0.0,0.0,0.0,0.0,0.0,0.0,0.0,0.0,0.0,0.0,0.0,0.0,0.0,0.0,0.0,0.0,0.0,0.0,0.0,0.0,0.0,0.0,0.0,0.0,0.0,0.0,0.0,0.6634,0.5636,0.5336,0.4834,0.4033,0.3732,0.3531,0.323,0.323,0.323,0.323,0.2725,0.1108,0.0,0.0,0.0,0.0,-0.4632,0.0,0.0,0.0,0.0,0.0,-0.4834,-0.4834,0.0,-0.4937,-0.5238,-0.5438,0.0,0.0,0.0,0.0,-0.6437,-0.6437,-0.6437,-0.6437,-0.6437,-0.6437,-0.6437,-0.6437,-0.6437,-0.6437,-0.6437,-0.6437,-0.6437,-0.6437,-0.6437,-0.6339,-0.6239,-0.6337,-0.6339,-0.6239,-0.6337,-0.6437,-0.6437,-0.6437,-0.6437,-0.6437,0.0,0.0,0.0,0.0,0.0,-0.6437,-0.6437,-0.6437,-0.6437,-0.6437,-0.6437,-0.6437,-0.6437,-0.6437,-0.6437,-0.6437,-0.6437,-0.6134,-0.5634,-0.5634,-0.5033,0.0,0.0,0.0,-0.1513,-0.111,-0.0505,0.0,0.0,0.0,0.0,0.0,0.0,0.0,0.0,0.0,0.0,0.0,0.0,0.0,0.0,0.0,0.0,0.0,0.0,0.0,0.0,0.0,0.0,0.0,0.0,0.0,0.0,0.0,0.0,0.0,0.6634,0.6037,0.5534,0.4935,0.4435,0.3833,0.343,0.323,0.323,0.323,0.313,0.3027,0.3027,0.1714,0.0,0.0,0.0,0.0,-0.423,0.0,0.0,0.0,0.0,0.0,0.0,0.0,0.0,-0.4431,-0.4634,-0.5039,-0.5236,0.0,0.0,0.0,0.0,0.0,-0.6237,-0.6237,-0.6337,-0.6337,-0.6437,-0.6437,-0.6437,-0.6437,-0.6437,-0.6437,-0.6437,-0.6437,-0.6337,-0.6139,-0.6139,-0.6337,-0.6139,-0.6139,-0.6337,-0.6437,-0.6437,-0.6437,-0.6437,0.0,0.0,0.0,0.0,0.0,0.0,-0.6437,0.0,-0.6437,-0.6437,-0.6437,-0.6437,-0.6437,-0.6437,-0.6437,-0.6437,-0.6437,-0.6237,-0.5634,-0.4834,-0.4634,-0.3929,0.0,0.0,0.0,-0.1311,-0.0404,0.0,0.0,0.0,0.0,0.0,0.0,0.0,0.0,0.0,0.0,0.0,0.0,0.0,0.0,0.0,0.0,0.0,0.0,0.0,0.0,0.0,0.0,0.0,0.0,0.0,0.0,0.0,0.0,0.0,0.5934,0.5834,0.5436,0.4935,0.4433,0.3833,0.3331,0.323,0.323,0.323,0.323,0.2826,0.2219,0.2219,0.121,-0.0403,-0.0403,0.0,0.0,0.0,0.0,0.0,0.0,0.0,0.0,0.0,0.0,0.0,-0.272,-0.2922,-0.383,-0.3929,0.0,0.0,0.0,0.0,0.0,-0.5734,-0.5734,-0.5834,-0.6334,-0.6437,-0.6437,-0.6437,-0.6437,-0.6437,-0.6437,-0.6437,-0.6337,-0.6139,-0.6239,-0.6237,-0.6142,-0.6239,-0.6337,-0.6437,-0.6437,-0.6437,-0.6437,0.0,-0.6437,0.0,0.0,0.0,0.0,0.0,0.0,0.0,-0.6437,-0.6437,-0.6437,-0.6437,-0.6437,-0.6437,-0.6437,-0.6437,-0.6437,-0.5436,-0.4935,-0.4734,-0.3828,-0.2821,0.0,0.0,-0.111,-0.0202,-0.0101,0.0,0.0,0.0,0.0,0.0,0.0,0.0,0.0,0.0,0.0,0.0,0.0,0.0,0.0,0.0,0.0,0.0,0.0,0.0,0.0,0.0,0.0,0.0,0.0,0.0,0.0,0.0,0.0,0.6534,0.5634,0.5334,0.4935,0.4332,0.4133,0.3732,0.323,0.323,0.323,0.323,0.323,0.2725,0.2017,0.2422,0.1816,0.0504,0.0303,-0.0403,0.0,0.0,0.0,0.0,0.0,0.0,0.0,0.0,0.0,0.0,0.0,-0.2519,-0.2519,-0.2719,0.0,0.0,0.0,0.0,0.0,-0.5434,-0.5133,-0.4828,-0.5029,-0.5532,-0.5934,-0.5934,-0.5934,-0.6037,-0.6139,-0.6139,-0.6139,-0.6042,-0.5937,-0.5837,-0.5641,-0.5839,-0.5934,-0.5934,-0.5934,-0.5934,0.0,0.0,0.0,0.0,0.0,0.0,0.0,0.0,0.0,0.0,0.0,-0.6437,-0.6437,-0.6437,-0.6134,-0.5536,-0.5536,-0.5536,-0.5536,-0.5035,-0.423,-0.3022,-0.2519,-0.1714,-0.0706,0.0,-0.0505,0.0,0.0,0.0,0.0,0.0,0.0,0.0,0.0,0.0101,0.0202,0.0,0.0,0.0,0.0,0.0,0.0,0.0,0.0,0.0,0.0,0.0,0.0,0.0,0.0,0.0,0.0,0.0,0.0,0.0,0.6734,0.6137,0.5436,0.5035,0.4533,0.4033,0.3833,0.3632,0.323,0.323,0.323,0.323,0.323,0.2826,0.232,0.2927,0.2524,0.1515,0.1311,0.0706,0.0,0.0,0.0,0.0,0.0,0.0,0.0,0.0,0.0,0.0,0.0,0.0,0.0,0.0,0.0,0.0,-0.3019,-0.3422,-0.3623,-0.473,-0.4227,-0.3522,-0.4026,-0.4528,-0.483,-0.483,-0.483,-0.4931,-0.5436,-0.5536,-0.5536,-0.5438,-0.5236,-0.5133,-0.5238,-0.5436,-0.5636,-0.5636,-0.5636,-0.5636,-0.5636,0.0,0.0,0.0,0.0,0.0,0.0,0.0,0.0,0.0,0.0,-0.6134,-0.5834,-0.5832,-0.5331,-0.4228,-0.4228,-0.4329,-0.4431,-0.413,-0.3224,-0.1613,-0.1311,-0.0807,0.0,0.0,0.0,0.0,0.0,0.0,0.0,0.0,0.0,0.0101,0.0101,0.0303,0.0505,0.0,0.0,0.0,0.0,0.0,0.0,0.0,0.0,0.0,0.0,0.0,0.0,0.0,0.0,0.0,0.0,0.0,0.0,0.0,0.6434,0.5937,0.4935,0.4834,0.4533,0.4033,0.3531,0.323,0.323,0.323,0.323,0.323,0.323,0.313,0.313,0.313,0.2826,0.2321,0.232,0.1412,0.0,-0.0101,0.0,0.0,0.0,0.0,0.0,0.0,0.0,0.0,0.0,0.0,0.0,0.0,0.0,-0.0403,-0.1411,-0.1815,-0.2016,-0.3123,-0.262,-0.2217,-0.423,-0.3725,-0.2618,-0.2618,-0.2618,-0.2919,-0.3924,-0.4124,-0.4026,-0.3828,-0.3729,-0.413,-0.5336,-0.5634,-0.5636,-0.5636,0.0,-0.5636,0.0,0.0,0.0,0.0,0.0,0.0,0.0,0.0,0.0,-0.5636,0.0,0.0,-0.4225,-0.4124,-0.3623,-0.2618,-0.2616,-0.2819,-0.3324,-0.2318,-0.1714,-0.1613,-0.0606,-0.0101,0.0,0.0,0.0,0.0,0.0,0.0,0.0,0.0,0.0202,0.0404,0.0404,0.0505,0.0808,0.0,0.0,0.0,0.0,0.0,0.0,0.0,0.0,0.0,0.0,0.0,0.0,0.0,0.0,0.0,0.0,0.0,0.0,0.0,0.5934,0.5434,0.4334,0.4334,0.4033,0.3531,0.3331,0.323,0.323,0.323,0.323,0.323,0.323,0.323,0.323,0.323,0.2927,0.2422,0.2422,0.1816,0.1009,0.1009,0.0,0.0,0.0,0.0,0.0,0.0,0.0,0.0,0.0,0.0807,0.1009,0.1009,0.1009,0.0807,-0.0302,-0.0605,-0.0806,-0.1915,-0.1411,-0.0806,-0.1611,-0.0806,-0.0403,-0.2417,-0.292,-0.2919,-0.2818,-0.2716,-0.2717,-0.2618,-0.3525,-0.4331,-0.4128,-0.4632,-0.5135,-0.5135,-0.5135,-0.5135,0.0,0.0,0.0,0.0,0.0,0.0,0.0,0.0,0.0,0.0,0.0,0.0,-0.3019,-0.3623,-0.3119,-0.1411,-0.141,-0.1209,-0.0706,-0.1008,-0.0706,-0.0101,0.0303,0.0505,0.0505,0.0505,0.0505,0.0505,0.0505,0.0505,0.0505,0.0505,0.0606,0.0606,0.0606,0.0808,0.101,0.0,0.0,0.0,0.0,0.0,0.0,0.0,0.0,0.0,0.0,0.0,0.0,0.0,0.0,0.0,0.0,0.0,0.0,0.5636,0.5636,0.5135,0.4033,0.4033,0.3732,0.323,0.323,0.323,0.323,0.323,0.323,0.323,0.323,0.323,0.323,0.313,0.2826,0.2422,0.2321,0.202,0.1617,0.1617,0.1617,0.0,0.0,0.0,0.0,0.0,0.0,0.0,0.0,0.1009,0.1617,0.1617,0.1617,0.1414,0.0706,0.0504,0.0303,-0.0806,-0.0303,0.0303,-0.0302,0.0303,0.0504,-0.1712,-0.1914,-0.1612,-0.1409,-0.1409,-0.1611,-0.2214,-0.3122,-0.3726,-0.3726,-0.4331,-0.4834,-0.4834,-0.4834,0.0,0.0,0.0,0.0,0.0,0.0,0.0,0.0,0.0,0.0,0.0,0.0,0.0,0.0,-0.2315,-0.1913,-0.0101,0.0,0.0303,0.101,0.0303,0.0303,0.0808,0.0808,0.0808,0.0808,0.0808,0.0808,0.0808,0.0808,0.0808,0.0808,0.0808,0.0808,0.0909,0.0909,0.1111,0.1314,0.0,0.0,0.0,0.0,0.0,0.0,0.0,0.0,0.0,0.0,0.0,0.0,0.0,0.0,0.0,0.0,0.0,0.0,0.5636,0.5534,0.5135,0.4033,0.4033,0.3732,0.323,0.323,0.323,0.323,0.323,0.323,0.323,0.323,0.323,0.323,0.2927,0.2623,0.2422,0.2121,0.1819,0.1617,0.1617,0.1617,0.1617,0.0,0.0,0.0,0.0,0.0,0.0,0.0,0.1617,0.1617,0.1617,0.1617,0.1617,0.1617,0.1617,0.1414,0.0303,0.0807,0.1111,-0.1009,-0.0806,0.0,0.0,0.0807,0.1313,0.0202,0.0,-0.0605,-0.2719,-0.2318,-0.2318,-0.4431,-0.4734,-0.4834,-0.4834,0.0,0.0,0.0,0.0,0.0,0.0,0.0,0.0,0.0,0.0,0.0,0.0,0.0,0.0,0.0,0.0,0.0504,0.1617,0.1617,0.1617,0.1617,0.1617,0.1314,0.0808,0.0808,0.0808,0.0808,0.0808,0.0808,0.0808,0.0808,0.0808,0.0808,0.0808,0.101,0.1212,0.1212,0.1415,0.1617,0.0,0.0,0.0,0.0,0.0,0.0,0.0,0.0,0.0,0.0,0.0,0.0,0.0,0.0,0.0,0.0,0.0,0.0,0.3624,0.3624,0.3525,0.343,0.2925,0.2825,0.323,0.323,0.323,0.323,0.323,0.323,0.323,0.323,0.313,0.2927,0.2826,0.2524,0.2121,0.2021,0.1819,0.1617,0.1617,0.1617,0.1617,0.0,0.0,0.0,0.0,0.0,0.0,0.0,0.0,0.0,0.1617,0.1617,0.1617,0.1617,0.1617,0.1516,0.1212,0.1313,0.1415,0.0808,0.0908,0.1111,0.1111,0.0807,0.0605,0.1009,0.0504,0.0,0.0202,-0.0807,-0.1815,-0.2418,-0.3224,-0.3927,-0.4734,0.0,0.0,0.0,0.0,0.0,0.0,0.0,0.0,0.0,0.0,0.0,0.0,0.0,0.0,0.0,0.0403,0.0504,0.1617,0.1617,0.1617,0.1617,0.1617,0.1516,0.1314,0.1314,0.1314,0.1314,0.1314,0.1314,0.1314,0.1314,0.1314,0.1314,0.1314,0.1415,0.1516,0.1516,0.1516,0.1617,0.0,0.0,0.0,0.0,0.0,0.0,0.0,0.0,0.0,0.0,0.292,0.292,0.0,0.0,0.0,0.0,0.0,0.0,0.0,0.2315,0.2317,0.2219,0.2118,0.2422,0.323,0.323,0.323,0.323,0.323,0.323,0.323,0.323,0.3029,0.2826,0.2724,0.2424,0.2022,0.1921,0.1718,0.1617,0.1617,0.1617,0.1617,0.0,0.0,0.0,0.0,0.0,0.0,0.0,0.0,0.0,0.1617,0.1617,0.1617,0.1617,0.1617,0.1617,0.1617,0.1617,0.1617,0.1617,0.1617,0.1617,0.1617,0.1111,0.0807,0.1515,0.1111,0.0706,0.0908,-0.0101,-0.1109,-0.1513,-0.2116,0.0,0.0,0.0,0.0,0.0,0.0,0.0,0.0,0.0,0.0,0.0,0.0,0.0,0.0,0.0,0.0,0.0,0.1009,0.0908,0.1617,0.1617,0.1617,0.1617,0.1617,0.1617,0.1617,0.1617,0.1617,0.1617,0.1617,0.1617,0.1617,0.1617,0.1617,0.1617,0.1617,0.1617,0.1617,0.1617,0.1617,0.1617,0.0,0.0,0.0,0.0,0.0,0.0,0.0,0.0,0.0,0.0,0.2114,0.2013,0.0,0.0,0.0,0.0,0.0,0.0,0.0,0.1409,0.1208,0.0806,0.1613,0.232,0.3029,0.313,0.323,0.323,0.323,0.323,0.323,0.313,0.3027,0.2725,0.2522,0.2221,0.1921,0.1718,0.1617,0.1617,0.1617,0.1617,0.1617,0.1617,0.0,0.0,0.0,0.0,0.0,0.0,0.0,0.0,0.1617,0.1617,0.1617,0.1617,0.1617,0.1617,0.1617,0.1617,0.1617,0.1617,0.1617,0.1617,0.1617,0.1617,0.1617,0.1617,0.1617,0.1313,0.0303,0.0101,-0.0202,-0.131,-0.1412,0.0,0.0,0.0,0.0,0.0,0.0,0.0,0.0,0.0,0.0,0.0,0.0,0.0,0.0,0.0,0.0,0.1617,0.1617,0.1617,0.1617,0.1617,0.1617,0.0,0.1617,0.1617,0.1617,0.1617,0.1617,0.1617,0.1617,0.1617,0.1617,0.1617,0.1617,0.1617,0.1617,0.1617,0.1617,0.1617,0.1617,0.1617,0.0,0.0,0.0,0.0,0.0,0.0,0.0,0.0,0.0,0.0,0.0,0.0,0.0,0.0,0.0,0.0,0.0,0.0,0.0,0.0,0.0303,0.0806,0.1613,0.2118,0.2219,0.2927,0.323,0.323,0.323,0.323,0.323,0.3027,0.2725,0.2522,0.2222,0.192,0.1718,0.1617,0.1617,0.1617,0.1617,0.1617,0.1617,0.1617,0.1617,0.0,0.0,0.0,0.0,0.0,0.0,0.0,0.1617,0.1617,0.1617,0.1617,0.1617,0.1617,0.1617,0.1617,0.1617,0.1617,0.1617,0.1617,0.1617,0.1617,0.1617,0.1617,0.1617,0.1516,0.1313,0.1212,0.0908,-0.0202,0.0,0.0,0.0,0.0,0.0,0.0,0.0,0.0,0.0,0.0,0.0,0.0,0.0,0.0,0.1617,0.0,0.0,0.1617,0.1617,0.1617,0.1617,0.1617,0.1617,0.0,0.1617,0.1617,0.1617,0.1617,0.1617,0.1617,0.1617,0.1617,0.1617,0.1617,0.1617,0.1617,0.1617,0.1617,0.1617,0.1617,0.1617,0.1617,0.0,0.0,0.0,0.0,0.0,0.0,0.0,0.0,0.0,0.0,0.0,0.0,0.0,0.0,0.0,0.0,0.0,0.0,0.0,0.0,-0.0606,0.0202,0.0605,0.1211,0.2017,0.2422,0.2826,0.323,0.323,0.323,0.323,0.2927,0.2623,0.2422,0.2122,0.1819,0.1617,0.1617,0.1617,0.1617,0.1617,0.1617,0.1617,0.1617,0.1617,0.1617,0.1617,0.0,0.0,0.0,0.0,0.0,0.0,0.0,0.1617,0.1617,0.1617,0.1617,0.1617,0.1617,0.1617,0.1617,0.1617,0.1617,0.1617,0.1617,0.1617,0.1617,0.1617,0.1617,0.1617,0.1617,0.1414,0.0807,0.0,0.0,0.0,0.0,0.0,0.0,0.0,0.0,0.0,0.0,0.0,0.0,0.0,0.1617,0.1617,0.1617,0.1617,0.1617,0.1617,0.1617,0.1617,0.1617,0.1617,0.1617,0.1617,0.1617,0.1617,0.1617,0.1617,0.1617,0.1617,0.1617,0.1617,0.1617,0.1617,0.1617,0.1617,0.1617,0.1617,0.1617,0.1617,0.1617,0.0,0.0,0.0,0.0,0.0,0.0,0.0,0.0,0.0,0.0,0.0,0.0,0.0,0.0,0.0,0.0,0.0,0.0,0.0,0.0,0.0,-0.0606,-0.0303,0.0404,0.1714,0.2017,0.2522,0.323,0.313,0.313,0.313,0.2826,0.2624,0.2321,0.2021,0.1819,0.1617,0.1617,0.1617,0.1617,0.1617,0.1718,0.1818,0.1718,0.1718,0.1818,0.1617,0.1617,0.1617,0.1617,0.0,0.0,0.0,0.0,0.1617,0.1617,0.1617,0.1617,0.1617,0.1617,0.1718,0.1718,0.1717,0.1717,0.1717,0.1717,0.1717,0.1717,0.1617,0.1617,0.1617,0.1617,0.1617,0.1617,0.0,0.0,0.0,0.0,0.0,0.0,0.0,0.0,0.0,0.0,0.0,0.0,0.0,0.1617,0.1617,0.1617,0.1617,0.1617,0.1617,0.1617,0.1617,0.1617,0.1617,0.1617,0.1617,0.1617,0.1617,0.1617,0.1617,0.1617,0.1617,0.1617,0.1617,0.1617,0.1617,0.1617,0.1617,0.1617,0.1617,0.1617,0.1617,0.1617,0.0,0.0,0.0,0.0,0.0,0.0,0.0,0.0,0.0,0.0,-0.7201,-0.6608,0.0,0.0,0.0,0.0,0.0,0.0,-0.1617,0.0,0.0,-0.1415,-0.0101,0.0706,0.0907,0.232,0.313,0.323,0.2927,0.2826,0.2826,0.2623,0.2322,0.2021,0.1819,0.1617,0.1617,0.1617,0.1617,0.1617,0.1617,0.212,0.2923,0.1919,0.2221,0.2822,0.1919,0.1617,0.1617,0.1617,0.1617,0.0,0.0,0.0,0.1617,0.1617,0.1617,0.1617,0.1617,0.1819,0.2021,0.2221,0.2321,0.2321,0.2321,0.2321,0.2321,0.2321,0.1919,0.1617,0.1617,0.1617,0.1617,0.0,0.0,0.0,0.0,0.0,0.0,0.0,0.0,0.0,0.0,0.0,0.0,0.0,0.1617,0.1617,0.1617,0.1617,0.1617,0.1617,0.1617,0.1617,0.1617,0.1617,0.1617,0.1617,0.1617,0.1617,0.1617,0.1617,0.1617,0.1617,0.1617,0.1617,0.1617,0.1617,0.1617,0.1617,0.1617,0.1617,0.1617,0.1617,0.1617,0.1617,0.0,0.0,0.0,0.0,0.0,0.0,0.0,0.0,0.0,0.0,0.0,-0.8209,0.0,0.0,0.0,-0.4225,-0.3524,-0.2723,-0.1718,-0.1617,-0.1617,-0.1617,-0.0908,-0.0101,0.0806,0.1513,0.2219,0.2927,0.2826,0.2624,0.2324,0.2222,0.2121,0.2022,0.1718,0.1617,0.1617,0.1617,0.1617,0.1617,0.222,0.2822,0.3224,0.3324,0.3725,0.4024,0.3524,0.3425,0.3324,0.2722,0.2521,0.2422,0.1818,0.0,0.0,0.0,0.1617,0.1617,0.1819,0.202,0.2221,0.2321,0.2422,0.2422,0.2422,0.2422,0.2422,0.2422,0.222,0.2019,0.2019,0.2019,0.2019,0.0,0.0,0.0,0.0,0.0,0.0,0.0,0.0,0.0,0.0,0.0,0.0,0.0,0.1617,0.1617,0.1617,0.1617,0.1617,0.1617,0.1617,0.1617,0.1617,0.1617,0.1617,0.1617,0.1617,0.1617,0.1617,0.1617,0.1617,0.1617,0.1617,0.1617,0.1617,0.1617,0.1617,0.1617,0.1617,0.1617,0.1617,0.1617,0.1617,0.1617,0.0,0.0,0.0,0.0,0.0,0.0,0.0,0.0,0.0,0.0,0.0,0.0,0.0,0.0,0.0,0.0,-0.4024,-0.3022,-0.1718,-0.1617,-0.1617,-0.1617,-0.1415,-0.0606,0.0806,0.1008,0.1613,0.2826,0.2725,0.2423,0.2022,0.1921,0.1921,0.1921,0.1718,0.1617,0.1617,0.1617,0.1717,0.212,0.2922,0.3624,0.4225,0.4824,0.5122,0.5325,0.5024,0.4924,0.4824,0.3924,0.3624,0.3525,0.2723,0.2422,0.0,0.0,0.0,0.2723,0.2925,0.3126,0.3225,0.3025,0.3025,0.2924,0.2623,0.2623,0.2623,0.2623,0.2623,0.2623,0.2623,0.2522,0.2422,0.0,0.0,0.0,0.0,0.0,0.0,0.0,0.0,0.0,0.0,0.0,0.0,0.0,0.1617,0.1617,0.1617,0.1617,0.1617,0.1617,0.1617,0.1617,0.1617,0.1617,0.1617,0.1617,0.1617,0.1617,0.1617,0.1718,0.1718,0.1718,0.1617,0.1617,0.1617,0.1617,0.1617,0.1617,0.1617,0.1617,0.1617,0.1617,0.1617,0.1617,0.0,0.0,0.0,0.0,0.0,0.0,0.0,0.0,0.0,0.0,0.0,0.0,-0.8233,-0.7939,-0.7033,-0.5024,-0.4724,-0.3823,-0.1717,-0.1617,-0.1617,-0.1617,-0.0909,0.0,0.0806,0.1513,0.2219,0.2826,0.2522,0.2322,0.2022,0.1718,0.1617,0.1617,0.1617,0.1617,0.1617,0.1617,0.2221,0.3123,0.342,0.4822,0.6528,0.5824,0.6224,0.6921,0.5627,0.5327,0.5425,0.0,0.0,0.5029,0.4726,0.4826,0.5029,0.0,0.0,0.0,0.5729,0.5829,0.5629,0.4832,0.4634,0.4433,0.343,0.313,0.313,0.313,0.313,0.313,0.313,0.2725,0.2422,0.0,0.0,0.0,0.0,0.0,0.0,0.0,0.0,0.0,0.0,0.0,0.0,0.0,0.1617,0.1617,0.1617,0.1617,0.1617,0.1617,0.1617,0.1617,0.1617,0.1617,0.1617,0.1617,0.1617,0.1617,0.1617,0.1819,0.2022,0.1921,0.1718,0.1617,0.1617,0.1617,0.1617,0.1617,0.1617,0.1617,0.1617,0.1617,0.1617,0.1617,0.0,0.0,0.0,0.0,0.0,0.0,0.0,0.0,0.0,0.0,0.0,0.0,0.0,-0.8137,-0.7431,-0.5532,-0.4331,-0.3428,-0.2726,-0.2322,-0.212,-0.212,-0.101,0.0,0.0806,0.1412,0.2017,0.2522,0.2322,0.2021,0.1718,0.1617,0.1617,0.1617,0.1617,0.1617,0.1617,0.1617,0.222,0.3324,0.4225,0.5527,0.683,0.7425,0.7922,0.8124,0.7723,0.0,0.0,0.0,0.0,0.0,0.0,0.5227,0.5427,0.5427,0.5627,0.5927,0.5929,0.6126,0.6226,0.5927,0.5331,0.4734,0.4334,0.3732,0.323,0.323,0.323,0.323,0.323,0.3029,0.2927,0.2927,0.0,0.0,0.0,0.0,0.0,0.0,0.0,0.0,0.0,0.0,0.0,0.0,0.0,0.212,0.212,0.212,0.212,0.212,0.212,0.212,0.212,0.212,0.212,0.212,0.212,0.212,0.212,0.2221,0.2221,0.2221,0.212,0.212,0.212,0.212,0.212,0.212,0.212,0.212,0.212,0.192,0.1919,0.212,0.0,0.0,0.0,0.0,0.0,0.0,0.0,0.0,0.0,-1.1755,0.0,0.0,0.0,0.0,-0.773,-0.5932,-0.4131,-0.323,-0.323,-0.2826,-0.2623,-0.2623,-0.1514,-0.0404,0.0403,0.1109,0.1716,0.2221,0.2122,0.1819,0.1617,0.1617,0.1617,0.1617,0.1617,0.1617,0.1617,0.2019,0.2723,0.3825,0.5327,0.6528,0.7627,0.8627,0.9027,0.9027,0.0,0.0,0.0,0.0,0.0,0.0,0.0,0.6625,0.6825,0.6921,0.7024,0.7226,0.7226,0.7325,0.7422,0.7021,0.6426,0.5732,0.5432,0.483,0.413,0.3831,0.3732,0.3632,0.323,0.323,0.323,0.323,0.0,0.0,0.0,0.0,0.0,0.0,0.0,0.0,0.0,0.0,0.0,0.0,0.0,0.0,0.2422,0.2422,0.2422,0.2422,0.2422,0.2422,0.2422,0.2422,0.2422,0.2422,0.2422,0.2422,0.2422,0.2522,0.2522,0.2522,0.2623,0.2522,0.2422,0.2422,0.2422,0.2422,0.2422,0.2422,0.2422,0.2222,0.2221,0.2422,0.0,0.0,0.0,0.0,0.0,0.0,0.0,0.0,-1.4298,-1.2247,0.0,0.0,0.0,0.0,0.0,-0.6229,-0.4332,-0.323,-0.323,-0.323,-0.323,-0.313,-0.2118,-0.121,-0.0403,0.0707,0.1516,0.2022,0.2022,0.1819,0.1617,0.1617,0.1617,0.1617,0.1617,0.1617,0.1718,0.2723,0.3823,0.4924,0.6523,0.7822,0.8825,0.9426,0.9628,0.0,0.9331,0.9335,0.0,0.9027,0.0,0.0,0.0,0.9031,0.9232,0.9529,0.9628,0.9628,0.0,0.0,0.0,0.8322,0.8024,0.772,0.6722,0.6423,0.6126,0.5033,0.4834,0.4533,0.3531,0.3331,0.3331,0.3331,0.0,0.0,0.0,0.0,0.0,0.0,0.0,0.0,0.0,0.0,0.0,0.0,0.2422,0.2422,0.2422,0.2422,0.2422,0.2422,0.2422,0.2422,0.2422,0.2422,0.2422,0.2422,0.2422,0.2422,0.2422,0.2724,0.2826,0.2826,0.313,0.2927,0.2421,0.2422,0.2422,0.2422,0.2422,0.2422,0.2422,0.2422,0.2422,0.2421,0.0,0.0,0.0,0.0,0.0,-1.5356,-1.5178,-1.4394,-1.3511,0.0,0.0,0.0,-0.8924,-0.7925,-0.7229,-0.6933,-0.5334,-0.4334,-0.4334,-0.4033,-0.3429,-0.2623,-0.1412,-0.0303,0.0707,0.1414,0.1819,0.2022,0.1819,0.1718,0.1617,0.1617,0.1617,0.1617,0.1617,0.2019,0.2822,0.3124,0.3823,0.4924,0.6523,0.7822,0.8825,0.9426,0.0,0.0,0.0,0.943,0.9335,0.0,0.9133,0.9232,0.0,0.943,0.9529,0.9529,0.9628,0.9628,0.9628,0.0,0.0,0.0,0.0,0.0,0.7624,0.6921,0.6323,0.6027,0.5927,0.5827,0.5527,0.5527,0.5527,0.5527,0.0,0.0,0.0,0.0,0.0,0.0,0.0,0.0,0.0,0.0,0.0,0.0,0.3027,0.3027,0.3027,0.3027,0.3027,0.3027,0.3027,0.3027,0.3027,0.3027,0.3027,0.3027,0.3027,0.3027,0.3027,0.3029,0.313,0.313,0.313,0.353,0.4029,0.3328,0.3027,0.3027,0.3027,0.3027,0.2927,0.2725,0.3327,0.4131,0.0,0.0,0.0,0.0,0.0,-1.5927,-1.5458,-1.4873,-1.3896,0.0,0.0,0.0,-0.9324,-0.8127,-0.7431,-0.7238,-0.6037,-0.5135,-0.4834,-0.4535,-0.4031,-0.3426,-0.1814,-0.0605,0.0,0.1212,0.1819,0.1819,0.1718,0.1617,0.1617,0.1617,0.1617,0.1617,0.1617,0.2221,0.3224,0.3725,0.4526,0.5629,0.7223,0.8223,0.8825,0.9426,0.9628,0.0,0.0,0.0,0.9331,0.9331,0.9331,0.0,0.0,0.0,0.9628,0.9628,0.9628,0.9628,0.9628,0.9628,0.9628,0.9628,0.0,0.0,0.8623,0.8223,0.7621,0.0,0.7024,0.6921,0.6523,0.6423,0.6423,0.6423,0.0,0.0,0.0,0.0,0.0,0.0,0.0,0.0,0.0,0.323,0.323,0.323,0.323,0.323,0.323,0.323,0.323,0.323,0.323,0.323,0.323,0.323,0.323,0.323,0.323,0.343,0.3833,0.3833,0.4131,0.4529,0.4529,0.4931,0.5429,0.483,0.4529,0.4529,0.4529,0.4529,0.4529,0.4327,0.4828,0.5429,0.0,0.0,-2.0068,-1.8972,-1.7971,-1.6951,-1.592,-1.573,-1.4956,0.0,-1.2538,-1.1663,-0.9821,-0.8931,-0.8134,-0.7238,-0.6539,-0.5739,-0.4834,-0.4834,-0.4734,-0.4431,-0.262,-0.1513,-0.121,0.0606,0.1617,0.1617,0.1617,0.1617,0.1617,0.1617,0.1617,0.1818,0.1818,0.2422,0.3626,0.4526,0.5629,0.6736,0.8226,0.8825,0.8924,0.0,0.9628,0.9628,0.9628,0.9628,0.9628,0.9628,0.9628,0.0,0.0,0.0,0.0,0.0,0.9628,0.9628,0.9628,0.9628,0.9628,0.9628,0.0,0.0,0.9628,0.9628,0.9327,0.0,0.8223,0.7922,0.6921,0.6722,0.6722,0.6722,0.6623,0.0,0.0,0.0,0.0,0.0,0.0,0.0,0.353,0.353,0.353,0.353,0.343,0.3331,0.323,0.323,0.323,0.323,0.323,0.323,0.323,0.3331,0.3331,0.3331,0.3531,0.4031,0.4933,0.4933,0.5529,0.6423,0.6423,0.6423,0.6623,0.6623,0.6523,0.6423,0.6423,0.6423,0.6423,0.6423,0.6523,0.6623,0.0,-2.2013,-2.0413,-1.9063,-1.8149,-1.7225,-1.6015,-1.5064,-1.4094,-1.2829,-1.1277,-1.0015,-0.9628,-0.9221,-0.8524,-0.7338,-0.6833,-0.6132,-0.4834,-0.4834,-0.4029,-0.2318,-0.1815,-0.0807,0.0909,0.1414,0.1617,0.1617,0.1617,0.1617,0.1617,0.1617,0.2019,0.2923,0.2923,0.3925,0.5834,0.6034,0.6833,0.8031,0.8627,0.8928,0.9133,0.943,0.9628,0.9628,0.9628,0.9628,0.9628,0.9628,0.9628,0.9628,0.0,0.0,0.0,0.9628,0.0,0.0,0.0,0.0,0.0,0.0,0.0,0.0,0.9628,0.9628,0.9529,0.0,0.9327,0.9225,0.9023,0.9023,0.9023,0.9023,0.8223,0.0,0.0,0.0,0.0,0.0,0.0,0.0,0.5827,0.5827,0.5827,0.5827,0.4931,0.4133,0.323,0.323,0.323,0.323,0.323,0.323,0.323,0.4033,0.4533,0.4533,0.5329,0.5924,0.6126,0.6126,0.6224,0.6423,0.6423,0.6921,0.7723,0.7723,0.722,0.6423,0.6423,0.6423,0.6423,0.6423,0.6921,0.7723,-2.3193,-2.1498,-2.0068,-1.9255,-1.8056,-1.6951,-1.6298,-1.573,-1.4956,-1.3511,-1.1575,-1.0413,-1.0413,-1.0306,-0.9509,-0.7925,-0.7528,-0.6728,-0.5138,-0.4834,-0.4128,-0.2418,-0.1915,-0.0807,0.0807,0.1313,0.1617,0.1617,0.1617,0.1617,0.1617,0.1617,0.222,0.3422,0.3224,0.4427,0.6634,0.6437,0.7232,0.8627,0.8726,0.0,0.9236,0.9529,0.9628,0.9628,0.9628,0.9628,0.9628,0.9628,0.9628,0.0,0.0,0.9628,0.9628,0.0,0.9628,0.9628,0.0,0.0,0.0,0.9628,0.0,0.0,0.0,0.9628,0.9628,0.9727,0.9826,0.9821,1.0019,1.0019,1.0019,1.0019,0.9418,0.0,0.0,0.0,0.0,0.0,0.0,0.0,0.6423,0.6423,0.6224,0.5629,0.5133,0.4334,0.323,0.323,0.343,0.3932,0.4033,0.4232,0.4828,0.5329,0.5629,0.5629,0.6124,0.6722,0.7223,0.7223,0.7521,0.8021,0.8021,0.8322,0.8825,0.8825,0.8524,0.8021,0.8021,0.8021,0.8021,0.8021,0.8322,0.8825,-2.3028,-2.1239,-1.9803,-1.953,-1.8064,-1.6864,-1.6676,-1.6487,-1.5724,-1.3908,-1.1965,-1.0801,-1.0801,-1.0699,-0.9903,-0.812,-0.772,-0.6825,-0.5238,-0.4734,-0.4029,-0.2922,-0.2016,-0.1009,0.0303,0.1111,0.1617,0.1617,0.1617,0.1617,0.1617,0.1617,0.2421,0.382,0.3624,0.4826,0.703,0.6833,0.7531,0.8825,0.0,0.9027,0.9331,0.9529,0.9628,0.9628,0.9628,0.9628,0.9628,0.9628,0.9628,0.9628,0.9628,0.9628,0.0,0.0,0.0,0.0,0.0,0.0,0.0,0.0,0.0,0.9727,0.0,0.0,0.0,1.0019,1.0117,1.0117,1.0314,1.0413,0.0,0.0,0.0,0.0,0.0,0.0,0.0,0.0,0.0,0.0,0.0,0.7021,0.6526,0.5532,0.5432,0.4933,0.3831,0.383,0.4232,0.5033,0.5133,0.5529,0.6423,0.6623,0.6722,0.6722,0.6921,0.7422,0.8322,0.8322,0.8825,0.9628,0.9628,0.9628,0.9628,0.9628,0.9628,0.9628,0.9628,0.9628,0.9628,0.9628,0.9628,0.9628,-2.3963,-2.2561,-2.106,-1.9712,-1.8796,-1.7878,-1.677,-1.6008,-1.486,-1.3044,-1.0886,-0.9414,-0.9414,-0.9011,-0.8021,-0.6437,-0.6022,-0.562,-0.4935,-0.3929,-0.2922,-0.1815,-0.1714,-0.0605,0.1414,0.1516,0.1617,0.1617,0.1617,0.1617,0.1617,0.1617,0.2722,0.4624,0.4926,0.6032,0.7839,0.8134,0.8428,0.8825,0.8825,0.9126,0.0,0.9628,0.9628,0.9628,0.9628,0.9628,0.9628,0.0,0.9628,0.9628,0.0,0.9628,0.9628,0.9628,0.0,0.0,0.0,0.0,0.0,0.0,0.992,0.0,0.0,0.0,1.0314,1.0314,0.0,1.0314,1.0413,0.0,0.0,0.0,0.0,0.0,0.0,0.0,0.0,0.0,0.0,0.0,0.0,0.9229,0.8825,0.7723,0.7624,0.7123,0.6124,0.6024,0.6124,0.6224,0.6224,0.6323,0.6423,0.7322,0.7822,0.7822,0.8825,0.9327,0.9426,0.9426,0.9525,0.9628,0.9628,0.9628,0.9628,0.9628,0.9628,0.9628,0.9628,0.9628,0.9628,0.9628,0.9628,0.9628,-2.2736,-2.1676,-2.0421,-1.9338,-1.8342,-1.7412,-1.648,-1.5337,-1.4286,-1.3522,-1.216,-1.1282,-1.1282,-1.0489,-0.9399,-0.8018,0.0,-0.5518,0.0,0.0,-0.2922,-0.1913,-0.1813,-0.0705,0.1516,0.1617,0.1617,0.1617,0.1617,0.1617,0.1617,0.1617,0.2823,0.5027,0.5129,0.6429,0.8432,0.8627,0.8829,0.0,0.0,0.9229,0.0,0.9628,0.9628,0.9628,0.9628,0.9628,0.9628,0.0,0.9628,0.0,0.0,0.0,0.0,0.0,0.0,0.0,0.0,0.0,0.0,0.0,0.0,0.0,1.0507,0.0,1.0413,0.0,0.0,0.0,0.0,0.0,0.0,0.0,1.0708,0.0,0.0,0.0,0.0,0.0,0.0,0.0,0.0,0.0,0.0,0.0,0.812,0.772,0.6423,0.6423,0.6722,0.7322,0.7322,0.7624,0.8223,0.8722,0.8924,0.8924,0.9426,0.9628,0.9628,0.9628,0.9628,0.9628,0.9628,0.9628,0.9628,0.9628,0.9628,0.9628,0.9628,0.9628,0.9628,0.9628,0.9628,0.9628,-2.097,-2.0331,-1.9604,-1.888,-1.7971,-1.6951,-1.6001,-1.4758,-1.3811,-1.3619,-1.2845,-1.2165,-1.1868,-1.0779,0.0,-0.7806,-0.581,-0.4618,0.0,0.0,-0.2216,0.0,0.0,0.0,0.0,0.1617,0.1617,0.1617,0.1617,0.1617,0.1617,0.1919,0.3124,0.5129,0.5429,0.6728,0.8726,0.8726,0.8928,0.9236,0.9236,0.9331,0.9628,0.9628,0.9628,0.9628,0.9628,0.9628,0.9628,0.9628,0.9628,0.0,0.992,0.0,0.0,0.0,0.0,0.0,0.9826,0.0,0.0,0.0,0.0,0.0,0.0,0.0,0.0,0.0,0.0,0.0,0.0,0.0,1.1194,1.1194,0.0,1.09,0.0,0.0,0.0,0.0,0.0,0.0,0.0,0.0,0.0,0.0,0.0,0.0,0.7322,0.7322,0.7624,0.8425,0.8425,0.8825,0.9628,0.9628,0.9628,0.9628,0.9628,0.9628,0.9628,0.9628,0.9628,0.9628,0.9628,0.9628,0.9628,0.9628,0.9628,0.9628,0.9628,0.9628,0.9628,0.9628,0.9628,0.9628,-1.9247,-1.888,-1.888,-1.8796,-1.7971,-1.6857,-1.5337,-1.4478,-1.3619,-1.2953,-1.1668,-1.0485,0.0,0.0,0.0,0.0,0.0,-0.2014,-0.1714,0.0,-0.0101,0.0,0.0,0.0504,0.0,0.1617,0.1617,0.1617,0.1617,0.1617,0.1617,0.2622,0.3725,0.4824,0.6126,0.7332,0.8432,0.8726,0.8928,0.9236,0.9236,0.9331,0.9628,0.0,0.9628,0.9628,0.9628,0.0,0.0,0.9628,0.9628,0.0,0.0,0.0,0.0,0.0,0.0,0.0,0.0,0.0,0.0,1.0703,0.0,0.0,0.0,0.0,1.1198,0.0,0.0,0.0,0.0,1.1194,1.1194,1.1194,1.1194,0.0,0.0,0.0,0.0,0.0,0.0,0.0,0.0,0.0,0.0,0.0,0.0,0.0,0.9525,0.9525,0.9525,0.9529,0.9529,0.9525,0.9628,0.9628,0.9628,0.9628,0.9628,0.9628,0.9628,0.9628,0.9628,0.9628,0.9628,0.9628,0.9628,0.9628,0.9628,0.9628,0.9628,0.9628,0.9628,0.9628,0.9628,0.9628,-2.0002,-1.8996,-1.8257,-1.7878,-1.7512,-1.6756,-1.5337,-1.4004,-1.2748,0.0,-1.1077,0.0,0.0,-0.731,-0.5715,0.0,0.0,-0.1209,-0.1813,-0.0907,0.0,0.0,0.0,0.0303,0.0,0.1617,0.1617,0.1617,0.1617,0.1617,0.1617,0.2722,0.3725,0.4824,0.6226,0.7528,0.8726,0.8931,0.9229,0.0,0.0,0.9529,0.9628,0.0,0.0,0.9628,0.9628,0.9628,0.0,0.9628,0.9727,0.992,1.0216,1.0216,1.0314,1.0605,1.0511,0.0,0.0,0.0,1.1663,1.176,0.0,0.0,0.0,0.0,0.0,0.0,0.0,0.0,0.0,0.0,1.1194,1.1194,1.1194,1.1194,0.0,0.0,0.0,0.0,0.0,0.0,0.0,0.0,0.0,0.0,1.0019,0.0,0.0,0.9628,0.9628,0.9628,0.9628,0.9628,0.9628,0.9628,0.9628,0.9628,0.9628,0.9628,0.9628,0.9628,0.9628,0.9628,0.9628,0.9628,0.9628,0.9628,0.9628,0.9628,0.9628,0.9628,0.9628,0.9628,0.9628,0.9628,-1.992,-1.9012,-1.8179,-1.7707,-1.6951,0.0,0.0,0.0,0.0,0.0,-1.0386,0.0,-0.8411,0.0,-0.5109,0.0,-0.1709,-0.0403,-0.0705,-0.0101,0.0,0.0303,0.0303,0.0,0.0,0.1817,0.1817,0.232,0.1817,0.1818,0.2221,0.3224,0.4425,0.5525,0.6728,0.7832,0.8928,0.9031,0.9229,0.0,0.0,0.9628,0.0,0.0,0.9628,0.9628,0.0,0.9628,0.9624,1.0015,1.0306,1.0699,1.1282,1.1575,1.1668,1.196,1.1668,1.1473,1.2431,1.263,0.0,1.292,1.3108,0.0,1.1965,0.0,0.0,0.0,0.0,0.0,0.0,0.0,1.177,1.177,1.1385,1.1194,0.0,1.1194,0.0,0.0,0.0,0.0,0.0,0.0,0.0,1.0019,1.0117,1.0019,0.0,0.0,0.9628,0.9628,0.9628,0.9628,0.9628,0.9628,0.9628,0.9628,0.9628,0.9628,0.9628,0.9628,0.9628,0.9628,0.9628,0.9628,0.9628,0.9628,0.9628,0.9628,0.9628,0.9628,0.9628,0.9628,0.9628,0.9628,-1.9104,-1.8827,-1.8643,0.0,-1.6473,0.0,0.0,0.0,-1.0779,0.0,-0.9497,-0.8312,-0.7223,-0.5812,-0.421,-0.2113,-0.0705,0.0504,0.1516,0.1617,0.0,0.0,0.1617,0.222,0.362,0.0,0.0,0.362,0.232,0.222,0.3224,0.4325,0.5527,0.683,0.7637,0.8439,0.9137,0.8928,0.9126,0.9628,0.9628,0.9628,0.9628,0.9628,0.9628,0.9628,0.9628,0.9628,0.9821,1.0881,1.1463,1.1955,1.3119,1.3692,1.3974,1.4268,1.3596,1.3017,1.4076,1.3596,1.3017,1.4076,0.0,0.0,0.0,0.0,1.2829,0.0,0.0,0.0,0.0,0.0,0.0,1.2727,1.1868,1.1194,1.1194,0.0,0.0,0.0,0.0,0.0,0.0,0.0,1.0801,1.0117,1.0216,1.0117,0.0,0.0,0.9628,0.9628,0.9628,0.9628,0.9628,0.9628,0.9628,0.9628,0.9628,0.9628,0.9628,0.9628,0.9628,0.9628,0.9628,0.9628,0.9628,0.9628,0.9628,0.9628,0.9628,0.9628,0.9628,0.9628,0.9628,0.9628,-2.0102,-1.9646,-1.8904,0.0,-1.6372,-1.5324,0.0,0.0,0.0,0.0,-0.8312,-0.7021,-0.5532,-0.3721,-0.2315,-0.1713,0.0101,0.0,0.0,0.0,0.0,0.1617,0.1617,0.222,0.362,0.232,0.0,0.362,0.3022,0.2923,0.3224,0.5129,0.6232,0.683,0.7637,0.8439,0.9137,0.8928,0.9126,0.9628,0.9628,0.9628,0.0,0.0,1.0113,1.069,0.9916,1.0109,1.0886,1.137,1.215,1.3119,1.3596,1.3974,1.4166,1.4268,1.4076,1.4076,1.5127,1.4651,1.4172,1.5127,1.4841,1.4268,0.0,0.0,0.0,0.0,0.0,0.0,0.0,0.0,0.0,1.2727,1.1868,1.1194,0.0,0.0,0.0,1.1194,0.0,0.0,0.0,1.0801,1.0511,1.0314,1.0216,1.0019,0.0,0.0,0.0,0.9924,0.9723,0.9628,0.9628,0.9628,0.9628,0.9628,0.9628,0.9628,0.9628,0.9628,0.9628,0.9628,0.9628,0.9628,0.9628,0.9628,0.9628,0.9628,0.9628,0.9628,0.9628,0.9628,0.9628,0.9628,-2.0102,-1.9363,0.0,-1.6648,0.0,0.0,-1.3397,0.0,0.0,-0.8414,-0.7126,0.0,-0.5035,-0.2922,-0.1613,-0.1613,0.0404,0.0,0.1617,0.0,0.0,0.1617,0.1617,0.2521,0.4422,0.3122,0.0,0.522,0.0,0.4227,0.463,0.5932,0.693,0.7726,0.8035,0.8634,0.9331,0.9229,0.9324,0.9628,0.9628,0.0,0.0,1.0306,1.0984,1.1755,1.1179,1.1375,1.2145,1.2727,1.359,1.4459,1.5038,1.5419,1.5602,1.5602,1.5317,1.5222,1.6177,1.5704,1.5222,1.6183,1.5988,1.5507,1.5032,1.4937,1.4937,0.0,0.0,0.0,0.0,0.0,0.0,1.2155,0.0,0.0,0.0,0.0,0.0,0.0,1.1863,0.0,0.0,1.0703,1.0413,1.0413,1.0216,0.0,0.0,0.0,0.0,1.0216,1.0019,0.9924,0.9826,0.9727,0.9727,0.9628,0.9628,0.9628,0.9628,0.9628,0.9628,0.9628,0.9628,0.9628,0.9628,0.9628,0.9628,0.9628,0.9628,0.9628,0.9628,0.9628,0.9628,0.9628,-1.9263,-1.8334,0.0,0.0,0.0,0.0,0.0,-1.0266,0.0,-0.7627,0.0,-0.514,-0.514,-0.3022,-0.1613,-0.1613,0.0,0.1617,0.1617,0.1617,0.1617,0.1617,0.1717,0.3024,0.5525,0.4422,0.4922,0.0,0.0,0.5732,0.6437,0.683,0.7627,0.8825,0.8528,0.8829,0.9529,0.9628,0.9628,0.9628,0.9723,1.04,1.117,1.1365,1.2047,1.2926,1.2926,1.3119,1.3505,1.4465,1.5134,1.5792,1.6777,1.7153,1.7326,1.7326,1.6662,1.6177,1.7044,1.6655,1.6177,1.7037,1.7326,1.7044,1.6183,1.5988,1.5988,1.5988,1.5988,0.0,0.0,0.0,0.0,0.0,0.0,0.0,0.0,0.0,0.0,0.0,0.0,0.0,0.0,0.0,1.0797,1.0703,1.0797,0.0,0.0,0.0,0.0,1.0413,1.0413,0.0,1.0019,0.0,0.992,0.9723,0.9723,0.9723,0.9723,0.9723,0.9723,0.9723,0.9723,0.9723,0.9723,0.9723,0.9723,0.9723,0.9723,0.9727,0.9628,0.9628,0.9723,0.9821,-1.7289,0.0,0.0,0.0,0.0,-1.2098,-1.007,-0.8707,-0.7726,-0.7322,-0.6034,-0.514,-0.4935,-0.2922,-0.1613,-0.1613,0.0404,0.0,0.0,0.0,0.0,0.1617,0.2421,0.3725,0.5522,0.5127,0.5625,0.0,0.0,0.6431,0.6437,0.7534,0.8329,0.8825,0.8726,0.8928,0.9335,0.9529,0.0,0.9727,1.0596,1.1077,1.1268,1.2145,1.3119,1.4004,1.4004,1.419,1.4465,1.4854,1.5717,1.6777,1.7145,1.7239,1.7326,1.7326,1.7138,1.7037,1.7232,1.7138,1.7037,1.7232,1.7326,1.7232,1.7037,1.7044,1.7044,1.7044,1.7044,1.7138,1.7232,0.0,0.0,0.0,0.0,0.0,0.0,0.0,0.0,0.0,0.0,1.3878,0.0,0.0,0.0,0.0,0.0,0.0,0.0,0.0,0.0,0.0,1.0511,0.0,0.0,0.0,1.0314,1.0216,1.0216,1.0216,1.0216,1.0216,1.0216,1.0216,1.0216,1.0216,1.0216,1.0216,1.0216,1.0216,1.0216,1.0117,0.992,0.992,1.0306,1.0788,-1.5981,0.0,0.0,0.0,0.0,0.0,0.0,-0.7126,0.0,-0.6329,-0.5737,-0.514,-0.5037,-0.2922,-0.1613,-0.1613,0.0404,0.1617,0.1617,0.1617,0.1617,0.1617,0.2722,0.0,0.5522,0.6121,0.6921,0.8024,0.0,0.0,0.7434,0.8333,0.8931,0.9031,0.9126,0.9229,0.0,0.0,0.0,1.0498,1.156,1.2339,1.2829,1.3318,1.419,1.5064,1.5064,1.5343,1.5717,1.5812,1.6386,1.7153,1.7239,1.7326,1.7326,1.7326,1.7326,1.7326,1.7326,1.7326,1.7326,1.7326,1.7326,1.7326,1.7326,1.7326,1.7326,1.7326,1.7326,1.7138,1.6662,1.6082,0.0,0.0,0.0,0.0,0.0,0.0,0.0,0.0,0.0,0.0,0.0,0.0,0.0,0.0,0.0,0.0,0.0,0.0,0.0,0.0,0.0,0.0,0.0,0.0,0.0,1.0413,1.089,1.089,1.0413,1.0413,1.0413,1.0413,1.0413,1.0413,1.0413,1.0988,1.1468,1.2047,1.2047,1.1858,1.157,1.157,1.176,1.1853,0.0,-1.3,0.0,0.0,-0.9095,0.0,-0.7123,-0.5832,-0.4937,-0.5436,-0.5238,-0.5039,-0.4836,-0.2922,-0.1513,-0.131,0.0505,0.1617,0.1617,0.1617,0.1718,0.1919,0.3222,0.4522,0.5922,0.722,0.8219,0.0,0.0,0.0,0.0,0.8931,0.9236,0.0,0.0,0.0,0.0,0.0,1.1365,1.1658,1.263,1.3516,1.4298,1.4586,1.5159,1.5927,1.5927,1.6211,1.6683,1.6683,1.6958,1.7326,1.7326,1.7326,1.7326,1.7326,1.7326,1.7326,1.7326,1.7326,1.7326,1.7326,1.7326,1.7326,1.7326,1.7326,1.7326,1.7326,1.7326,1.7044,1.6278,1.6082,0.0,0.0,0.0,0.0,0.0,0.0,0.0,0.0,0.0,0.0,1.5127,0.0,0.0,0.0,0.0,0.0,0.0,0.0,0.0,0.0,0.0,1.177,1.1575,0.0,1.215,0.0,1.1663,1.1565,1.0609,1.0797,1.0895,1.0895,1.1086,1.1184,1.1277,1.2047,1.2915,1.368,1.368,1.3494,1.3312,1.3312,1.321,1.3113,0.0,0.0,0.0,0.0,0.0,0.0,0.0,-0.4826,-0.3828,-0.5037,-0.5037,-0.4431,-0.3525,-0.2318,-0.121,-0.0202,0.0908,0.1617,0.1617,0.1617,0.2019,0.3022,0.4327,0.5727,0.7021,0.8329,0.9133,0.0,0.0,0.0,0.0,0.0,0.0,0.0,0.0,0.0,0.0,1.1175,1.1755,1.263,1.3709,1.4196,1.4394,1.535,1.5832,1.613,1.613,1.6508,1.6979,1.6979,1.7153,1.7326,1.7326,1.7326,1.7326,1.7326,1.7326,1.7326,1.7326,1.7326,1.7326,1.7326,1.7326,1.7326,1.7326,1.7326,1.7326,1.7326,1.7326,1.7232,1.7138,1.7138,1.7138,0.0,0.0,0.0,0.0,0.0,1.7138,1.7044,0.0,0.0,0.0,1.7232,0.0,0.0,0.0,0.0,0.0,0.0,0.0,1.398,0.0,1.398,1.398,1.4076,0.0,1.2538,1.2533,1.2058,1.1194,1.2058,1.2441,1.2538,1.3494,1.3974,1.398,1.4076,1.4172,1.4268,1.4268,1.407,1.3878,1.3878,1.4268,1.4752,0.0,0.0,0.0,0.0,0.0,0.0,0.0,-0.2819,-0.2418,-0.2922,-0.2922,-0.272,-0.2318,-0.131,-0.0504,0.0,0.1009,0.1718,0.1819,0.1718,0.222,0.3624,0.4824,0.6024,0.7415,0.8726,0.9331,0.0,0.0,0.0,0.0,0.0,0.0,0.0,0.0,1.0788,1.1268,1.1853,1.2732,1.3709,1.4771,1.5159,1.5255,1.5838,1.6123,1.6224,1.6407,1.669,1.6979,1.6979,1.7153,1.7326,1.7326,1.7326,1.7326,1.7326,1.7326,1.7326,1.7326,1.7326,1.7326,1.7326,1.7326,1.7326,1.7326,1.7326,1.7326,1.7326,1.7326,1.7326,1.7326,1.7326,1.7326,0.0,0.0,0.0,0.0,0.0,0.0,0.0,0.0,1.7326,0.0,0.0,0.0,0.0,0.0,0.0,0.0,0.0,0.0,1.4364,0.0,1.4268,1.4268,1.4937,1.4651,1.3692,1.4262,1.4076,1.3119,1.3499,1.3692,1.3692,1.4076,1.4651,1.5222,1.5222,1.5602,1.6082,1.6082,1.5994,1.5717,1.5717,1.5812,1.6008,-0.7195,0.0,-0.4708,0.0,-0.2813,-0.1813,-0.1511,-0.131,-0.1109,-0.1109,-0.0807,-0.0706,-0.1109,-0.0504,0.0101,0.0403,0.1212,0.1819,0.2022,0.2221,0.2923,0.4423,0.5622,0.0,0.8018,0.9122,0.9529,0.9331,0.9529,0.0,0.0,0.0,0.0,0.0,1.1175,1.1658,1.1755,1.2732,1.3806,1.4777,1.554,1.5832,1.5933,1.613,1.6319,1.6508,1.6683,1.6871,1.7066,1.7066,1.7153,1.7326,1.7326,1.7326,1.7326,1.7326,1.7326,1.7326,1.7326,1.7326,1.7326,1.7326,1.7326,1.7326,1.7326,1.7326,1.7326,1.7326,1.7326,1.7326,1.7326,1.7326,1.7326,1.7326,0.0,0.0,0.0,0.0,0.0,0.0,1.7326,1.7326,1.7326,1.7326,0.0,0.0,0.0,0.0,0.0,0.0,0.0,0.0,0.0,0.0,0.0,1.5893,1.5704,1.4746,1.5412,1.5222,1.4268,1.4651,1.4937,1.5222,1.5222,1.5602,1.6271,1.6271,1.6655,1.7326,1.7326,1.7239,1.7066,1.7066,1.6965,1.677,-0.34,-0.3203,-0.2804,-0.1508,-0.141,-0.1512,-0.1208,-0.0504,0.0,0.0,0.111,0.1414,0.0101,0.0,0.0403,0.1515,0.1819,0.2022,0.2022,0.3225,0.4423,0.0,0.0,0.812,0.9133,0.943,0.9628,0.9628,0.0,0.0,0.9628,0.0,1.1175,1.1268,1.2242,1.2727,1.2732,1.3806,1.4873,1.5737,1.5832,1.5927,1.6224,1.6224,1.6508,1.6979,1.6979,1.716,1.7326,1.7326,1.7326,1.7326,1.7326,1.7326,1.7326,1.7326,1.7326,1.7326,1.7326,1.7326,1.7326,1.7326,1.7326,1.7326,1.7326,1.7326,1.7326,1.7326,1.7326,1.7326,1.7326,1.7326,1.7326,1.7326,0.0,0.0,0.0,0.0,0.0,0.0,1.7326,1.7326,1.7326,0.0,0.0,0.0,0.0,0.0,0.0,0.0,0.0,1.7232,1.7232,0.0,1.7232,1.7232,1.6756,1.5798,1.5798,1.5222,1.4364,1.5317,1.6278,1.7232,1.7232,1.7232,1.7232,1.7232,1.7326,1.7326,1.7326,1.7326,1.7326,1.7326,1.7326,1.7326,-0.1606,-0.1005,-0.0302,0.0101,0.0504,0.0908,0.1209,0.1312,0.1413,0.1613,0.2018,0.2421,0.2717,0.1916,0.1515,0.0,0.1921,0.2424,0.0,0.3827,0.4924,0.7123,0.7515,0.8219,0.943,0.9529,0.9628,0.9628,0.0,0.0,0.0,1.2441,1.2926,1.2242,1.3318,1.3806,1.3806,1.4202,1.4873,1.5832,1.6028,1.6123,1.6224,1.6602,1.6885,1.6979,1.7153,1.7239,1.7326,1.7326,1.7326,1.7326,1.7326,1.7326,1.7326,1.7326,1.7326,1.7326,1.7326,1.7326,1.7326,1.7326,1.7326,1.7326,1.7326,1.7326,1.7326,1.7326,1.7326,1.7326,1.7326,1.7326,1.7326,1.7326,1.7326,0.0,0.0,0.0,0.0,0.0,1.7326,1.7326,0.0,1.7326,0.0,0.0,0.0,0.0,0.0,0.0,0.0,0.0,1.7326,0.0,1.7326,1.7326,1.7138,1.685,1.685,1.6662,1.6372,1.6662,1.7037,1.7326,1.7326,1.7326,1.7326,1.7326,1.7326,1.7326,1.7326,1.7326,1.7326,1.7326,1.7326,1.7326,0.0604,0.1108,0.1513,0.1513,0.1917,0.2423,0.3025,0.2924,0.2924,0.3524,0.3725,0.3925,0.4524,0.3927,0.0,0.3325,0.3026,0.3528,0.4931,0.5325,0.6224,0.7922,0.8219,0.8722,0.9628,0.0,0.0,0.9628,1.0015,1.0788,1.1755,1.3511,1.3908,1.3318,1.4484,1.4777,1.4478,1.4962,1.554,1.6109,1.6305,1.6407,1.6508,1.6885,1.7073,1.7153,1.7239,1.7326,1.7326,1.7326,1.7326,1.7326,1.7326,1.7326,1.7326,1.7326,1.7326,1.7326,1.7326,1.7326,1.7326,1.7326,1.7326,1.7326,1.7326,1.7326,1.7326,1.7326,1.7326,1.7326,1.7326,1.7326,1.7326,1.7326,1.7326,1.7326,1.7326,0.0,0.0,0.0,0.0,0.0,0.0,1.7326,0.0,0.0,0.0,0.0,0.0,0.0,0.0,1.7326,1.7326,0.0,1.7326,1.7326,1.7326,1.7326,1.7326,1.7326,1.7326,1.7326,1.7326,1.7326,1.7326,1.7326,1.7326,1.7326,1.7326,1.7326,1.7326,1.7326,1.7326,1.7326,1.7326,1.7326,0.3027,0.2925,0.0,0.0,0.2825,0.0,0.4329,0.4327,0.4524,0.5522,0.5827,0.5927,0.5824,0.5927,0.6027,0.5924,0.0,0.0,0.0,0.7325,0.8024,0.8124,0.9027,0.9628,0.9628,0.9628,0.9628,0.9727,1.0886,1.1853,1.2829,1.3902,1.4394,1.449,1.5648,1.573,1.4949,1.6103,1.6588,1.6588,1.6581,1.6784,1.6979,1.6979,1.716,1.7326,1.7326,1.7326,1.7326,1.7326,1.7326,1.7326,1.7326,1.7326,1.7326,1.7326,1.7326,1.7326,1.7326,1.7326,1.7326,1.7326,1.7326,1.7326,1.7326,1.7326,1.7326,1.7326,1.7326,1.7326,1.7326,1.7326,1.7326,1.7326,1.7326,1.7326,1.7326,0.0,0.0,0.0,0.0,0.0,0.0,1.7326,1.7326,0.0,0.0,0.0,0.0,0.0,1.7326,1.7326,1.7326,1.7326,1.7326,1.7326,1.7326,1.7326,1.7326,1.7326,1.7326,1.7326,1.7326,1.7326,1.7326,1.7326,1.7326,1.7326,1.7326,1.7326,1.7326,1.7326,1.7326,1.7326,1.7326,1.7326,0.0,0.0,0.4933,0.4933,0.5031,0.5327,0.5824,0.5727,0.5727,0.6121,0.6224,0.6623,0.7322,0.6722,0.6924,0.8524,0.6828,0.6129,0.7425,0.7822,0.8322,0.9225,0.9426,0.9628,0.9628,0.9628,1.0015,1.0788,1.2635,1.3709,1.3908,1.4962,1.5547,1.5743,1.6028,1.6218,1.6197,1.6487,1.6588,1.6588,1.6784,1.6979,1.6979,1.7153,1.7239,1.7326,1.7326,1.7326,1.7326,1.7326,1.7326,1.7326,1.7326,1.7326,1.7326,1.7326,1.7326,1.7326,1.7326,1.7326,1.7326,1.7326,1.7326,1.7326,1.7326,1.7326,1.7326,1.7326,1.7326,1.7326,1.7326,1.7326,1.7326,1.7326,1.7326,1.7326,1.7326,1.7326,0.0,0.0,1.7326,1.7326,1.7326,1.7326,1.7326,0.0,0.0,0.0,0.0,1.7326,1.7326,1.7326,1.7326,1.7326,1.7326,1.7326,1.7326,1.7326,1.7326,1.7326,1.7326,1.7326,1.7326,1.7326,1.7326,1.7326,1.7326,1.7326,1.7326,1.7326,1.7326,1.7326,1.7326,1.7326,1.7326,1.7326,0.5929,0.6129,0.6329,0.6329,0.6429,0.6725,0.7415,0.7419,0.7518,0.8117,0.8117,0.8219,0.8821,0.8322,0.8322,0.9525,0.7925,0.7425,0.8623,0.8726,0.9027,0.9529,0.9628,0.9628,0.9628,1.0113,1.0886,1.1853,1.3511,1.4298,1.4298,1.5452,1.6028,1.6224,1.6508,1.669,1.6784,1.6864,1.6958,1.6958,1.7059,1.716,1.7153,1.7239,1.7326,1.7326,1.7326,1.7326,1.7326,1.7326,1.7326,1.7326,1.7326,1.7326,1.7326,1.7326,1.7326,1.7326,1.7326,1.7326,1.7326,1.7326,1.7326,1.7326,1.7326,1.7326,1.7326,1.7326,1.7326,1.7326,1.7326,1.7326,1.7326,1.7326,1.7326,1.7326,1.7326,1.7326,0.0,1.7326,1.7326,1.7326,1.7326,1.7326,1.7326,1.7326,0.0,0.0,1.7326,1.7326,1.7326,1.7326,1.7326,1.7326,1.7326,1.7326,1.7326,1.7326,1.7326,1.7326,1.7326,1.7326,1.7326,1.7326,1.7326,1.7326,1.7326,1.7326,1.7326,1.7326,1.7326,1.7326,1.7326,1.7326,1.7326,1.7326,0.7422,0.7521,0.7521,0.7521,0.7621,0.8018,0.8909,0.9008,0.9406,1.031,1.0216,1.0019,1.0019,0.9826,0.9723,0.9628,0.8821,0.8722,0.9529,0.9628,0.9628,0.9821,0.9723,0.9723,1.0015,1.1082,1.2145,1.3017,1.3998,1.4586,1.4675,1.5737,1.6224,1.6319,1.6791,1.6979,1.7066,1.7239,1.7326,1.7326,1.7326,1.7326,1.7326,1.7326,1.7326,1.7326,1.7326,1.7326,1.7326,1.7326,1.7326,1.7326,1.7326,1.7326,1.7326,1.7326,1.7326,1.7326,1.7326,1.7326,1.7326,1.7326,1.7326,1.7326,1.7326,1.7326,1.7326,1.7326,1.7326,1.7326,1.7326,1.7326,1.7326,1.7326,1.7326,1.7326,1.7326,0.0,1.7326,1.7326,1.7326,1.7326,1.7326,1.7326,1.7326,1.7326,1.7326,1.7326,0.0,1.7326,1.7326,1.7326,1.7326,1.7326,1.7326,1.7326,1.7326,1.7326,1.7326,1.7326,1.7326,1.7326,1.7326,1.7326,1.7326,1.7326,1.7326,1.7326,1.7326,1.7326,1.7326,1.7326,1.7326,1.7326,1.7326,1.7326,0.8623,0.8916,0.9209,0.9209,0.9612,0.9912,1.0113,1.0109,1.0212,1.0408,1.0314,1.0314,1.0314,1.0314,1.0216,0.992,1.0015,0.9916,0.9628,0.9628,1.0015,1.0881,1.0113,1.0404,1.215,1.3221,1.3998,1.437,1.5153,1.5825,1.6204,1.6218,1.6414,1.6885,1.6979,1.7066,1.7239,1.7333,1.7326,1.7326,1.7326,1.7326,1.7326,1.7326,1.7326,1.7326,1.7326,1.7326,1.7326,1.7326,1.7326,1.7326,1.7326,1.7326,1.7326,1.7326,1.7326,1.7326,1.7326,1.7326,1.7326,1.7326,1.7326,1.7326,1.7326,1.7326,1.7326,1.7326,1.7326,1.7326,1.7326,1.7326,1.7326,1.7326,1.7326,1.7326,1.7326,0.0,1.7326,1.7326,1.7326,1.7326,1.7326,1.7326,1.7326,1.7326,1.7326,1.7326,1.7326,1.7326,1.7326,1.7326,1.7326,1.7326,1.7326,1.7326,1.7326,1.7326,1.7326,1.7326,1.7326,1.7326,1.7326,1.7326,1.7326,1.7326,1.7326,1.7326,1.7326,1.7326,1.7326,1.7326,1.7326,1.7326,1.7326,1.7326,1.1263,1.0979,1.0792,1.0502,1.0699,1.0801,1.0801,1.0801,1.0801,1.0801,1.0703,1.0801,1.1375,1.0797,1.0797,1.1755,1.1468,1.137,1.1653,1.1086,1.0895,1.1365,1.1272,1.196,1.3511,1.4286,1.4962,1.5534,1.6015,1.6393,1.6588,1.6595,1.6791,1.6979,1.7153,1.7239,1.7326,1.7326,1.7326,1.7326,1.7326,1.7326,1.7326,1.7326,1.7326,1.7326,1.7326,1.7326,1.7326,1.7326,1.7326,1.7326,1.7326,1.7326,1.7326,1.7326,1.7326,1.7326,1.7326,1.7326,1.7326,1.7326,1.7326,1.7326,1.7326,1.7326,1.7326,1.7326,1.7326,1.7326,1.7326,1.7326,1.7326,1.7326,1.7326,0.0,0.0,1.7326,1.7326,1.7326,1.7326,1.7326,1.7326,1.7326,1.7326,1.7326,1.7326,1.7326,1.7326,1.7326,1.7326,1.7326,1.7326,1.7326,1.7326,1.7326,1.7326,1.7326,1.7326,1.7326,1.7326,1.7326,1.7326,1.7326,1.7326,1.7326,1.7326,1.7326,1.7326,1.7326,1.7326,1.7326,1.7326,1.7326,1.7326,1.7326,1.3692,1.3028,1.2452,1.2063,1.1965,1.1965,1.1965,1.1965,1.1965,1.1965,1.177,1.1863,1.2727,1.1858,1.1955,1.3488,1.2909,1.2716,1.3482,1.2829,1.2452,1.2436,1.3204,1.389,1.4484,1.5051,1.5724,1.6414,1.6494,1.6683,1.677,1.6972,1.6979,1.7066,1.7239,1.7326,1.7326,1.7326,1.7326,1.7326,1.7326,1.7326,1.7326,1.7326,1.7326,1.7326,1.7326,1.7326,1.7326,1.7326,1.7326,1.7326,1.7326,1.7326,1.7326,1.7326,1.7326,1.7326,1.7326,1.7326,1.7326,1.7326,1.7326,1.7326,1.7326,1.7326,1.7326,1.7326,1.7326,1.7326,1.7326,1.7326,1.7326,1.7326,0.0,0.0,0.0,1.7326,1.7326,1.7326,1.7326,1.7326,1.7326,1.7326,1.7326,1.7326,1.7326,1.7326,1.7326,1.7326,1.7326,1.7326,1.7326,1.7326,1.7326,1.7326,1.7326,1.7326,1.7326,1.7326,1.7326,1.7326,1.7326,1.7326,1.7326,1.7326,1.7326,1.7326,1.7326,1.7326,1.7326,1.7326,1.7326,1.7326,1.7326,1.7326,1.5013,1.4644,1.4364,1.4364,1.4172,1.4076,1.4076,1.4076,1.4076,1.4076,1.4076,1.4076,1.4172,1.4076,1.3974,1.3878,1.407,1.3974,1.3482,1.4561,1.5045,1.4752,1.5717,1.5906,1.4949,1.6008,1.6588,1.6979,1.6683,1.6864,1.7232,1.7066,1.7066,1.7232,1.7326,1.7326,1.7326,1.7326,1.7326,1.7326,1.7326,1.7326,1.7326,1.7326,1.7326,1.7326,1.7326,1.7326,1.7326,1.7326,1.7326,1.7326,1.7326,1.7326,1.7326,1.7326,1.7326,1.7326,1.7326,1.7326,1.7326,1.7326,1.7326,1.7326,1.7326,1.7326,1.7326,1.7326,1.7326,1.7326,1.7326,1.7326,1.7326,1.7326,0.0,0.0,1.7326,1.7326,1.7326,1.7326,1.7326,1.7326,1.7326,1.7326,1.7326,1.7326,1.7326,1.7326,1.7326,1.7326,1.7326,1.7326,1.7326,1.7326,1.7326,1.7326,1.7326,1.7326,1.7326,1.7326,1.7326,1.7326,1.7326,1.7326,1.7326,1.7326,1.7326,1.7326,1.7326,1.7326,1.7326,1.7326,1.7326,1.7326,1.7326,1.7326,1.6257,1.5697,1.5222,1.4924,1.4644,1.4549,1.4734,1.4453,1.4364,1.4459,1.4364,1.4555,1.5127,1.4651,1.4746,1.5886,1.5507,1.5412,1.5792,1.6278,1.6379,1.6001,1.6669,1.6669,1.6001,1.6669,1.7059,1.6979,1.7059,1.7138,1.7326,1.7239,1.7239,1.7326,1.7326,1.7326,1.7326,1.7326,1.7326,1.7326,1.7326,1.7326,1.7326,1.7326,1.7326,1.7326,1.7326,1.7326,1.7326,1.7326,1.7326,1.7326,1.7326,1.7326,1.7326,1.7326,1.7326,1.7326,1.7326,1.7326,1.7326,1.7326,1.7326,1.7326,1.7326,1.7326,1.7326,1.7326,1.7326,1.7326,1.7326,1.7326,1.7326,1.7326,0.0,1.7326,1.7326,1.7326,1.7326,1.7326,1.7326,1.7326,1.7326,1.7326,1.7326,1.7326,1.7326,1.7326,1.7326,1.7326,1.7326,1.7326,1.7326,1.7326,1.7326,1.7326,1.7326,1.7326,1.7326,1.7326,1.7326,1.7326,1.7326,1.7326,1.7326,1.7326,1.7326,1.7326,1.7326,1.7326,1.7326,1.7326,1.7326,1.7326,1.7326,1.7326,1.7591,1.703,1.656,1.6163,1.5886,1.5697,1.5785,1.5697,1.5507,1.5609,1.5419,1.5609,1.6278,1.5704,1.5798,1.7138,1.6662,1.656,1.7232,1.7326,1.7145,1.6864,1.7138,1.7138,1.6864,1.7145,1.7239,1.7066,1.7239,1.7326,1.7326,1.7326,1.7326,1.7326,1.7326,1.7326,1.7326,1.7598,1.7606,1.7326,1.7598,1.7606,1.7326,1.7326,1.7512,1.7692,1.7419,1.7512,1.7692,1.7419,1.7326,1.7326,1.7326,1.7326,1.7326,1.7326,1.7326,1.7326,1.7326,1.7326,1.7326,1.7326,1.7326,1.7326,1.7326,1.7326,1.7326,1.7326,1.7326,1.7326,1.7326,1.7326,1.7326,1.7326,1.7326,1.7326,1.7326,1.7326,1.7326,1.7326,1.7326,1.7326,1.7326,1.7326,1.7326,1.7326,1.7326,1.7326,1.7326,1.7326,1.7326,1.7326,1.7326,1.7326,1.7326,1.7326,1.7326,1.7326,1.7326,1.7326,1.7326,1.7326,1.7326,1.7326,1.7326,1.7326,1.7326,1.7326,1.7326,1.7326,1.7326,1.7326,1.7326,1.7326,1.7326,1.7347,1.8827,1.8658,1.8481,1.8481,1.828,1.7994,1.7721,1.79,1.7994,1.7721,1.7721,1.7721,1.7721,1.7434,1.7326,1.7326,1.7326,1.7326,1.7326,1.7326,1.7326,1.7326,1.7326,1.7326,1.7326,1.7326,1.7326,1.7326,1.7326,1.7326,1.7326,1.7326,1.7326,1.7326,1.7333,1.7326,1.7419,1.8427,1.8241,1.7419,1.8427,1.8241,1.7326,1.7326,1.7971,1.8703,1.7692,1.7971,1.8611,1.7598,1.7333,1.7326,1.7326,1.7333,1.7326,1.7326,1.7326,1.7326,1.7326,1.7326,1.7326,1.7326,1.7326,1.7326,1.7326,1.7326,1.7326,1.7326,1.7326,1.7326,1.7326,1.7326,1.7326,1.7326,1.7326,1.7326,1.7326,1.7326,1.7326,1.7326,1.7326,1.7326,1.7326,1.7326,1.7326,1.7326,1.7326,1.7326,1.7326,1.7326,1.7326,1.7333,1.7333,1.7333,1.7333,1.7326,1.7326,1.7326,1.7326,1.7326,1.7326,1.7326,1.7326,1.7326,1.7326,1.7326,1.7326,1.7326,1.7326,1.7326,1.7326,1.7326,1.7326,1.7333,1.7333,1.7377,2.0709,2.0257,1.972,1.972,1.9538,1.9171,1.855,1.8272,1.8187,1.8288,1.8094,1.7994,1.7994,1.7714,1.7621,1.7621,1.7426,1.7326,1.7326,1.7326,1.7326,1.7326,1.7326,1.7326,1.7326,1.7326,1.7326,1.7326,1.7326,1.7326,1.7326,1.7326,1.7326,1.7326,1.8064,1.8334,1.8427,1.9422,1.9239,1.8427,1.9422,1.9239,1.8419,1.9055,1.9505,1.9695,1.8696,1.8519,1.8611,1.7598,1.7785,1.8334,1.8334,1.7878,1.7326,1.7326,1.7326,1.7326,1.7326,1.7326,1.7326,1.7326,1.7326,1.7326,1.7326,1.7326,1.7326,1.7326,1.7326,1.7326,1.7326,1.7326,1.7326,1.7326,1.7326,1.7326,1.7326,1.7326,1.7326,1.7326,1.7326,1.7326,1.7326,1.7326,1.7326,1.7326,1.7326,1.7426,1.7527,1.7621,1.7714,1.7893,1.7893,1.7893,1.7893,1.752,1.7326,1.7326,1.7326,1.7326,1.7326,1.7326,1.7326,1.7326,1.7326,1.7326,1.7326,1.7326,1.7326,1.7326,1.7326,1.7326,1.7355,1.7582,1.7669,1.7721,2.1606,2.1248,2.0881,2.0881,2.0701,2.043,1.9886,1.9347,1.8996,1.9012,1.8912,1.8627,1.8172,1.8265,1.8172,1.7621,1.7527,1.7426,1.7333,1.752,1.7699,1.7878,1.7613,1.7426,1.7326,1.7326,1.7512,1.7878,1.7512,1.7512,1.7878,1.7512,1.7512,1.7878,1.8519,1.8972,1.9422,2.0421,2.024,1.9422,2.0421,2.024,1.9422,1.996,2.0413,2.0692,1.9695,1.9604,1.9786,1.8788,1.888,1.933,1.933,1.8972,1.8419,1.8419,1.8419,1.8326,1.7963,1.7878,1.7785,1.7419,1.7326,1.7326,1.7326,1.7326,1.7326,1.7326,1.7326,1.7326,1.7326,1.7326,1.7326,1.7326,1.7326,1.7326,1.7326,1.7326,1.7326,1.7326,1.7326,1.7326,1.7326,1.7326,1.7326,1.7326,1.7326,1.7426,1.7721,1.7721,1.7815,1.8087,1.8087,1.8087,1.8087,1.78,1.752,1.7434,1.7434,1.7426,1.7326,1.7326,1.7326,1.7326,1.7326,1.7326,1.7326,1.7326,1.7326,1.734,1.7472,1.7523,1.756,1.7889,1.8006,1.8057,2.2041,2.1872,2.1872,2.1872,2.1872,2.1686,2.1391,2.0773,2.0339,2.0068,2.0076,1.9621,1.8535,1.9163,1.9163,1.7785,1.78,1.7807,1.7598,1.7978,1.8442,1.8972,1.835,1.7893,1.7606,1.7512,1.7878,1.8888,1.7878,1.7878,1.8788,1.7878,1.7963,1.8788,1.8972,1.9604,2.0413,2.1418,2.1239,2.0413,2.1418,2.1239,2.0413,2.0413,2.1051,2.1695,2.0692,2.0962,2.1606,2.0593,2.0232,2.0232,2.0322,2.0232,2.0232,2.0232,2.0232,2.0051,1.9239,1.8972,1.8696,1.787,1.7505,1.7419,1.7326,1.7326,1.7326,1.7326,1.7326,1.7326,1.7326,1.7326,1.7326,1.7326,1.7326,1.7326,1.7326,1.7326,1.7333,1.7333,1.7419,1.7419,1.7512,1.7512,1.7512,1.7419,1.7419,1.7613,1.7721,1.7721,1.7908,1.8179,1.8179,1.8179,1.8179,1.8179,1.7994,1.7721,1.7721,1.7527,1.7326,1.7333,1.7326,1.7326,1.7326,1.7326,1.7333,1.7362,1.7369,1.7406,1.7728,1.786,1.7896,1.8225,1.8343,1.8394,2.4069,2.3531,2.2999,2.2833,2.2833,2.257,2.1774,2.1516,2.1427,2.1338,2.1338,2.1239,2.0979,2.0863,2.0764,2.0486,1.9604,1.943,2.0034,1.9513,1.953,2.0141,2.0223,2.0133,1.9869,1.8964,1.8711,1.9088,1.8711,1.8611,1.8788,1.8603,1.8696,1.9139,2.0584,2.14,2.1676,2.2677,2.2501,2.1676,2.2501,2.2315,2.1676,2.2227,2.2599,2.2687,2.1863,2.1686,2.1695,2.1427,2.0872,2.0331,2.115,2.0872,2.0232,2.0413,2.0503,2.0503,2.0494,1.9877,1.943,1.9951,1.9422,1.8535,1.7512,1.7326,1.7326,1.7326,1.7326,1.7326,1.7326,1.7326,1.7326,1.7326,1.7527,1.7527,1.7326,1.752,1.7628,1.7628,1.8156,1.8519,1.8812,1.943,1.933,1.7986,1.8619,1.8812,1.8388,1.8295,1.8473,1.8643,1.8643,1.8643,1.8643,1.8643,1.8458,1.7994,1.7815,1.7628,1.7628,1.7426,1.7326,1.7326,1.7326,1.7326,1.7347,1.7604,1.7706,1.7743,1.8072,1.8196,1.824,1.8562,1.8686,1.8824,2.4861,2.4509,2.4059,2.382,2.3734,2.3637,2.3115,2.2668,2.2394,2.2394,2.2394,2.2129,2.1587,2.1933,2.1924,2.1382,2.0674,2.0494,2.0845,2.0683,2.0782,2.1409,2.1212,2.1302,2.1676,2.0863,2.0602,2.0709,2.0141,2.0051,2.0503,2.0051,2.0133,2.0674,2.1756,2.2394,2.2931,2.3396,2.3309,2.2853,2.3309,2.3212,2.294,2.3309,2.3396,2.3396,2.3028,2.2765,2.2599,2.2599,2.2227,2.1863,2.2501,2.2306,2.1943,2.2129,2.2129,2.2031,2.1756,2.1221,2.0872,2.0935,2.0404,1.9695,1.8411,1.8056,1.8064,1.8064,1.7699,1.7613,1.8071,1.7893,1.7707,1.7707,1.8172,1.8535,1.8342,1.888,1.9247,1.9247,1.9596,1.9869,1.9977,2.0503,2.0404,1.9513,1.9521,1.9446,1.9188,1.8751,1.8835,1.9446,1.9546,1.972,2.0175,2.0167,2.0076,1.9803,1.908,1.8627,1.8365,1.8249,1.8149,1.7978,1.7675,1.756,1.7582,1.7911,1.805,1.8079,1.8408,1.8825,1.9353,1.9689,2.0116,2.0631,2.5115,2.4946,2.4861,2.4625,2.454,2.454,2.454,2.3907,2.3367,2.3367,2.3367,2.3008,2.1924,2.2736,2.2911,2.1924,2.1747,2.156,2.156,2.1765,2.2138,2.2668,2.211,2.2199,2.3028,2.2843,2.2658,2.2492,2.1569,2.1569,2.2394,2.1569,2.1658,2.2482,2.2668,2.3115,2.3841,2.3841,2.3841,2.3841,2.3841,2.3841,2.3841,2.3841,2.3841,2.3841,2.3841,2.3764,2.359,2.359,2.359,2.359,2.3754,2.3841,2.3841,2.3841,2.3841,2.3754,2.2931,2.2658,2.2394,2.1658,2.1382,2.0935,1.9943,1.9413,1.9147,1.9147,1.8703,1.8535,1.9355,1.8988,1.8619,1.8619,1.9255,1.9795,1.9704,2.0404,2.0935,2.0935,2.1114,2.1203,2.1203,2.1382,2.1391,2.1033,2.0413,2.0158,2.0158,1.9463,1.9554,2.0529,2.052,2.0881,2.1695,2.1695,2.1695,2.1695,2.0881,2.0158,1.9538,1.9422,1.9171,1.8891,1.835,1.8126,1.8208,1.8346,1.8577,1.8996,1.9142,1.9861,2.078,2.1079,2.1887,2.2785,2.5559,2.5295,2.5115,2.5115,2.4786,2.4625,2.4786,2.4529,2.4272,2.4272,2.4272,2.4272,2.409,2.4176,2.4272,2.409,2.3367,2.3193,2.3993,2.328,2.3193,2.3937,2.4003,2.4013,2.4024,2.4186,2.3734,2.2755,2.2394,2.2306,2.2394,2.2296,2.2385,2.2736,2.356,2.4024,2.412,2.412,2.412,2.412,2.3927,2.3937,2.411,2.3937,2.3841,2.3841,2.4024,2.412,2.4024,2.3851,2.3754,2.3754,2.3754,2.3841,2.3841,2.411,2.412,2.4206,2.4186,2.3637,2.3183,2.382,2.329,2.2482,2.2287,2.1382,2.0576,2.0576,2.0576,2.0486,2.0674,2.0576,2.0486,2.0486,2.0845,2.0944,2.0755,2.1025,2.1203,2.1203,2.2022,2.257,2.257,2.329,2.3125,2.1686,2.2217,2.2296,2.1516,2.1338,2.1338,2.1516,2.1516,2.1606,2.1695,2.1695,2.1695,2.1695,2.2394,2.211,2.1033,2.0584,2.0046,1.9515,1.9202,1.9296,1.9595,1.8977,1.9799,2.1394,2.0873,2.1314,2.2214,2.2274,2.2985,2.389,2.5644,2.5475,2.538,2.52,2.4946,2.4786,2.4861,2.47,2.454,2.454,2.454,2.454,2.454,2.454,2.454,2.454,2.409,2.409,2.4454,2.409,2.4003,2.4368,2.4454,2.4454,2.4378,2.4454,2.4272,2.3744,2.3647,2.356,2.356,2.356,2.3637,2.3724,2.4186,2.4378,2.4378,2.4378,2.4378,2.4368,2.4282,2.4282,2.4368,2.4282,2.4196,2.4196,2.4196,2.4206,2.4206,2.4024,2.4024,2.4024,2.4196,2.4196,2.4186,2.4368,2.4378,2.4378,2.4454,2.4186,2.4003,2.4368,2.41,2.3734,2.3734,2.327,2.2648,2.1933,2.1391,2.1293,2.1845,2.1578,2.132,2.132,2.1933,2.2287,2.211,2.2648,2.3096,2.3096,2.3464,2.3744,2.3744,2.41,2.41,2.3299,2.3193,2.2921,2.2482,2.1961,2.1961,2.2482,2.2482,2.2755,2.329,2.329,2.329,2.3299,2.3984,2.3644,2.2457,2.2277,2.2035,2.1687,2.1241,2.1042,2.1022,2.0897,2.1445,2.2252,2.1921,2.2492,2.3493,2.4106,2.4609,2.5011]},{"header":{"parameterUnit":"m.s-1","parameterCategory":1,"la1":30.6,"la2":28.766,"lo1":-90.7593,"lo2":-88.6598,"dy":0.0162,"dx":0.0183,"nx":116,"ny":114,"refTime":"2023-05-28T06:00:00:Z","depth":0,"parameterNumber":3,"parameterNumberName":"V-component_of_WINDS"},"data":[0.0,0.0,0.0,0.0,0.0,0.0,0.0,0.0,0.0,0.0,0.0,0.0,0.0,0.0,0.0,0.0,0.0,0.0,0.0,0.0,0.0,0.0,0.0,0.0,0.0,0.0,0.0,0.0,0.0,0.0,0.0,0.0,0.0,0.0,0.0,0.0,0.0,0.0,0.0,0.0,0.0,0.0,0.0,0.0,0.0,0.0,0.0,0.0,0.0,0.0,0.0,0.0,0.0,0.0,0.0,0.0,0.0,0.0,0.0,0.0,0.0,0.0,0.0,0.0,0.0,0.0,0.0,0.0,0.0,0.0,0.0,0.0,0.0,0.0,0.0,0.0,0.0,0.0,0.0,0.0,0.0,0.0,0.0,0.0,0.0,0.0,0.0,0.0,0.0,0.0,0.0,0.0,0.0,0.0,0.0,0.0,0.0,0.0,0.0,0.0,0.0,0.0,0.0,0.0,0.0,0.0,0.0,0.0,0.0,0.0,0.0,0.0,0.0,0.0,0.0,0.0,0.0,0.0,0.0,0.0,0.0,0.0,0.0,0.0,0.0,0.0,0.0,0.0,0.0,0.0,0.0,0.0,0.0,0.0,0.0,0.0,0.0,0.0,0.0,0.0,0.0,0.0,0.0,0.0,0.0,0.0,0.0,0.0,0.0,0.0,0.0,0.0,0.0,0.0,0.0,0.0,0.0,0.0,0.0,0.0,0.0,0.0,0.0,0.0,0.0,0.0,0.0,0.0,0.0,0.0,0.0,0.0,0.0,0.0,0.0,0.0,0.0,0.0,0.0,0.0,0.0,0.0,0.0,0.0,0.0,0.0,0.0,0.0,0.0,0.0,0.0,0.0,0.0,0.0,0.0,0.0,0.0,0.0,0.0,0.0,0.0,0.0,0.0,0.0,0.0,0.0,0.0,0.0,0.0,0.0,0.0,0.0,0.0,0.0,0.0,0.0,0.0,0.0,0.0,0.0,0.0,0.0,0.0,0.0,0.0,0.0,0.0,0.0,0.0,0.0,0.0,0.0,0.0,0.0,0.0,0.0,0.0,0.0,0.0,0.0,0.0,0.0,0.0,0.0,0.0,0.0,0.0,0.0,0.0,0.0,0.0,0.0,0.0,0.0,0.0,0.0,0.0,0.0,0.0,0.0,0.0,0.0,0.0,0.0,0.0,0.0,0.0,0.0,0.0,0.0,0.0,0.0,0.0,0.0,0.0,0.0,0.0,0.0,0.0,0.0,0.0,0.0,0.0,0.0,0.0,0.0,0.0,0.0,0.0,0.0,0.0,0.0,0.0,0.0,0.0,0.0,0.0,0.0,0.0,0.0,0.0,0.0,0.0,0.0,0.0,0.0,0.0,0.0,0.0,0.0,0.0,0.0,0.0,0.0,0.0,0.0,0.0,0.0,0.0,0.0,0.0,0.0,0.0,0.0,0.0,0.0,0.0,0.0,0.0,0.0,0.0,0.0,0.0,0.0,0.0,0.0,0.0,0.0,0.0,0.0,0.0,0.0,0.0,0.0,0.0,0.0,0.0,0.0,0.0,0.0,0.0,0.0,0.0,0.0,0.0,0.0,0.0,0.0,0.0,0.0,0.0,0.0,0.0,0.0,0.0,0.0,0.0,0.0,0.0,0.0,0.0,0.0,0.0,0.0,0.0,0.0,0.0,0.0,0.0,0.0,0.0,0.0,0.0,0.0,0.0,0.0,0.0,0.0,0.0,0.0,0.0,0.0,0.0,0.0,0.0,0.0,0.0,0.0,0.0,0.0,0.0,0.0,0.0,0.0,0.0,0.0,0.0,0.0,0.0,0.0,0.0,0.0,0.0,0.0,0.0,0.0,0.0,0.0,0.0,0.0,0.0,0.0,0.0,0.0,0.0,0.0,0.0,0.0,0.0,0.0,0.0,0.0,0.0,0.0,0.0,0.0,0.0,0.0,0.0,0.0,0.0,0.0,0.0,0.0,0.0,0.0,0.0,0.0,0.0,0.0,0.0,0.0,0.0,0.0,0.0,0.0,0.0,0.0,0.0,0.0,0.0,0.0,0.0,0.0,0.0,0.0,0.0,0.0,0.0,0.0,0.0,0.0,0.0,0.0,0.0,0.0,0.0,0.0,0.0,0.0,0.0,0.0,0.0,0.0,0.0,0.0,0.0,0.0,0.0,0.0,0.0,0.0,0.0,0.0,0.0,0.0,0.0,0.0,0.0,0.0,0.0,0.0,0.0,0.0,0.0,0.0,0.0,0.0,0.0,0.0,0.0,0.0,0.0,0.0,0.0,0.0,0.0,0.0,0.0,0.0,0.0,0.0,0.0,0.0,0.0,0.0,0.0,0.0,0.0,0.0,0.0,0.0,0.0,0.0,0.0,0.0,0.0,0.0,0.0,0.0,0.0,0.0,0.0,0.0,0.0,0.0,0.0,0.0,0.0,0.0,0.0,0.0,0.0,0.0,0.0,0.0,0.0,0.0,0.0,0.0,0.0,0.0,0.0,0.0,0.0,0.0,0.0,0.0,0.0,0.0,0.0,0.0,0.0,0.0,0.0,0.0,0.0,0.0,0.0,0.0,0.0,0.0,0.0,0.0,0.0,0.0,0.0,0.0,0.0,0.0,0.0,0.0,0.0,0.0,0.0,0.0,0.0,0.0,0.0,0.0,0.0,0.0,0.0,0.0,0.0,0.0,0.0,0.0,0.0,0.0,0.0,0.0,0.0,0.0,0.0,0.0,0.0,0.0,0.0,0.0,0.0,0.0,0.0,0.0,0.0,0.0,0.0,0.0,0.0,0.0,0.0,0.0,0.0,0.0,0.0,0.0,0.0,0.0,0.0,0.0,0.0,0.0,0.0,0.0,0.0,0.0,0.0,0.0,0.0,0.0,0.0,0.0,0.0,0.0,0.0,0.0,0.0,0.0,0.0,0.0,0.0,0.0,0.0,0.0,0.0,0.0,0.0,0.0,0.0,0.0,0.0,0.0,0.0,0.0,0.0,0.0,0.0,0.0,0.0,0.0,0.0,0.0,0.0,0.0,0.0,0.0,0.0,0.0,0.0,0.0,0.0,0.0,0.0,0.0,0.0,0.0,0.0,0.0,0.0,0.0,0.0,0.0,0.0,0.0,0.0,0.0,0.0,0.0,0.0,0.0,0.0,0.0,0.0,0.0,0.0,0.0,0.0,0.0,0.0,0.0,0.0,0.0,0.0,0.0,0.0,0.0,0.0,0.0,0.0,0.0,0.0,0.0,0.0,0.0,0.0,0.0,0.0,0.0,0.0,0.0,0.0,0.0,0.0,0.0,0.0,0.0,0.0,0.0,0.0,0.0,0.0,0.0,0.0,0.0,0.0,0.0,0.0,0.0,0.0,0.0,0.0,0.0,0.0,0.0,0.0,0.0,0.0,0.0,0.0,0.0,0.0,0.0,0.0,0.0,0.0,0.0,0.0,0.0,0.0,0.0,0.0,0.0,0.0,0.0,0.0,0.0,0.0,0.0,0.0,0.0,0.0,0.0,0.0,0.0,0.0,0.0,0.0,0.0,0.0,0.0,0.0,0.0,0.0,0.0,0.0,0.0,0.0,0.0,0.0,0.0,0.0,0.0,0.0,0.0,0.0,0.0,0.0,0.0,0.0,0.0,0.0,0.0,0.0,0.0,0.0,0.0,0.0,0.0,0.0,0.0,0.0,0.0,0.0,0.0,0.0,0.0,0.0,0.0,0.0,0.0,0.0,0.0,0.0,0.0,0.0,0.0,0.0,0.0,0.0,0.0,0.0,0.0,0.0,0.0,0.0,0.0,0.0,0.0,0.0,0.0,0.0,0.0,0.0,0.0,0.0,0.0,0.0,0.0,0.0,0.0,0.0,0.0,0.0,0.0,0.0,0.0,0.0,0.0,0.0,0.0,0.0,0.0,0.0,0.0,0.0,0.0,0.0,0.0,0.0,0.0,0.0,0.0,0.0,0.0,0.0,0.0,0.0,0.0,0.0,0.0,0.0,0.0,0.0,0.0,0.0,0.0,0.0,0.0,0.0,0.0,0.0,0.0,0.0,0.0,0.0,0.0,0.0,0.0,0.0,0.0,0.0,0.0,0.0,0.0,0.0,0.0,0.0,0.0,0.0,0.0,0.0,0.0,0.0,0.0,0.0,0.0,0.0,0.0,0.0,0.0,0.0,0.0,0.0,0.0,0.0,0.0,0.0,0.0,0.0,0.0,0.0,0.0,0.0,0.0,0.0,0.0,0.0,0.0,0.0,0.0,0.0,0.0,0.0,0.0,0.0,0.0,0.0,0.0,0.0,0.0,0.0,0.0,0.0,0.0,0.0,0.0,0.0,0.0,0.0,0.0,0.0,0.0,0.0,0.0,0.0,0.0,0.0,0.0,0.0,0.0,0.0,0.0,0.0,0.0,0.0,0.0,0.0,0.0,0.0,0.0,0.0,0.0,0.0,0.0,0.0,0.0,0.0,0.0,0.0,0.0,0.0,0.0,0.0,0.0,0.0,0.0,0.0,0.0,0.0,0.0,0.0,0.0,0.0,0.0,0.0,0.0,0.0,0.0,0.0,0.0,0.0,0.0,0.0,0.0,0.0,0.0,0.0,0.0,0.0,0.0,0.0,0.0,0.0,0.0,0.0,0.0,0.0,0.0,0.0,0.0,0.0,0.0,0.0,0.0,0.0,0.0,0.0,0.0,0.0,0.0,0.0,0.0,0.0,0.0,0.0,0.0,0.0,0.0,0.0,0.0,0.0,0.0,0.0,0.0,0.0,0.0,0.0,0.0,0.0,0.0,0.0,0.0,0.0,0.0,0.0,0.0,0.0,0.0,0.0,0.0,0.0,0.0,0.0,0.0,0.0,0.0,0.0,0.0,0.0,0.0,0.0,0.0,0.0,0.0,0.0,0.0,0.0,0.0,0.0,0.0,0.0,0.0,0.0,0.0,0.0,0.0,0.0,0.0,0.0,0.0,0.0,0.0,0.0,0.0,0.0,0.0,0.0,0.0,0.0,0.0,0.0,0.0,0.0,0.0,0.0,0.0,0.0,0.0,0.0,0.0,0.0,0.0,0.0,0.0,0.0,0.0,0.0,0.0,0.0,0.0,0.0,0.0,0.0,0.0,0.0,0.0,0.0,0.0,0.0,0.0,0.0,0.0,0.0,0.0,0.0,0.0,0.0,0.0,0.0,0.0,0.0,0.0,0.0,0.0,0.0,0.0,0.0,0.0,0.0,0.0,0.0,0.0,0.0,0.0,0.0,0.0,0.0,0.0,0.0,0.0,0.0,0.0,0.0,0.0,0.0,0.0,0.0,0.0,0.0,0.0,0.0,0.0,0.0,0.0,0.0,0.0,0.0,0.0,0.0,0.0,0.0,0.0,0.0,0.0,0.0,0.0,0.0,0.0,0.0,0.0,0.0,0.0,0.0,0.0,0.0,0.0,0.0,0.0,0.0,0.0,0.0,0.0,0.0,0.0,0.0,0.0,0.0,0.0,0.0,0.0,0.0,0.0,0.0,0.0,0.0,0.0,0.0,0.0,0.0,0.0,0.0,0.0,0.0,0.0,0.0,0.0,0.0,0.0,0.0,0.0,0.0,0.0,0.0,0.0,0.0,0.0,0.0,0.0,0.0,0.0,0.0,0.0,0.0,0.0,0.0,0.0,0.0,0.0,0.0,0.0,0.0,0.0,0.0,0.0,0.0,0.0,0.0,0.0,0.0,0.0,0.0,0.0,0.0,0.0,0.0,0.0,0.0,0.0,0.0,0.0,0.0,0.0,0.0,0.0,0.0,0.0,0.0,0.0,0.0,0.0,0.0,0.0,0.0,0.0,0.0,0.0,0.0,0.0,0.0,0.0,0.0,0.0,0.0,0.0,0.0,0.0,0.0,0.0,0.0,0.0,0.0,0.0,0.0,0.0,0.0,0.0,0.0,0.0,0.0,0.0,0.0,0.0,0.0,0.0,0.0,0.0,0.0,0.0,0.0,0.0,0.0,0.0,0.0,0.0,0.0,0.0,0.0,0.0,0.0,0.0,0.0,0.0,0.0,0.0,0.0,0.0,0.0,0.0,0.0,0.0,0.0,0.0,0.0,0.0,0.0,0.0,0.0,0.0,0.0,0.0,4.8306,0.0,0.0,0.0,0.0,0.0,0.0,0.0,0.0,0.0,0.0,0.0,0.0,0.0,0.0,0.0,0.0,0.0,0.0,0.0,0.0,0.0,0.0,0.0,0.0,0.0,0.0,0.0,0.0,0.0,0.0,0.0,0.0,0.0,0.0,0.0,0.0,0.0,0.0,4.1384,4.139,4.1996,4.3201,4.3233,4.3438,4.379,0.0,0.0,0.0,0.0,0.0,0.0,0.0,0.0,0.0,0.0,0.0,0.0,0.0,0.0,0.0,0.0,0.0,0.0,0.0,0.0,0.0,0.0,0.0,0.0,0.0,0.0,0.0,0.0,0.0,0.0,0.0,0.0,0.0,0.0,0.0,0.0,0.0,0.0,0.0,0.0,0.0,0.0,0.0,0.0,0.0,0.0,0.0,0.0,0.0,0.0,0.0,0.0,0.0,0.0,0.0,0.0,0.0,0.0,0.0,0.0,0.0,0.0,0.0,0.0,0.0,0.0,0.0,0.0,0.0,0.0,0.0,4.8306,0.0,0.0,0.0,0.0,0.0,0.0,0.0,0.0,0.0,0.0,0.0,0.0,0.0,0.0,0.0,0.0,0.0,0.0,0.0,0.0,0.0,0.0,0.0,4.1017,4.0974,4.0927,4.0849,4.0818,0.0,0.0,0.0,0.0,0.0,0.0,4.1003,4.1003,4.1416,4.2226,4.2369,4.3143,4.4506,4.4694,4.4785,4.4805,4.551,0.0,0.0,0.0,0.0,0.0,0.0,0.0,0.0,0.0,0.0,0.0,0.0,0.0,0.0,0.0,0.0,0.0,0.0,0.0,0.0,0.0,0.0,0.0,0.0,0.0,0.0,0.0,0.0,0.0,0.0,0.0,0.0,0.0,0.0,0.0,0.0,0.0,0.0,0.0,0.0,0.0,0.0,0.0,0.0,0.0,0.0,0.0,0.0,0.0,0.0,0.0,0.0,0.0,0.0,0.0,0.0,0.0,0.0,0.0,0.0,0.0,0.0,0.0,4.5553,4.5553,4.5718,4.6397,4.6783,4.6948,4.7755,4.8177,4.8306,0.0,0.0,0.0,0.0,0.0,0.0,0.0,0.0,0.0,0.0,0.0,0.0,0.0,0.0,0.0,0.0,0.0,0.0,0.0,0.0,0.0,0.0,4.1041,4.1007,4.0981,4.0926,4.0867,4.0807,0.0,0.0,0.0,0.0,4.1119,4.1835,4.1835,4.226,4.3117,4.3824,4.4274,4.451,4.5229,4.5561,4.5576,4.5733,4.58,4.58,0.0,0.0,0.0,0.0,0.0,0.0,0.0,0.0,0.0,0.0,0.0,0.0,0.0,0.0,0.0,0.0,0.0,0.0,0.0,0.0,0.0,0.0,0.0,0.0,0.0,0.0,0.0,0.0,0.0,0.0,0.0,0.0,0.0,0.0,0.0,0.0,0.0,0.0,0.0,0.0,0.0,4.3974,4.4017,0.0,0.0,0.0,0.0,0.0,0.0,0.0,0.0,0.0,0.0,0.0,0.0,0.0,4.3938,4.4856,4.4066,4.4066,4.4856,4.414,4.4176,4.4874,4.4984,4.5406,4.6104,4.6929,0.0,4.8306,4.8306,0.0,0.0,0.0,0.0,0.0,0.0,0.0,0.0,0.0,0.0,0.0,0.0,0.0,0.0,0.0,0.0,0.0,0.0,0.0,0.0,0.0,4.1073,4.1043,4.1007,4.0964,4.0922,4.0867,4.1286,0.0,0.0,4.1932,4.2376,4.2725,4.2761,4.3203,4.4095,4.486,4.522,4.519,4.5542,4.57,4.5687,4.5731,4.5742,4.5727,4.5616,0.0,0.0,0.0,0.0,0.0,0.0,0.0,0.0,0.0,0.0,0.0,0.0,0.0,0.0,0.0,0.0,0.0,0.0,0.0,0.0,0.0,0.0,0.0,0.0,0.0,0.0,0.0,0.0,0.0,0.0,0.0,0.0,0.0,0.0,0.0,0.0,0.0,0.0,0.0,4.3649,4.3749,4.3781,4.3749,4.3749,0.0,0.0,0.0,0.0,0.0,0.0,0.0,0.0,0.0,4.3497,4.3497,4.3663,4.4011,4.3663,4.3663,4.4011,4.3663,4.3681,4.4048,4.4488,4.4892,4.5278,4.6085,4.6728,4.7294,4.8108,4.8401,4.8438,0.0,0.0,0.0,0.0,4.9302,4.9307,0.0,0.0,0.0,0.0,0.0,0.0,0.0,0.0,0.0,0.0,0.0,0.0,4.1091,4.1092,4.1074,4.1023,4.1211,4.1304,4.1266,4.2004,4.244,4.2388,4.3009,4.3463,4.3687,4.3948,4.4413,4.5065,4.5576,4.579,4.5737,4.5712,4.5703,4.5709,4.5703,4.57,4.57,4.553,4.5438,4.5342,0.0,0.0,0.0,0.0,0.0,0.0,0.0,0.0,0.0,0.0,0.0,0.0,0.0,0.0,0.0,0.0,0.0,0.0,0.0,0.0,0.0,0.0,0.0,0.0,0.0,0.0,0.0,0.0,0.0,0.0,0.0,0.0,0.0,0.0,0.0,0.0,0.0,4.3513,4.3513,4.3548,4.3513,4.3582,0.0,0.0,0.0,0.0,0.0,0.0,4.3497,4.3497,4.3497,4.3497,4.3497,4.3497,4.3497,4.3497,4.3497,4.3497,4.3497,4.3497,4.3516,4.4121,4.4397,4.4452,4.5241,4.5714,4.6067,4.7316,4.7905,4.7996,4.824,4.8371,4.8501,4.8694,4.8966,4.9176,0.0,0.0,0.0,0.0,0.0,0.0,0.0,0.0,0.0,0.0,0.0,4.1111,4.1091,4.1091,4.1101,4.1094,4.1796,4.2236,4.2232,4.2978,4.3428,4.3429,4.3468,4.3877,4.4715,4.5533,4.5994,4.6033,4.5939,4.5894,4.5883,4.5752,4.5703,4.5709,4.5703,4.57,4.57,4.569,4.555,4.5302,4.5222,0.0,0.0,0.0,0.0,0.0,0.0,0.0,0.0,0.0,0.0,0.0,0.0,0.0,0.0,0.0,0.0,0.0,0.0,0.0,0.0,0.0,0.0,0.0,0.0,0.0,0.0,0.0,0.0,0.0,0.0,0.0,0.0,0.0,0.0,0.0,0.0,0.0,0.0,4.3479,4.3479,0.0,0.0,0.0,0.0,4.3513,4.3532,4.3497,4.3497,4.3497,4.3497,4.3497,4.3497,4.3497,4.3497,4.3497,4.3497,4.3497,4.3497,4.3497,4.3497,4.3534,4.3552,4.3608,4.4415,4.4764,4.4837,4.5681,4.6244,4.6583,4.635,4.6434,4.6738,4.6812,4.7014,4.7299,0.0,0.0,0.0,0.0,0.0,0.0,0.0,0.0,4.1094,4.1108,4.1108,4.1108,4.1108,4.1596,4.1931,4.1941,4.2705,4.3183,4.313,4.3925,4.4376,4.4338,4.4878,4.5345,4.5694,4.6006,4.6158,4.6158,4.6066,4.5998,4.5959,4.584,4.575,4.5756,4.5727,4.57,4.57,4.5706,4.564,4.555,4.5302,4.514,0.0,0.0,0.0,0.0,0.0,0.0,0.0,0.0,0.0,0.0,0.0,0.0,0.0,0.0,0.0,0.0,0.0,0.0,0.0,0.0,0.0,0.0,0.0,0.0,0.0,0.0,0.0,0.0,0.0,0.0,0.0,0.0,0.0,0.0,0.0,0.0,0.0,4.3497,4.3497,0.0,4.3497,4.3497,4.3497,4.3497,4.3497,4.3497,4.3497,4.3497,4.3497,4.3497,4.3497,4.3497,4.3497,4.3497,4.3497,4.3497,4.3497,4.3497,4.3497,4.3497,4.3497,4.3516,4.386,4.4107,4.4323,4.4472,4.5327,4.6512,4.6731,4.6891,4.7033,4.7457,4.7552,4.7429,0.0,0.0,0.0,0.0,0.0,0.0,0.0,0.0,4.1094,4.1101,4.1361,4.1537,4.1537,4.2318,4.2845,4.2848,4.3629,4.4112,4.4081,4.4881,4.5343,4.5308,4.585,4.6195,4.6237,4.6237,4.6237,4.6237,4.6163,4.6119,4.6079,4.5939,4.5899,4.5869,4.584,4.5802,4.5766,4.5776,4.575,4.5671,4.5456,4.5381,4.5322,0.0,0.0,0.0,0.0,0.0,0.0,0.0,0.0,0.0,0.0,0.0,0.0,0.0,0.0,0.0,0.0,0.0,0.0,0.0,0.0,0.0,0.0,0.0,0.0,0.0,0.0,0.0,0.0,0.0,0.0,0.0,0.0,0.0,0.0,4.3497,4.3497,4.3497,4.3497,4.3497,4.3497,4.3497,4.3497,4.3497,4.3497,4.3497,4.3497,4.3497,4.3497,4.3497,4.3497,4.3497,4.3497,4.3497,4.3497,4.3497,4.3497,4.3497,4.3497,4.3497,4.3497,4.3479,4.3548,4.3749,4.3923,4.3851,4.4559,4.5755,4.6074,4.6312,4.6468,4.6927,4.7088,4.6932,0.0,0.0,0.0,0.0,0.0,0.0,4.0867,4.1026,4.1135,4.1129,4.1882,4.2435,4.2432,4.3216,4.3746,4.3735,4.4535,4.5048,4.5036,4.5838,4.6307,4.6308,4.6308,4.6308,4.6308,4.6308,4.6308,4.6308,4.6239,4.6206,4.6202,4.6137,4.6072,4.6018,4.6072,4.6024,4.5906,4.5906,4.5829,4.5712,4.5696,4.5703,4.5657,0.0,0.0,0.0,0.0,0.0,0.0,0.0,0.0,0.0,0.0,0.0,0.0,0.0,0.0,0.0,0.0,0.0,0.0,0.0,0.0,0.0,0.0,0.0,0.0,0.0,0.0,0.0,0.0,0.0,0.0,0.0,0.0,0.0,4.3497,4.3497,4.3497,4.3497,4.3497,4.3497,4.3497,4.3497,4.3497,4.3497,4.3497,4.3497,4.3497,4.3497,4.3497,4.3497,4.3497,4.3497,4.3497,4.3497,4.3497,4.3497,4.3497,4.3497,4.3497,4.3497,4.3497,4.3479,4.3548,4.3582,4.3615,4.3753,4.3974,4.4221,4.4279,4.4493,4.4825,4.5096,4.5362,4.5586,0.0,0.0,0.0,0.0,0.0,0.0,4.0726,4.141,4.1855,4.1769,4.268,4.3303,4.3206,4.4055,4.4641,4.4644,4.5431,4.5944,4.5932,4.6169,4.6307,4.6308,4.6308,4.6308,4.6308,4.6308,4.6308,4.6308,4.6288,4.6268,4.6267,4.6206,4.6162,4.6138,4.6099,4.6084,4.606,4.606,4.6024,4.5979,4.578,4.57,4.5668,0.0,0.0,0.0,0.0,0.0,0.0,0.0,0.0,0.0,0.0,0.0,0.0,0.0,0.0,0.0,0.0,0.0,0.0,0.0,0.0,0.0,0.0,0.0,0.0,0.0,0.0,0.0,0.0,0.0,0.0,0.0,4.3497,4.3497,4.3497,4.3497,4.3497,4.3497,4.3497,4.3497,4.3497,4.3497,4.3497,4.3497,4.3497,4.3497,4.3497,4.3497,4.3497,4.3497,4.3497,4.3497,4.3497,4.3497,4.3497,4.3497,4.3497,4.3497,4.3497,4.3497,4.3497,4.3479,4.3548,4.3667,4.3753,4.4048,4.425,4.4346,4.4318,4.4484,4.477,4.5074,4.5362,4.5586,0.0,0.0,0.0,0.0,0.0,0.0,4.1586,4.2199,4.2597,4.2543,4.3439,4.4072,4.4046,4.4883,4.5479,4.5542,4.6017,4.6297,4.6303,4.6307,4.6308,4.6308,4.6308,4.6308,4.6308,4.6308,4.6308,4.6308,4.6308,4.6308,4.6308,4.6265,4.6241,4.6241,4.6202,4.6162,4.6142,4.6142,4.6125,4.6091,4.5928,4.5841,4.5747,4.558,4.5494,4.5438,4.5201,4.503,4.4896,4.4825,0.0,0.0,0.0,0.0,0.0,0.0,0.0,0.0,0.0,0.0,0.0,0.0,0.0,0.0,0.0,0.0,0.0,0.0,0.0,0.0,0.0,0.0,0.0,0.0,4.3548,4.3513,4.3479,4.3497,4.3497,4.3497,4.3497,4.3497,4.3497,4.3497,4.3497,4.3497,4.3497,4.3497,4.3497,4.3497,4.3497,4.3497,4.3497,4.3497,4.3497,4.3497,4.3497,4.3497,4.3497,4.3497,4.3497,4.3497,4.3497,0.0,4.3548,4.3667,4.3837,4.4048,4.425,0.0,0.0,0.0,0.0,0.0,4.5362,4.5586,0.0,0.0,0.0,0.0,0.0,0.0,4.2862,4.3173,4.3337,4.3389,4.4187,4.4782,4.4884,4.5609,4.6118,4.6264,4.6287,4.6276,4.6306,4.6308,4.6308,4.6308,4.6308,4.6308,4.6308,4.6308,4.6308,4.6308,4.6308,4.6308,4.6308,4.6308,4.6308,4.6308,4.6308,4.6267,4.6209,4.6212,4.6171,4.6131,4.6118,4.6033,4.5894,4.5847,4.5785,4.5709,4.5709,4.5513,4.5243,4.518,0.0,0.0,0.0,0.0,0.0,0.0,0.0,0.0,0.0,0.0,0.0,0.0,0.0,0.0,0.0,0.0,0.0,0.0,0.0,0.0,0.0,0.0,0.0,0.0,4.3582,4.3548,4.3532,4.3532,4.3532,4.3497,4.3497,4.3497,4.3497,4.3497,4.3497,4.3497,4.3497,4.3497,4.3497,0.0,0.0,0.0,0.0,4.3497,4.3497,4.3497,4.3497,4.3497,4.3497,4.3497,4.3497,4.3497,4.3479,4.3513,4.3582,4.3667,4.3837,4.3929,4.421,4.4519,4.4751,4.4868,4.4891,4.5159,4.54,4.5586,0.0,0.0,0.0,0.0,0.0,0.0,4.2814,4.3551,4.4055,4.396,4.4892,4.5563,4.5531,4.5766,4.5998,4.6138,4.6137,4.6186,4.6282,4.6303,4.6305,4.6305,4.6307,4.6307,4.6307,4.6308,4.6308,4.6308,4.6308,4.6308,4.6308,4.6308,4.6308,4.6308,4.6308,4.6289,4.6289,4.6289,4.6269,4.6269,4.6198,4.6099,4.5966,4.5902,4.5841,4.577,4.5726,4.5654,4.5599,4.5531,4.5284,4.5039,4.5011,4.4776,0.0,0.0,0.0,0.0,0.0,0.0,0.0,0.0,0.0,0.0,0.0,0.0,0.0,0.0,0.0,0.0,0.0,0.0,0.0,4.3582,4.3548,4.3513,4.3479,4.3566,4.3548,4.3532,4.3497,4.3497,4.3497,4.3497,4.3497,4.3497,4.3497,4.3497,4.3497,4.3497,4.3497,4.3497,4.3497,4.3497,4.3497,4.3497,4.3497,4.3497,0.0,0.0,4.3497,4.3497,4.3513,4.3582,4.3582,4.3701,4.3929,4.4346,4.4751,4.5052,4.5096,4.5118,4.5159,4.5419,4.5568,4.5586,0.0,0.0,0.0,0.0,0.0,0.0,4.3978,4.448,4.4806,4.4767,4.526,4.5607,4.5654,4.5742,4.5863,4.6037,4.6073,4.6153,4.6295,4.6248,4.6231,4.6301,4.6303,4.6305,4.6305,4.6306,4.6307,4.6307,4.6307,4.6307,4.6307,4.6307,4.6307,4.6308,4.6306,4.6306,4.6307,4.6306,4.6303,4.6303,4.6269,4.6183,4.6086,4.5988,4.5893,4.58,4.5754,4.5719,4.57,4.5651,4.5547,4.54,4.54,4.5161,4.4872,0.0,0.0,0.0,0.0,0.0,0.0,0.0,0.0,0.0,0.0,0.0,0.0,0.0,0.0,4.3719,4.3804,0.0,4.3652,4.3667,4.3686,4.3652,4.3652,4.3686,4.3667,4.3548,4.3548,4.3548,4.3548,4.3513,4.3497,4.3497,4.3497,4.3497,4.3497,4.3497,4.3497,4.3497,4.3497,4.3497,4.3497,4.3497,4.3497,4.3497,4.3497,4.3532,4.3548,4.3712,4.3791,4.3905,4.3905,4.4042,4.4336,4.4776,4.5052,4.5222,4.5342,4.5322,4.5222,4.5342,4.5495,4.5586,0.0,0.0,0.0,0.0,0.0,0.0,0.0,4.5297,4.5317,4.5359,4.5398,4.5438,4.5541,4.561,4.5722,4.5911,4.6002,4.6099,4.6206,4.6128,4.6138,4.6251,4.6297,4.63,4.63,4.6301,4.6301,4.6301,4.6301,4.6301,4.6301,4.6301,4.6303,4.6306,4.6301,4.6301,4.6305,4.6305,4.6301,4.63,4.6307,4.6268,4.6192,4.6084,4.5964,4.5838,4.5819,4.5776,4.5731,4.5696,4.5703,4.569,4.5709,4.5513,4.5282,4.5222,4.5007,0.0,0.0,0.0,0.0,0.0,0.0,0.0,0.0,4.3837,4.3837,4.3837,4.3837,4.3837,4.3837,4.3837,4.3804,4.3837,4.3804,4.3804,4.3804,4.3804,4.3786,4.3649,4.3615,4.3582,4.3582,4.3513,4.3497,4.3497,4.3497,4.3497,4.3497,4.3497,4.3497,4.3497,4.3497,4.3497,4.3497,4.3497,4.3532,4.3513,4.3513,4.3582,4.373,4.3962,4.4125,4.4308,4.4289,4.4484,4.4726,4.5074,4.5222,4.5302,4.5513,4.5476,4.5282,4.5282,4.5419,4.5586,0.0,0.0,0.0,0.0,0.0,0.0,0.0,0.0,4.5297,4.5317,4.5317,4.5338,4.54,4.5438,4.5494,4.563,4.5764,4.5867,4.5949,4.5985,4.6033,4.6118,4.6234,4.6295,4.6295,4.63,4.6301,4.6301,4.6301,4.6301,4.6301,4.6301,4.6301,4.6301,4.6297,4.6295,4.6295,4.6306,4.6303,4.6306,4.63,4.6269,4.6202,4.6179,4.6098,4.5975,4.5902,4.5861,4.5786,4.5712,4.57,4.57,4.569,4.564,4.5513,4.5263,4.5161,4.5074,4.4825,4.472,4.4572,4.4383,4.425,4.4121,0.0,4.3929,4.3915,4.3992,4.3929,4.3897,4.3974,4.3883,4.3837,4.3883,4.3818,4.3804,4.3804,4.3851,4.3865,4.3865,4.3734,4.3582,4.3532,4.3479,4.3497,4.3497,4.3497,4.3497,4.3497,4.3497,4.3497,4.3497,4.3497,4.3497,4.3497,4.3497,4.3513,4.3582,4.3582,4.3795,4.4132,4.4162,4.4346,4.4669,4.4701,4.4751,4.48,4.5074,4.5342,4.5568,4.5586,4.5586,4.5568,4.5568,4.5568,4.5586,0.0,0.0,0.0,0.0,0.0,0.0,0.0,0.0,0.0,4.5297,4.5297,4.5317,4.5338,4.5419,4.549,4.5603,4.5645,4.5731,4.582,4.5789,4.5825,4.592,4.6045,4.6125,4.6125,4.6249,4.6303,4.6303,4.6309,4.629,4.629,4.629,4.6293,4.6297,4.6309,4.6309,4.6293,4.6309,4.6306,4.6303,4.6297,4.6286,4.6269,4.6268,4.6206,4.6105,4.5998,4.5886,0.0,4.5771,4.5761,4.575,4.5719,4.569,4.564,4.5476,4.5438,4.5362,4.5096,4.4776,4.4493,4.4411,4.425,4.4079,4.3986,4.3974,4.3992,4.4005,4.3974,4.3942,4.3942,4.3915,4.3883,4.3915,4.3883,4.3883,4.3897,4.3961,4.3961,4.3897,4.3832,4.3734,4.3686,4.3566,4.3497,4.3497,4.3497,4.3532,4.3548,4.3548,4.36,4.3686,4.3686,4.3686,4.3686,4.3686,4.3686,4.3719,4.3719,4.391,4.426,4.443,4.4676,4.5007,4.518,4.518,4.5052,4.5322,4.5495,4.5586,4.5586,4.5586,4.5586,4.5586,4.5586,4.5586,0.0,0.0,0.0,0.0,0.0,0.0,0.0,0.0,0.0,0.0,4.5173,4.5194,4.5297,4.54,4.5453,4.5507,4.5524,4.5574,4.5675,4.5615,4.563,4.5725,4.5878,4.5949,4.5996,4.6151,4.6245,4.626,4.6269,4.6273,4.6273,4.6273,4.6277,4.6306,4.63,4.6303,4.6309,4.6309,4.6306,4.6303,4.6295,4.63,4.63,4.6306,4.6246,4.6162,4.606,4.5956,4.5854,4.5814,4.5805,4.58,4.5715,4.5703,4.5693,4.5622,4.5586,4.5568,4.5362,4.4966,4.4599,4.4519,4.4289,4.4109,4.4036,4.4005,4.4005,4.4005,4.4005,4.3974,4.3929,4.3929,4.3929,4.3929,4.3929,4.3942,4.4005,4.4005,4.3974,4.3929,4.3897,4.3883,4.3818,4.3634,4.3532,4.3566,4.3566,4.3548,4.3667,4.3667,4.3719,4.3804,4.3804,4.3804,4.3804,4.3804,4.3804,4.3837,4.3897,4.4091,4.4457,4.48,4.5052,4.5222,4.5495,4.5438,4.5222,4.5495,4.5586,4.5586,4.5586,4.5586,4.5586,4.5586,4.5586,4.5586,0.0,0.0,0.0,0.0,0.0,0.0,0.0,0.0,0.0,0.0,0.0,0.0,0.0,4.5298,4.5317,4.5317,4.5317,4.5338,4.5399,4.5472,4.5533,4.56,4.5725,4.5878,4.5996,4.6005,4.6064,4.6206,4.6206,4.6206,4.6206,4.6206,4.6236,4.6303,4.6303,4.6292,4.63,4.63,4.63,4.63,4.629,4.6293,4.6295,4.6305,4.6221,4.6105,4.6105,4.6044,4.5975,4.5835,4.5805,4.58,4.5715,4.5703,4.5693,4.5622,4.5586,4.5586,4.5586,4.54,4.5118,4.4849,4.4572,4.4318,4.4048,4.4005,4.4005,4.4005,4.4005,4.4005,4.4005,4.4005,4.4005,4.4005,4.4005,4.4005,4.4005,4.4005,4.4005,4.4005,4.3961,4.3897,4.3915,4.3734,4.3667,4.3771,4.3667,4.3667,4.3804,4.3804,4.3804,4.3804,4.3804,4.3804,4.3804,4.3804,4.3818,4.3897,4.4151,4.4438,4.48,4.5322,4.5438,4.5222,4.5495,4.5438,4.5222,4.5495,4.5586,4.5586,4.5586,4.5586,4.5586,4.5586,4.5586,4.5586,0.0,0.0,0.0,0.0,0.0,0.0,0.0,0.0,0.0,0.0,0.0,0.0,0.0,0.0,0.0,0.0,4.5297,4.5317,4.5338,4.5341,4.5381,4.54,4.5541,4.5615,4.5675,4.5886,4.6026,4.606,4.6164,4.6206,4.6206,4.6206,4.6211,4.6236,4.6236,4.626,4.6292,4.6292,4.6296,4.63,4.6303,4.6309,4.6295,4.625,4.6202,4.6152,0.0,4.5966,4.5848,4.5827,4.58,4.5791,4.5731,4.57,4.5687,4.562,4.5586,4.5586,4.5586,4.54,4.5137,4.4868,4.4599,4.4318,4.4048,4.4005,4.4005,4.4005,4.4005,4.4005,4.4005,4.4005,4.4005,4.4005,4.4005,4.4005,4.4005,4.4005,4.4005,4.4005,4.3974,4.3974,4.3974,4.3832,0.0,4.3804,4.3753,4.3786,4.3851,4.3883,4.3883,4.3929,4.3929,4.3929,4.3929,4.3929,4.3942,4.3974,4.443,4.4776,4.5074,4.5438,4.555,4.5476,4.5568,4.555,4.5457,4.5568,4.5586,4.5586,4.5586,4.5586,4.5586,4.5586,4.5586,4.5586,0.0,0.0,0.0,0.0,0.0,0.0,0.0,0.0,0.0,0.0,0.0,0.0,0.0,0.0,0.0,0.0,0.0,4.5213,4.5213,4.5213,4.5213,4.5213,4.5302,4.5418,4.5519,4.5757,4.5938,4.6083,4.6164,4.6189,4.6189,4.6189,4.6195,4.6201,4.6201,4.6226,4.626,4.626,4.6284,4.6296,4.6296,4.63,4.6293,4.623,4.6198,0.0,4.6044,4.591,4.58,4.58,4.58,4.58,4.5746,4.5735,4.5687,4.5657,4.5622,4.5586,4.5586,4.54,4.5159,4.4985,4.4676,4.4346,4.4162,4.4079,4.4005,4.4005,4.4079,4.4121,4.4036,4.4079,4.4121,4.4036,4.4005,4.4005,4.4005,4.4005,4.4005,4.4005,4.4005,4.4005,4.4005,4.3929,4.3883,4.3883,4.3851,4.3851,4.3929,4.3929,4.3961,4.4005,4.4005,4.4005,4.4005,4.4109,4.425,4.443,4.4776,4.5074,4.5342,4.5513,4.5586,4.5586,4.5586,4.5586,4.5586,4.5586,4.5586,4.5586,4.5586,4.5586,4.5586,4.5586,4.5586,4.5586,0.0,0.0,0.0,0.0,0.0,0.0,0.0,0.0,0.0,0.0,0.0,0.0,0.0,0.0,0.0,0.0,0.0,0.0,4.5103,4.5103,4.5103,4.5103,4.5103,4.5244,4.5576,4.5592,4.5796,4.6189,4.6189,4.6196,4.6196,4.6196,4.6209,4.6203,4.6203,4.6195,4.6206,4.6206,4.6236,4.6303,4.6303,4.6292,4.6287,4.6211,4.6153,4.6098,4.6016,4.5902,4.58,4.58,4.58,4.58,4.5795,4.5754,4.5709,4.5709,4.5657,4.5622,4.5622,4.5419,4.5222,4.5201,4.4825,4.4438,4.4411,4.4221,4.4048,4.4048,4.4221,4.4318,4.4079,4.4221,4.4308,4.4048,4.4005,4.4005,4.4005,4.4005,4.4005,4.4005,4.4005,4.4005,4.4005,4.4005,4.4005,4.4005,0.0,4.3929,4.4005,4.4005,4.4005,4.4036,4.4036,4.4036,4.4048,4.4289,4.4676,4.5201,4.5201,4.5342,4.5586,4.5586,4.5586,4.5586,4.5586,4.5586,4.5586,4.5586,4.5586,4.5586,4.5586,4.5586,4.5586,4.5586,4.5586,4.5622,0.0,0.0,0.0,0.0,0.0,0.0,0.0,0.0,0.0,0.0,0.0,0.0,0.0,0.0,0.0,0.0,0.0,0.0,4.5103,4.5103,4.5103,4.5103,4.5103,4.5197,4.5361,4.5524,4.5703,4.5898,4.6047,4.613,4.613,4.6181,4.6203,4.6203,4.6203,4.6196,4.6189,4.6189,4.6245,4.6303,4.6303,4.627,4.6229,4.6158,4.6089,4.6021,4.5944,4.5867,4.58,4.58,4.5805,4.5795,4.5795,4.575,4.5703,4.5703,4.5706,4.5657,4.5657,4.5586,4.5438,4.5243,4.5096,4.4943,4.4751,4.465,4.4617,4.4617,4.4493,4.4374,4.4318,4.4192,4.4079,4.4005,4.4005,4.4005,4.4005,4.4005,4.4005,4.4005,4.4005,4.4005,4.4005,4.4005,4.4005,0.0,4.3974,4.3974,4.4005,4.4005,4.4091,4.4289,4.4289,4.4402,4.4572,4.465,4.4872,4.5201,4.5201,4.5342,4.5586,4.5586,4.5586,4.5586,4.5586,4.5586,4.5586,4.5586,4.5586,4.5586,4.5586,4.5586,4.5586,4.5586,4.564,4.5657,0.0,0.0,0.0,0.0,0.0,0.0,0.0,0.0,0.0,0.0,0.0,0.0,0.0,0.0,0.0,0.0,0.0,0.0,0.0,4.5014,4.5014,4.5014,4.5014,4.5087,4.5245,4.5454,4.5642,4.5808,4.5966,4.6066,4.6066,4.6111,4.6154,4.6154,4.6189,4.6203,4.6196,4.6196,4.6215,0.0,0.0,4.6231,4.6191,4.6153,4.6098,4.6035,4.5922,4.5874,4.58,4.58,4.5786,4.5791,4.5791,4.5761,4.5731,4.5731,4.5719,4.5706,4.5709,4.5657,4.5586,4.5419,4.5302,4.5159,4.5007,4.4872,4.48,4.48,4.4676,4.4546,4.4411,4.4279,4.4151,4.4036,4.4005,4.4005,4.4005,4.4005,4.4005,4.4005,4.4005,4.4005,4.4005,4.4005,4.4048,0.0,4.4181,4.4181,4.4181,4.4279,4.443,4.4572,4.4572,4.4701,4.4985,4.4985,4.5096,4.5381,4.5381,4.5438,4.5586,4.5586,4.5586,4.5586,0.0,4.5586,4.5586,4.5586,4.5586,4.5586,4.5586,4.5586,4.5603,4.564,4.5676,4.5709,0.0,0.0,0.0,0.0,0.0,0.0,0.0,0.0,0.0,0.0,0.0,0.0,0.0,0.0,0.0,0.0,0.0,0.0,0.0,0.0,4.4895,4.4895,4.4895,4.5,4.5207,4.5418,4.5591,4.5796,4.5933,4.5986,4.5986,4.6047,4.6093,4.6102,4.6162,4.6196,4.6196,4.6196,4.6203,4.6197,4.6197,4.6198,4.6189,0.0,4.6156,4.6083,4.5933,4.5867,4.58,4.58,4.58,4.58,4.58,4.5805,4.5795,4.5795,4.5765,4.57,4.5706,4.5709,4.5673,4.562,4.5438,4.5282,4.5282,4.5074,4.4915,4.4915,4.4891,4.4776,4.4546,4.4465,4.4374,4.4109,4.4048,4.4048,4.4005,4.4005,4.4005,4.4005,4.4005,4.4005,4.4005,4.4017,4.4151,4.4383,4.4465,4.4493,4.4438,4.4676,4.48,4.4849,4.4891,4.503,4.5243,4.5243,4.5362,4.5586,4.5586,4.5586,4.5586,4.5586,4.5586,4.5586,0.0,0.0,4.5586,4.5586,4.5622,4.5603,4.5603,4.5603,4.562,4.5673,4.5709,4.5706,0.0,0.0,0.0,0.0,0.0,0.0,0.0,0.0,0.0,0.0,4.2882,4.292,0.0,0.0,0.0,0.0,0.0,0.0,0.0,0.0,0.0,4.4895,4.4895,4.5042,4.5362,4.54,4.5526,4.5794,4.5873,4.5929,4.5929,4.6037,4.6093,4.6102,4.6162,4.6196,4.6196,4.6196,4.6206,4.6198,4.6198,4.617,4.6117,4.6125,0.0,0.0,4.5944,4.586,4.58,4.58,4.58,4.58,4.58,4.58,4.58,4.58,4.5791,4.5781,4.5785,4.5735,4.57,4.5684,4.5654,4.5603,4.5603,4.5531,4.5457,4.5457,4.5283,4.5118,4.5074,4.4872,4.465,4.4374,4.4318,4.425,4.4017,4.4005,4.4005,4.4005,4.4005,4.4005,4.4005,4.4192,4.4346,0.0,4.4825,4.4966,4.4751,4.4776,4.4896,4.5118,4.5342,4.5495,4.5531,4.5531,4.5568,4.5586,4.5586,4.5586,4.5586,4.5586,4.5586,4.5586,4.5586,0.0,4.5586,4.5586,4.564,4.5693,4.5693,4.5671,4.5684,4.57,4.5735,4.5785,0.0,0.0,0.0,0.0,0.0,0.0,0.0,4.2882,4.2882,4.2882,4.2882,4.2882,4.2882,4.349,4.3912,0.0,0.0,0.0,0.0,0.0,0.0,4.4895,4.4895,4.4991,4.5132,4.5302,4.5456,4.5596,0.0,4.588,4.5898,4.5997,4.6075,4.6102,4.6162,4.6196,4.6196,4.6196,4.6206,4.6195,4.6202,4.6187,4.6144,4.6105,0.0,0.0,4.5925,4.5887,4.5847,4.5814,4.58,4.58,4.58,4.58,4.58,4.58,4.5786,4.5791,4.5795,4.5765,4.5731,4.5715,4.5684,4.5706,4.5709,4.5676,4.564,4.5622,4.54,4.5201,4.5201,4.4985,4.4751,4.4624,4.4599,4.4546,4.443,4.4402,4.4402,4.4402,4.4289,4.4279,4.4402,4.4402,4.4519,4.48,4.5033,4.514,4.503,4.514,4.5282,4.54,4.5531,4.5586,4.5586,4.5586,4.5586,4.5586,4.5586,4.5586,4.5586,4.5586,4.5586,4.5586,4.564,0.0,4.5657,4.5654,4.5671,4.5687,4.5687,4.5703,4.5715,4.5731,4.5765,4.5815,0.0,0.0,0.0,0.0,0.0,0.0,0.0,4.2882,4.2882,4.2882,4.2957,4.3032,4.3032,4.3523,4.3943,0.0,0.0,0.0,0.0,0.0,0.0,0.0,0.0,0.0,4.5014,0.0,0.0,4.5475,4.5692,0.0,0.0,0.0,0.0,0.0,4.6162,4.6196,4.6196,4.619,4.6197,0.0,0.0,4.618,4.6157,0.0,0.0,0.0,0.0,4.5912,4.5893,4.5847,4.5814,4.58,4.58,4.58,4.58,4.58,4.58,4.58,4.581,4.5795,4.5795,4.5727,4.5731,4.5715,4.5722,4.5709,4.5693,4.564,4.5438,4.5302,4.5302,4.5118,4.4943,4.4915,4.4891,4.4872,4.4825,4.48,4.4819,4.4825,4.4624,4.4572,4.4776,4.4676,4.4776,4.518,4.5243,0.0,4.5302,4.5495,4.5586,4.5586,4.5586,4.5586,4.5586,4.5586,4.5586,4.5586,4.5603,4.5622,4.5622,4.562,4.562,4.562,4.5673,0.0,0.0,4.57,4.5715,4.5715,4.5715,4.5731,4.5727,4.5805,4.5852,4.5833,0.0,0.0,0.0,0.0,0.0,0.0,0.0,4.2882,4.2882,4.2882,4.3178,4.3336,4.3336,4.3689,4.4035,0.0,0.0,0.0,0.0,0.0,0.0,0.0,0.0,0.0,0.0,0.0,0.0,4.5752,4.58,0.0,0.0,0.0,0.0,0.0,0.0,4.6196,4.6203,4.6206,0.0,0.0,0.0,0.0,0.0,0.0,0.0,0.0,0.0,4.5956,4.5893,4.5893,4.5847,4.58,4.58,4.58,4.58,4.58,4.58,4.58,4.58,4.58,4.58,4.58,4.5791,4.5781,4.58,4.5738,4.5693,4.5693,4.5622,4.5568,4.5568,4.5531,4.5438,4.5201,4.5161,4.5096,4.4938,4.4825,4.4825,4.4872,4.48,4.4776,4.48,4.5052,4.5222,4.5201,4.5419,0.0,4.5568,4.5586,4.5586,4.5586,4.5586,4.5586,4.5586,4.5586,4.5586,4.5586,4.5657,4.5693,4.5693,4.5703,4.57,4.57,4.57,0.0,0.0,4.57,4.575,4.5781,4.5781,4.5791,4.5814,4.5941,4.5986,4.5997,0.0,0.0,0.0,0.0,0.0,0.0,4.2882,4.2882,4.2976,4.3178,4.3301,4.3557,4.3955,4.4125,4.4242,4.4402,0.0,0.0,0.0,0.0,0.0,0.0,0.0,0.0,0.0,0.0,4.5493,4.5677,4.5794,0.0,0.0,0.0,0.0,0.0,0.0,4.6196,4.6203,4.6203,0.0,0.0,0.0,0.0,0.0,0.0,0.0,0.0,0.0,0.0,4.5912,4.5906,4.586,4.58,4.58,4.58,4.58,4.58,4.58,4.58,4.58,4.58,4.58,4.58,4.58,4.5791,4.5795,4.5785,4.5754,4.5703,4.5687,4.5671,4.5657,4.5654,4.5618,4.5457,4.5457,4.5457,4.5342,4.5302,4.5302,4.5362,4.5222,4.5161,4.5323,4.5323,4.5362,4.5493,0.0,0.0,4.5651,4.5673,4.5673,4.5651,4.5651,4.5651,4.5651,4.5651,4.5651,4.5651,4.5687,4.5703,4.5703,4.57,4.57,4.57,4.5731,0.0,0.0,4.5776,4.5791,4.5805,4.5899,4.5917,4.5922,4.6036,4.6052,4.606,0.0,0.0,0.0,0.0,0.0,4.2882,4.2882,4.2882,4.3014,4.3371,4.3508,4.3786,4.4327,4.4484,4.4557,4.4557,4.4777,0.0,0.0,0.0,0.0,0.0,0.0,0.0,0.0,0.0,4.5545,4.5692,4.5835,4.5933,0.0,0.0,4.6138,4.6196,0.0,0.0,0.0,0.0,0.0,0.0,0.0,0.0,0.0,0.0,0.0,0.0,0.0,0.0,0.0,0.0,0.0,4.5833,4.5814,4.58,4.58,4.58,4.58,4.58,4.58,4.58,4.58,4.58,4.58,4.58,4.5791,4.5795,4.58,4.5731,4.5715,4.57,4.5706,4.5703,4.5684,4.5637,4.5673,4.569,4.5654,4.5637,4.5654,4.5706,4.5549,4.5493,4.5665,4.5526,4.549,4.5715,0.0,0.0,4.5731,4.5738,4.5722,4.57,4.57,4.57,4.57,4.57,4.57,4.57,4.5715,4.5731,4.5731,4.5731,4.5727,4.5727,0.0,0.0,0.0,4.5841,4.5867,4.5861,4.5988,4.6027,4.6036,4.6105,4.6131,4.6131,0.0,0.0,0.0,0.0,0.0,0.0,4.2882,4.2882,4.3014,4.3371,4.3689,4.4035,4.4355,4.4707,4.4895,4.4895,4.4895,0.0,0.0,0.0,0.0,0.0,0.0,0.0,0.0,0.0,4.5708,4.5905,4.5905,4.5975,4.6093,4.6093,4.6138,4.6196,0.0,0.0,0.0,0.0,0.0,0.0,0.0,0.0,0.0,0.0,0.0,0.0,0.0,0.0,0.0,0.0,0.0,0.0,0.0,4.58,4.58,4.58,4.58,4.58,4.58,4.58,4.58,4.58,4.58,4.58,4.58,4.5791,4.58,4.58,4.575,4.57,4.57,4.57,4.57,4.57,4.57,4.5715,4.58,4.5731,4.5715,4.5781,4.575,4.57,4.57,4.57,4.5715,4.5781,0.0,0.0,4.58,4.58,4.5765,4.57,4.57,4.57,4.57,4.57,4.57,4.57,4.5765,4.58,4.58,4.5805,4.58,0.0,0.0,0.0,0.0,4.5933,4.5997,4.6007,4.6068,4.6098,4.6105,4.6167,4.6202,4.6206,0.0,0.0,0.0,0.0,0.0,0.0,0.0,4.2882,4.3014,4.3371,4.3689,4.4035,4.4355,4.4707,4.4895,4.4895,4.4895,0.0,0.0,0.0,0.0,0.0,0.0,0.0,0.0,0.0,4.5708,4.5905,4.5953,4.6007,4.6093,4.6146,4.6189,4.6196,4.6196,4.6196,0.0,0.0,0.0,0.0,0.0,0.0,0.0,0.0,0.0,0.0,0.0,0.0,0.0,0.0,0.0,0.0,0.0,0.0,0.0,4.58,4.58,4.58,4.58,4.58,4.58,4.58,4.58,4.58,4.58,4.58,4.5805,4.5805,4.5771,4.5757,4.5765,4.5776,4.5757,4.5715,4.575,4.5765,4.575,4.5715,4.5715,4.5781,4.5776,4.5771,4.5771,0.0,4.5771,0.0,0.0,0.0,4.5805,4.5805,4.5786,4.5771,4.5771,4.5771,4.5771,4.5771,4.5771,4.5771,4.5786,4.5805,4.5805,4.58,0.0,0.0,0.0,0.0,0.0,4.5986,4.6027,4.6068,4.6142,4.6162,4.6186,4.6241,4.6267,4.6267,0.0,0.0,0.0,0.0,0.0,0.0,0.0,4.2882,4.3087,4.3523,4.3786,4.4065,4.4557,4.4777,4.4895,4.4895,4.4895,0.0,0.0,0.0,0.0,0.0,0.0,0.0,4.5677,4.5708,4.5794,4.5941,4.6007,4.6075,4.6138,4.6189,4.6196,4.6196,4.6196,4.6196,0.0,0.0,0.0,0.0,0.0,0.0,4.5997,0.0,0.0,0.0,0.0,0.0,0.0,0.0,0.0,0.0,0.0,0.0,0.0,0.0,4.58,4.58,4.58,4.58,4.58,4.58,4.58,4.58,4.58,4.58,4.58,4.58,4.58,4.58,4.5791,4.5805,4.5786,4.5742,4.5776,4.5776,4.5742,4.5727,4.5742,4.581,4.5786,4.58,0.0,4.58,0.0,0.0,0.0,0.0,4.58,4.58,4.58,4.58,4.58,4.58,4.58,4.58,4.58,4.58,4.58,4.58,4.58,4.58,0.0,0.0,0.0,0.0,0.0,4.6044,4.6098,4.6142,4.6209,4.6239,4.6241,4.6289,4.6308,4.6308,0.0,0.0,0.0,0.0,0.0,0.0,0.0,4.292,4.3178,4.3818,4.3912,4.4184,4.4802,4.4895,4.4895,4.4895,0.0,0.0,0.0,0.0,0.0,0.0,0.0,0.0,4.5794,4.588,4.5941,4.6007,4.6075,4.6138,4.6196,4.6196,4.6196,4.6196,4.6203,4.619,0.0,0.0,0.0,0.0,0.0,0.0,0.0,0.0,0.0,0.0,0.0,0.0,0.0,0.0,0.0,0.0,0.0,0.0,0.0,0.0,0.0,0.0,0.0,4.58,4.58,4.58,4.58,4.58,4.58,4.58,0.0,4.58,4.58,4.58,4.58,4.58,4.58,4.58,4.58,4.58,4.58,4.58,4.58,4.58,4.58,4.58,4.58,4.58,0.0,0.0,0.0,0.0,4.58,4.58,4.58,4.58,4.58,4.58,4.58,4.58,4.58,4.58,4.58,4.58,4.58,4.58,0.0,0.0,0.0,0.0,0.0,4.6147,4.6206,4.6209,4.6287,4.6308,4.6308,4.6308,4.6308,4.6308,0.0,0.0,0.0,0.0,0.0,0.0,0.0,0.0,0.0,0.0,4.4125,4.4327,4.4484,4.4751,4.4895,0.0,0.0,0.0,0.0,0.0,0.0,0.0,0.0,0.0,4.5861,4.5886,4.5964,4.6075,4.6093,4.6138,4.6196,4.6196,4.6196,4.6203,4.6201,4.6178,0.0,0.0,0.0,0.0,0.0,0.0,0.0,0.0,0.0,0.0,4.5997,4.5997,0.0,0.0,0.0,0.0,0.0,0.0,0.0,0.0,4.58,4.58,4.58,0.0,4.58,4.58,4.58,4.58,0.0,4.58,4.58,4.58,4.58,4.58,4.58,4.58,4.58,4.58,4.58,4.58,4.58,4.58,4.58,4.58,4.58,4.58,4.58,4.58,0.0,0.0,0.0,4.58,4.58,4.58,4.58,4.58,4.58,4.58,4.58,4.58,4.58,4.58,4.58,4.58,4.58,4.58,0.0,0.0,0.0,0.0,4.6153,4.6195,4.6237,4.6288,4.6289,4.6308,4.6308,4.6308,4.6308,4.6308,0.0,0.0,0.0,0.0,0.0,0.0,0.0,0.0,0.0,0.0,0.0,0.0,0.0,0.0,0.0,0.0,0.0,0.0,0.0,0.0,0.0,0.0,0.0,4.5752,4.5905,4.5941,4.5997,4.6093,4.6138,4.6154,4.6196,4.6196,4.6196,4.6196,4.6209,4.6178,0.0,0.0,0.0,0.0,4.5998,0.0,0.0,0.0,0.0,0.0,4.5997,4.5997,0.0,4.6005,4.5972,4.5949,0.0,0.0,0.0,0.0,4.58,4.58,4.58,4.58,4.58,4.58,4.58,4.58,4.58,4.58,4.58,4.58,4.58,4.58,4.58,4.5833,4.5847,4.5814,4.5833,4.5847,4.5814,4.58,4.58,4.58,4.58,4.58,0.0,0.0,0.0,0.0,0.0,4.58,4.58,4.58,4.58,4.58,4.58,4.58,4.58,4.58,4.58,4.58,4.58,4.5822,4.5886,4.5886,4.5956,0.0,0.0,0.0,4.6206,4.6237,4.6267,4.6308,4.6308,4.6308,4.6308,4.6308,4.6308,4.6308,0.0,0.0,0.0,0.0,0.0,0.0,0.0,0.0,0.0,0.0,0.0,0.0,0.0,0.0,0.0,0.0,0.0,0.0,0.0,0.0,0.0,0.0,4.5752,4.5854,4.5898,4.5986,4.6056,4.613,4.6162,4.6196,4.6196,4.6196,4.6203,4.619,4.619,4.6199,0.0,0.0,0.0,0.0,4.6036,0.0,0.0,0.0,0.0,0.0,0.0,0.0,0.0,4.6018,4.6017,4.6014,4.5953,0.0,0.0,0.0,0.0,0.0,4.5827,4.5827,4.5814,4.5814,4.58,4.58,4.58,4.58,4.58,4.58,4.58,4.58,4.5814,4.586,4.586,4.5814,4.586,4.586,4.5814,4.58,4.58,4.58,4.58,0.0,0.0,0.0,0.0,0.0,0.0,4.58,0.0,4.58,4.58,4.58,4.58,4.58,4.58,4.58,4.58,4.58,4.5827,4.5886,4.5997,4.6017,4.6063,0.0,0.0,0.0,4.6212,4.6287,4.6308,4.6308,4.6308,4.6308,4.6308,4.6308,4.6308,4.6308,0.0,0.0,0.0,0.0,0.0,0.0,0.0,0.0,0.0,0.0,0.0,0.0,0.0,0.0,0.0,0.0,0.0,0.0,0.0,0.0,0.0,4.5848,4.5861,4.5929,4.5986,4.6037,4.613,4.6189,4.6196,4.6196,4.6196,4.6196,4.6203,4.6197,4.6197,4.6195,4.6209,4.619,0.0,0.0,0.0,0.0,0.0,0.0,0.0,0.0,0.0,0.0,0.0,4.6131,4.6118,4.6091,4.6063,0.0,0.0,0.0,0.0,0.0,4.5873,4.5873,4.5861,4.5794,4.58,4.58,4.58,4.58,4.58,4.58,4.58,4.5814,4.586,4.5847,4.5827,4.588,4.5847,4.5814,4.58,4.58,4.58,4.58,0.0,4.58,0.0,0.0,0.0,0.0,0.0,0.0,0.0,4.58,4.58,4.58,4.58,4.58,4.58,4.58,4.58,4.58,4.5929,4.5986,4.6007,4.6072,4.6125,0.0,0.0,4.6237,4.6289,4.6308,4.6308,4.6308,4.6308,4.6308,4.6308,4.6308,4.6308,4.6308,0.0,0.0,0.0,0.0,0.0,0.0,0.0,0.0,0.0,0.0,0.0,0.0,0.0,0.0,0.0,0.0,0.0,0.0,0.0,0.0,4.5766,4.5886,4.5922,4.5986,4.6047,4.6084,4.6138,4.6196,4.6196,4.6196,4.6196,4.6196,4.6209,4.6206,4.6206,4.6214,4.6247,4.6229,4.619,0.0,0.0,0.0,0.0,0.0,0.0,0.0,0.0,0.0,0.0,0.0,4.6142,4.6142,4.6111,0.0,0.0,0.0,0.0,0.0,4.591,4.5944,4.5938,4.5917,4.5879,4.5848,4.5848,4.5848,4.5854,4.586,4.586,4.586,4.5893,4.5867,4.588,4.5944,4.5899,4.5848,4.5848,4.5848,4.5848,0.0,0.0,0.0,0.0,0.0,0.0,0.0,0.0,0.0,0.0,0.0,4.58,4.58,4.58,4.5822,4.5917,4.5917,4.5917,4.5917,4.5975,4.6036,4.6112,4.6142,4.6199,4.6245,0.0,4.6267,4.6308,4.6308,4.6308,4.6308,4.6308,4.6308,4.6308,4.6308,4.6308,4.6308,0.0,0.0,0.0,0.0,0.0,0.0,0.0,0.0,0.0,0.0,0.0,0.0,0.0,0.0,0.0,0.0,0.0,0.0,0.0,4.5737,4.5841,4.5929,4.5975,4.6027,4.6093,4.613,4.6146,4.6196,4.6196,4.6196,4.6196,4.6196,4.6203,4.6192,4.6196,4.624,4.6264,4.6212,4.6205,0.0,0.0,0.0,0.0,0.0,0.0,0.0,0.0,0.0,0.0,0.0,0.0,0.0,0.0,0.0,0.0,4.6053,4.6045,4.6029,4.5968,4.5998,4.6037,4.6016,4.5969,4.5958,4.5958,4.5958,4.5947,4.5929,4.5917,4.5917,4.5949,4.5953,4.5944,4.5972,4.5929,4.5905,4.5905,4.5905,4.5905,4.5905,0.0,0.0,0.0,0.0,0.0,0.0,0.0,0.0,0.0,0.0,4.5822,4.5861,4.5841,4.5902,4.6017,4.6017,4.6008,4.6018,4.6046,4.6098,4.6202,4.6212,4.6243,4.6308,4.6308,4.6308,4.6308,4.6308,4.6308,4.6308,4.6308,4.6308,4.6308,4.6308,4.6307,4.6306,0.0,0.0,0.0,0.0,0.0,0.0,0.0,0.0,0.0,0.0,0.0,0.0,0.0,0.0,0.0,0.0,0.0,0.0,0.0,4.578,4.5867,4.5986,4.5997,4.6027,4.6093,4.6154,4.6196,4.6196,4.6196,4.6196,4.6196,4.6196,4.6203,4.6203,4.6203,4.6203,4.6211,4.6192,4.6209,4.6191,4.6191,0.0,0.0,0.0,0.0,0.0,0.0,0.0,0.0,0.0,0.0,0.0,0.0,0.0,4.619,4.6189,4.6195,4.6167,4.6105,4.6137,4.6158,4.6036,4.6041,4.6098,4.6098,4.6098,4.6079,4.6005,4.5987,4.6016,4.6072,4.6099,4.6046,4.5941,4.5886,4.5905,4.5905,0.0,4.5905,0.0,0.0,0.0,0.0,0.0,0.0,0.0,0.0,0.0,4.5905,0.0,0.0,4.5978,4.5987,4.6029,4.6098,4.6078,4.6086,4.6091,4.6153,4.6199,4.6202,4.6265,4.6308,4.6308,4.6308,4.6308,4.6308,4.6308,4.6308,4.6308,4.6308,4.6308,4.6307,4.6307,4.6306,4.6301,0.0,0.0,0.0,0.0,0.0,0.0,0.0,0.0,0.0,0.0,0.0,0.0,0.0,0.0,0.0,0.0,0.0,0.0,0.0,4.5848,4.591,4.6066,4.6066,4.6093,4.6154,4.6189,4.6196,4.6196,4.6196,4.6196,4.6196,4.6196,4.6196,4.6196,4.6196,4.6196,4.6206,4.6206,4.6214,4.6258,4.6258,0.0,0.0,0.0,0.0,0.0,0.0,0.0,0.0,0.0,4.6243,4.6258,4.6258,4.6258,4.6243,4.621,4.6207,4.6184,4.6171,4.6189,4.6184,4.6144,4.6165,4.6209,4.6128,4.6099,4.6079,4.6066,4.6053,4.6072,4.6098,4.6076,4.6027,4.6026,4.5998,4.5964,4.5964,4.5964,4.5964,0.0,0.0,0.0,0.0,0.0,0.0,0.0,0.0,0.0,0.0,0.0,0.0,4.6053,4.6029,4.6047,4.617,4.615,4.6175,4.6225,4.62,4.6225,4.6269,4.6288,4.6306,4.6306,4.6306,4.6306,4.6306,4.6306,4.6306,4.6306,4.6306,4.6305,4.6305,4.6305,4.6301,4.6297,0.0,0.0,0.0,0.0,0.0,0.0,0.0,0.0,0.0,0.0,0.0,0.0,0.0,0.0,0.0,0.0,0.0,0.0,4.5905,4.5905,4.5964,4.6093,4.6093,4.6138,4.6196,4.6196,4.6196,4.6196,4.6196,4.6196,4.6196,4.6196,4.6196,4.6196,4.6203,4.6203,4.6206,4.6211,4.6264,4.63,4.63,4.63,0.0,0.0,0.0,0.0,0.0,0.0,0.0,0.0,4.6258,4.63,4.63,4.63,4.6287,4.6245,4.6228,4.6229,4.6204,4.6229,4.6229,4.621,4.6229,4.6247,4.614,4.6152,4.6163,4.6131,4.6131,4.6124,4.6099,4.6086,4.606,4.606,4.6027,4.5997,4.5997,4.5997,0.0,0.0,0.0,0.0,0.0,0.0,0.0,0.0,0.0,0.0,0.0,0.0,0.0,0.0,4.6094,4.6113,4.623,4.623,4.6249,4.6297,4.6249,4.6268,4.6301,4.6301,4.6301,4.6301,4.6301,4.6301,4.6301,4.6301,4.6301,4.6301,4.6301,4.6301,4.63,4.63,4.6295,4.6309,0.0,0.0,0.0,0.0,0.0,0.0,0.0,0.0,0.0,0.0,0.0,0.0,0.0,0.0,0.0,0.0,0.0,0.0,4.5905,4.5898,4.5964,4.6093,4.6093,4.6138,4.6196,4.6196,4.6196,4.6196,4.6196,4.6196,4.6196,4.6196,4.6196,4.6196,4.6196,4.6195,4.6206,4.626,4.6292,4.63,4.63,4.63,4.63,0.0,0.0,0.0,0.0,0.0,0.0,0.0,4.63,4.63,4.63,4.63,4.63,4.63,4.63,4.6287,4.6229,4.6243,4.6276,4.6219,4.6204,4.6191,4.6191,4.6243,4.627,4.621,4.6191,4.6187,4.6111,4.6153,4.6153,4.6018,4.6007,4.5997,4.5997,0.0,0.0,0.0,0.0,0.0,0.0,0.0,0.0,0.0,0.0,0.0,0.0,0.0,0.0,0.0,4.6191,4.6228,4.63,4.63,4.63,4.63,4.63,4.6309,4.6301,4.6301,4.6301,4.6301,4.6301,4.6301,4.6301,4.6301,4.6301,4.6301,4.6301,4.6297,4.6293,4.6293,4.6306,4.63,0.0,0.0,0.0,0.0,0.0,0.0,0.0,0.0,0.0,0.0,0.0,0.0,0.0,0.0,0.0,0.0,0.0,0.0,4.6049,4.6049,4.6076,4.6162,4.6177,4.6183,4.6196,4.6196,4.6196,4.6196,4.6196,4.6196,4.6196,4.6196,4.6203,4.6196,4.6203,4.624,4.626,4.6284,4.6292,4.63,4.63,4.63,4.63,0.0,0.0,0.0,0.0,0.0,0.0,0.0,0.0,0.0,4.63,4.63,4.63,4.63,4.63,4.6303,4.6273,4.629,4.6306,4.6282,4.6261,4.6276,4.6276,4.6243,4.6246,4.6258,4.6228,4.6211,4.6249,4.6223,4.6195,4.6147,4.6098,4.6044,4.6007,0.0,0.0,0.0,0.0,0.0,0.0,0.0,0.0,0.0,0.0,0.0,0.0,0.0,0.0,0.0,4.6229,4.6228,4.63,4.63,4.63,4.63,4.63,4.6303,4.6309,4.6309,4.6309,4.6309,4.6309,4.6309,4.6309,4.6309,4.6309,4.6309,4.6309,4.6306,4.6303,4.6303,4.6303,4.63,0.0,0.0,0.0,0.0,0.0,0.0,0.0,0.0,0.0,0.0,4.6099,4.6099,0.0,0.0,0.0,0.0,0.0,0.0,0.0,4.6094,4.6133,4.6197,4.6201,4.6206,4.6196,4.6196,4.6196,4.6196,4.6196,4.6196,4.6196,4.6196,4.6209,4.6203,4.6189,4.6245,4.6303,4.6308,4.6296,4.63,4.63,4.63,4.63,0.0,0.0,0.0,0.0,0.0,0.0,0.0,0.0,0.0,4.63,4.63,4.63,4.63,4.63,4.63,4.63,4.63,4.63,4.63,4.63,4.63,4.63,4.6276,4.6243,4.6284,4.6276,4.6245,4.6261,4.623,4.6198,4.6206,4.6162,0.0,0.0,0.0,0.0,0.0,0.0,0.0,0.0,0.0,0.0,0.0,0.0,0.0,0.0,0.0,0.0,0.0,4.6258,4.6261,4.63,4.63,4.63,4.63,4.63,4.63,4.63,4.63,4.63,4.63,4.63,4.63,4.63,4.63,4.63,4.63,4.63,4.63,4.63,4.63,4.63,4.63,0.0,0.0,0.0,0.0,0.0,0.0,0.0,0.0,0.0,0.0,4.6104,4.6108,0.0,0.0,0.0,0.0,0.0,0.0,0.0,4.6111,4.6136,4.6204,4.6202,4.6192,4.6209,4.6203,4.6196,4.6196,4.6196,4.6196,4.6196,4.6203,4.619,4.6209,4.6201,4.6236,4.6308,4.6296,4.63,4.63,4.63,4.63,4.63,4.63,0.0,0.0,0.0,0.0,0.0,0.0,0.0,0.0,4.63,4.63,4.63,4.63,4.63,4.63,4.63,4.63,4.63,4.63,4.63,4.63,4.63,4.63,4.63,4.63,4.63,4.627,4.6229,4.6211,4.621,4.6192,4.6209,0.0,0.0,0.0,0.0,0.0,0.0,0.0,0.0,0.0,0.0,0.0,0.0,0.0,0.0,0.0,0.0,4.63,4.63,4.63,4.63,4.63,4.63,0.0,4.63,4.63,4.63,4.63,4.63,4.63,4.63,4.63,4.63,4.63,4.63,4.63,4.63,4.63,4.63,4.63,4.63,4.63,0.0,0.0,0.0,0.0,0.0,0.0,0.0,0.0,0.0,0.0,0.0,0.0,0.0,0.0,0.0,0.0,0.0,0.0,0.0,4.6269,4.6249,4.6204,4.6202,4.6201,4.6197,4.6196,4.6196,4.6196,4.6196,4.6196,4.6196,4.619,4.6209,4.6201,4.6255,4.6288,4.6296,4.63,4.63,4.63,4.63,4.63,4.63,4.63,4.63,0.0,0.0,0.0,0.0,0.0,0.0,0.0,4.63,4.63,4.63,4.63,4.63,4.63,4.63,4.63,4.63,4.63,4.63,4.63,4.63,4.63,4.63,4.63,4.63,4.6303,4.627,4.6273,4.6261,4.621,0.0,0.0,0.0,0.0,0.0,0.0,0.0,0.0,0.0,0.0,0.0,0.0,0.0,0.0,4.63,0.0,0.0,4.63,4.63,4.63,4.63,4.63,4.63,0.0,4.63,4.63,4.63,4.63,4.63,4.63,4.63,4.63,4.63,4.63,4.63,4.63,4.63,4.63,4.63,4.63,4.63,4.63,0.0,0.0,0.0,0.0,0.0,0.0,0.0,0.0,0.0,0.0,0.0,0.0,0.0,0.0,0.0,0.0,0.0,0.0,0.0,0.0,4.6285,4.6249,4.6246,4.6234,4.6206,4.6206,4.6203,4.6196,4.6196,4.6196,4.6196,4.6196,4.6195,4.6206,4.6279,4.6292,4.63,4.63,4.63,4.63,4.63,4.63,4.63,4.63,4.63,4.63,4.63,0.0,0.0,0.0,0.0,0.0,0.0,0.0,4.63,4.63,4.63,4.63,4.63,4.63,4.63,4.63,4.63,4.63,4.63,4.63,4.63,4.63,4.63,4.63,4.63,4.63,4.6287,4.6243,0.0,0.0,0.0,0.0,0.0,0.0,0.0,0.0,0.0,0.0,0.0,0.0,0.0,4.63,4.63,4.63,4.63,4.63,4.63,4.63,4.63,4.63,4.63,4.63,4.63,4.63,4.63,4.63,4.63,4.63,4.63,4.63,4.63,4.63,4.63,4.63,4.63,4.63,4.63,4.63,4.63,4.63,0.0,0.0,0.0,0.0,0.0,0.0,0.0,0.0,0.0,0.0,0.0,0.0,0.0,0.0,0.0,0.0,0.0,0.0,0.0,0.0,0.0,4.6305,4.6288,4.6268,4.6199,4.6206,4.6201,4.6196,4.6203,4.6203,4.6203,4.6203,4.6215,4.6211,4.6284,4.6292,4.63,4.63,4.63,4.63,4.63,4.6296,4.6273,4.6296,4.6296,4.6273,4.63,4.63,4.63,4.63,0.0,0.0,0.0,0.0,4.63,4.63,4.63,4.63,4.63,4.63,4.6296,4.6296,4.6277,4.6277,4.6277,4.6277,4.6277,4.6277,4.63,4.63,4.63,4.63,4.63,4.63,0.0,0.0,0.0,0.0,0.0,0.0,0.0,0.0,0.0,0.0,0.0,0.0,0.0,4.63,4.63,4.63,4.63,4.63,4.63,4.63,4.63,4.63,4.63,4.63,4.63,4.63,4.63,4.63,4.63,4.63,4.63,4.63,4.63,4.63,4.63,4.63,4.63,4.63,4.63,4.63,4.63,4.63,0.0,0.0,0.0,0.0,0.0,0.0,0.0,0.0,0.0,0.0,4.5468,4.5578,0.0,0.0,0.0,0.0,0.0,0.0,4.63,0.0,0.0,4.6306,4.623,4.6205,4.6202,4.6192,4.6203,4.6196,4.6196,4.6203,4.6203,4.6195,4.6231,4.6284,4.6292,4.63,4.63,4.63,4.63,4.63,4.63,4.624,4.6138,4.6269,4.6236,4.6144,4.6269,4.63,4.63,4.63,4.63,0.0,0.0,0.0,4.63,4.63,4.63,4.63,4.63,4.6292,4.6284,4.6236,4.6211,4.6211,4.6211,4.6211,4.6211,4.6211,4.6269,4.63,4.63,4.63,4.63,0.0,0.0,0.0,0.0,0.0,0.0,0.0,0.0,0.0,0.0,0.0,0.0,0.0,4.63,4.63,4.63,4.63,4.63,4.63,4.63,4.63,4.63,4.63,4.63,4.63,4.63,4.63,4.63,4.63,4.63,4.63,4.63,4.63,4.63,4.63,4.63,4.63,4.63,4.63,4.63,4.63,4.63,4.63,0.0,0.0,0.0,0.0,0.0,0.0,0.0,0.0,0.0,0.0,0.0,4.5396,0.0,0.0,0.0,4.5978,4.6057,4.617,4.6296,4.63,4.63,4.63,4.6261,4.623,4.6204,4.6206,4.6197,4.6196,4.6203,4.6215,4.627,4.6255,4.626,4.6303,4.6296,4.63,4.63,4.63,4.63,4.63,4.6216,4.6144,4.6098,4.6091,4.6041,4.5996,4.6057,4.6084,4.6091,4.615,4.6181,4.6206,4.6273,0.0,0.0,0.0,4.63,4.63,4.6292,4.6264,4.6236,4.6211,4.6206,4.6206,4.6206,4.6206,4.6206,4.6206,4.6216,4.6245,4.6245,4.6245,4.6245,0.0,0.0,0.0,0.0,0.0,0.0,0.0,0.0,0.0,0.0,0.0,0.0,0.0,4.63,4.63,4.63,4.63,4.63,4.63,4.63,4.63,4.63,4.63,4.63,4.63,4.63,4.63,4.63,4.63,4.63,4.63,4.63,4.63,4.63,4.63,4.63,4.63,4.63,4.63,4.63,4.63,4.63,4.63,0.0,0.0,0.0,0.0,0.0,0.0,0.0,0.0,0.0,0.0,0.0,0.0,0.0,0.0,0.0,0.0,4.5996,4.6112,4.6296,4.63,4.63,4.63,4.6306,4.6265,4.6204,4.62,4.6202,4.6203,4.6209,4.6226,4.6303,4.6308,4.6308,4.6308,4.6296,4.63,4.63,4.63,4.6277,4.624,4.6118,4.6049,4.5978,4.5899,4.5847,4.5844,4.5878,4.5889,4.5899,4.6005,4.6049,4.6076,4.617,4.6206,0.0,0.0,0.0,4.617,4.6177,4.6144,4.6118,4.6151,4.6151,4.6157,4.6195,4.6195,4.6195,4.6195,4.6195,4.6195,4.6195,4.6201,4.6206,0.0,0.0,0.0,0.0,0.0,0.0,0.0,0.0,0.0,0.0,0.0,0.0,0.0,4.63,4.63,4.63,4.63,4.63,4.63,4.63,4.63,4.63,4.63,4.63,4.63,4.63,4.63,4.63,4.6296,4.6296,4.6296,4.63,4.63,4.63,4.63,4.63,4.63,4.63,4.63,4.63,4.63,4.63,4.63,0.0,0.0,0.0,0.0,0.0,0.0,0.0,0.0,0.0,0.0,0.0,0.0,4.5531,4.5603,4.5692,4.5878,4.591,4.6013,4.6277,4.63,4.63,4.63,4.63,0.0,4.6204,4.6206,4.6197,4.6203,4.6201,4.6231,4.6303,4.6296,4.63,4.63,4.63,4.63,4.63,4.63,4.6236,4.6105,4.6025,4.588,4.5728,4.5783,4.5731,4.563,4.5828,4.5863,4.5832,0.0,0.0,4.5917,4.5929,4.5919,4.5917,0.0,0.0,0.0,4.5835,4.5822,4.5847,4.5977,4.6017,4.6037,4.6162,4.6203,4.6203,4.6203,4.6203,4.6203,4.6203,4.6209,4.6206,0.0,0.0,0.0,0.0,0.0,0.0,0.0,0.0,0.0,0.0,0.0,0.0,0.0,4.63,4.63,4.63,4.63,4.63,4.63,4.63,4.63,4.63,4.63,4.63,4.63,4.63,4.63,4.63,4.6292,4.6303,4.6308,4.6296,4.63,4.63,4.63,4.63,4.63,4.63,4.63,4.63,4.63,4.63,4.63,0.0,0.0,0.0,0.0,0.0,0.0,0.0,0.0,0.0,0.0,0.0,0.0,0.0,4.5568,4.5629,4.5879,4.6027,4.6123,4.6228,4.6231,4.624,4.624,4.6278,4.6269,4.6204,4.6209,4.6206,4.6201,4.6231,4.6284,4.6296,4.63,4.63,4.63,4.63,4.63,4.63,4.63,4.6216,4.6091,4.5978,4.584,4.5703,4.5591,4.5507,4.5491,4.5541,0.0,0.0,0.0,0.0,0.0,0.0,4.5875,4.5852,4.5852,4.5828,4.579,4.5809,4.5764,4.575,4.579,4.5902,4.6007,4.6066,4.6138,4.6196,4.6196,4.6196,4.6196,4.6196,4.6209,4.6196,4.6196,0.0,0.0,0.0,0.0,0.0,0.0,0.0,0.0,0.0,0.0,0.0,0.0,0.0,4.624,4.624,4.624,4.624,4.624,4.624,4.624,4.624,4.624,4.624,4.624,4.624,4.624,4.624,4.6236,4.6236,4.6236,4.624,4.624,4.624,4.624,4.624,4.624,4.624,4.624,4.624,4.6288,4.6269,4.624,0.0,0.0,0.0,0.0,0.0,0.0,0.0,0.0,0.0,4.465,0.0,0.0,0.0,0.0,4.558,4.5829,4.6065,4.6196,4.6196,4.6203,4.6195,4.6195,4.6245,4.6248,4.6209,4.6217,4.6238,4.6236,4.6279,4.6292,4.63,4.63,4.63,4.63,4.63,4.63,4.63,4.6245,4.617,4.6033,4.5863,4.5728,4.5577,4.5438,4.538,4.538,0.0,0.0,0.0,0.0,0.0,0.0,0.0,4.5694,4.5665,4.563,4.5634,4.5623,4.5623,4.5607,4.5571,4.5615,4.5722,4.5854,4.5891,4.5958,4.6046,4.6111,4.6138,4.6146,4.6196,4.6196,4.6196,4.6196,0.0,0.0,0.0,0.0,0.0,0.0,0.0,0.0,0.0,0.0,0.0,0.0,0.0,0.0,4.6206,4.6206,4.6206,4.6206,4.6206,4.6206,4.6206,4.6206,4.6206,4.6206,4.6206,4.6206,4.6206,4.6201,4.6201,4.6201,4.6195,4.6201,4.6206,4.6206,4.6206,4.6206,4.6206,4.6206,4.6206,4.6255,4.6236,4.6206,0.0,0.0,0.0,0.0,0.0,0.0,0.0,0.0,4.4005,4.4538,0.0,0.0,0.0,0.0,0.0,4.5769,4.6047,4.6196,4.6196,4.6196,4.6196,4.6203,4.6201,4.6195,4.6209,4.6264,4.6303,4.6303,4.6303,4.6292,4.63,4.63,4.63,4.63,4.63,4.63,4.6296,4.617,4.6013,4.5889,4.5689,4.5524,4.54,4.5319,4.5297,0.0,4.5359,4.5378,0.0,4.538,0.0,0.0,0.0,4.54,4.5379,4.5317,4.5297,4.5297,0.0,0.0,0.0,4.5455,4.5509,4.5522,4.566,4.5703,4.5764,4.5956,4.5997,4.6027,4.6154,4.6189,4.6189,4.6189,0.0,0.0,0.0,0.0,0.0,0.0,0.0,0.0,0.0,0.0,0.0,0.0,4.6206,4.6206,4.6206,4.6206,4.6206,4.6206,4.6206,4.6206,4.6206,4.6206,4.6206,4.6206,4.6206,4.6206,4.6206,4.6189,4.6203,4.6203,4.6203,4.6196,4.6187,4.6206,4.6206,4.6206,4.6206,4.6206,4.6206,4.6206,4.6206,4.6187,0.0,0.0,0.0,0.0,0.0,4.3667,4.3771,4.3974,4.4192,0.0,0.0,0.0,4.5381,4.5526,4.5642,4.5708,4.5922,4.6066,4.6066,4.6093,4.6142,4.6195,4.6209,4.6229,4.6264,4.6287,4.6292,4.6303,4.6292,4.6296,4.63,4.63,4.63,4.63,4.63,4.6245,4.6144,4.6125,4.6013,4.5889,4.5689,4.5524,4.54,4.5319,0.0,0.0,0.0,4.5338,4.5378,0.0,4.5399,4.5379,0.0,4.5338,4.5317,4.5317,4.5297,4.5297,4.5297,0.0,0.0,0.0,0.0,0.0,4.5558,4.563,4.5717,4.5777,4.579,4.5803,4.584,4.584,4.584,4.584,0.0,0.0,0.0,0.0,0.0,0.0,0.0,0.0,0.0,0.0,0.0,0.0,4.619,4.619,4.619,4.619,4.619,4.619,4.619,4.619,4.619,4.619,4.619,4.619,4.619,4.619,4.619,4.6209,4.6203,4.6203,4.6203,4.6135,4.6054,4.615,4.619,4.619,4.619,4.619,4.6196,4.6209,4.613,4.6065,0.0,0.0,0.0,0.0,0.0,4.3463,4.3652,4.3814,4.4072,0.0,0.0,0.0,4.532,4.551,4.5629,4.57,4.5854,4.5964,4.5997,4.6047,4.6074,4.6103,4.6175,4.6226,4.6269,4.6293,4.6292,4.6292,4.6296,4.63,4.63,4.63,4.63,4.63,4.63,4.6236,4.6098,4.6041,4.5949,4.5847,4.5603,4.5473,4.54,4.5319,4.5297,0.0,0.0,0.0,4.5359,4.5359,4.5359,0.0,0.0,0.0,4.5297,4.5297,4.5297,4.5297,4.5297,4.5297,4.5297,4.5297,0.0,0.0,4.5419,4.5473,4.5539,0.0,4.5634,4.563,4.5689,4.5703,4.5703,4.5703,0.0,0.0,0.0,0.0,0.0,0.0,0.0,0.0,0.0,4.6196,4.6196,4.6196,4.6196,4.6196,4.6196,4.6196,4.6196,4.6196,4.6196,4.6196,4.6196,4.6196,4.6196,4.6196,4.6196,4.6162,4.613,4.613,4.6065,4.5988,4.5988,4.5947,4.5871,4.5958,4.5988,4.5988,4.5988,4.5988,4.5988,4.5988,4.5938,4.5871,0.0,0.0,4.1604,4.2115,4.2595,4.3032,4.3444,4.3513,4.3744,0.0,4.4457,4.4695,4.5235,4.5419,4.5549,4.57,4.5805,4.5912,4.5997,4.5997,4.6007,4.6018,4.6137,4.6206,4.6215,4.6265,4.63,4.63,4.63,4.63,4.63,4.63,4.63,4.6273,4.6273,4.6206,4.6068,4.5949,4.5847,4.5757,4.5493,4.54,4.5381,0.0,4.5297,4.5297,4.5297,4.5297,4.5297,4.5297,4.5297,0.0,0.0,0.0,0.0,0.0,4.5297,4.5297,4.5297,4.5297,4.5297,4.5297,0.0,0.0,4.5297,4.5297,4.5339,0.0,4.5473,4.5507,4.563,4.566,4.566,4.566,4.5675,0.0,0.0,0.0,0.0,0.0,0.0,0.0,4.6135,4.6135,4.6135,4.6135,4.6162,4.6189,4.6196,4.6196,4.6196,4.6196,4.6196,4.6196,4.6196,4.6189,4.6189,4.6189,4.6154,4.6074,4.5966,4.5966,4.5859,4.5703,4.5703,4.5703,4.5675,4.5675,4.5689,4.5703,4.5703,4.5703,4.5703,4.5703,4.5689,4.5675,0.0,4.0542,4.1393,4.2074,4.2498,4.2902,4.341,4.3749,4.403,4.4374,4.4814,4.5173,4.5297,4.5321,4.5438,4.5684,4.5723,4.5802,4.5997,4.5997,4.6054,4.6153,4.6195,4.6223,4.628,4.6287,4.63,4.63,4.63,4.63,4.63,4.63,4.6245,4.6138,4.6138,4.6024,4.5861,4.5835,4.5723,4.5547,4.5438,4.54,4.5399,4.5338,4.5297,4.5297,4.5297,4.5297,4.5297,4.5297,4.5297,4.5297,0.0,0.0,0.0,4.5297,0.0,0.0,0.0,0.0,0.0,0.0,0.0,0.0,4.5297,4.5297,4.5317,0.0,4.5339,4.5341,4.5361,4.5361,4.5361,4.5361,4.5473,0.0,0.0,0.0,0.0,0.0,0.0,0.0,4.5803,4.5803,4.5803,4.5803,4.5947,4.6084,4.6196,4.6196,4.6196,4.6196,4.6196,4.6196,4.6196,4.6093,4.6027,4.6027,4.5883,4.577,4.5764,4.5764,4.5731,4.5703,4.5703,4.563,4.5541,4.5541,4.5584,4.5703,4.5703,4.5703,4.5703,4.5703,4.563,4.5541,3.9969,4.0861,4.1604,4.2008,4.2537,4.3032,4.3304,4.3513,4.3744,4.4192,4.4758,4.5103,4.5103,4.5087,4.5222,4.5526,4.5594,4.5699,4.5983,4.5997,4.6026,4.6147,4.6171,4.6223,4.6243,4.629,4.63,4.63,4.63,4.63,4.63,4.63,4.6216,4.6045,4.6098,4.5979,4.5752,4.58,4.5661,4.5438,4.5419,0.0,4.5398,4.5317,4.5297,4.5297,4.5297,4.5297,4.5297,4.5297,4.5297,0.0,0.0,4.5297,4.5297,0.0,4.5297,4.5297,0.0,0.0,0.0,4.5297,0.0,0.0,0.0,4.5297,4.5297,4.5275,4.5254,4.5235,4.5192,4.5192,4.5192,4.5192,4.5281,0.0,0.0,0.0,0.0,0.0,0.0,0.0,4.5703,4.5703,4.5731,4.5847,4.5944,4.6066,4.6196,4.6196,4.6162,4.6102,4.6093,4.6056,4.5938,4.5883,4.5847,4.5847,4.5744,4.566,4.5603,4.5603,4.5555,4.549,4.549,4.5455,4.54,4.54,4.5438,4.549,4.549,4.549,4.549,4.549,4.5455,4.54,4.0087,4.1019,4.1753,4.1881,4.2555,4.3087,4.316,4.3232,4.3495,4.4109,4.4655,4.4991,4.4991,4.4995,4.5137,4.5472,4.5522,4.5665,4.5972,4.6007,4.6054,4.6118,4.6167,4.6219,4.6229,4.6276,4.63,4.63,4.63,4.63,4.63,4.63,4.6187,4.5974,4.6049,4.5919,4.5673,4.5723,4.5613,4.54,0.0,4.538,4.5359,4.5317,4.5297,4.5297,4.5297,4.5297,4.5297,4.5297,4.5297,4.5297,4.5297,4.5297,0.0,0.0,0.0,0.0,0.0,0.0,0.0,0.0,0.0,4.5275,0.0,0.0,0.0,4.5192,4.517,4.517,4.5125,4.5103,0.0,0.0,0.0,0.0,0.0,0.0,0.0,0.0,0.0,0.0,0.0,4.5615,4.5708,4.5879,4.5891,4.5966,4.6111,4.6091,4.6056,4.5956,4.5944,4.5859,4.5703,4.5675,4.566,4.566,4.563,4.5571,4.5455,4.5455,4.54,4.5297,4.5297,4.5297,4.5297,4.5297,4.5297,4.5297,4.5297,4.5297,4.5297,4.5297,4.5297,4.5297,3.9489,4.0285,4.1111,4.1796,4.2216,4.2634,4.3123,4.3391,4.3777,4.4393,4.491,4.5262,4.5262,4.5304,4.549,4.58,4.5738,4.5769,4.5986,4.6063,4.6118,4.6195,4.6199,4.6226,4.6287,4.6303,4.63,4.63,4.63,4.63,4.63,4.63,4.615,4.592,4.5908,4.5815,4.562,4.5549,4.5475,4.54,4.54,4.5361,0.0,4.5297,4.5297,4.5297,4.5297,4.5297,4.5297,0.0,4.5297,4.5297,0.0,4.5297,4.5297,4.5297,0.0,0.0,0.0,0.0,0.0,0.0,4.5213,0.0,0.0,0.0,4.5125,4.5125,0.0,4.5125,4.5103,0.0,0.0,0.0,0.0,0.0,0.0,0.0,0.0,0.0,0.0,0.0,0.0,4.536,4.54,4.5541,4.5558,4.5619,4.5744,4.5757,4.5744,4.5731,4.5731,4.5717,4.5703,4.5587,4.5524,4.5524,4.54,4.5339,4.5319,4.5319,4.5298,4.5297,4.5297,4.5297,4.5297,4.5297,4.5297,4.5297,4.5297,4.5297,4.5297,4.5297,4.5297,4.5297,4.0186,4.0767,4.141,4.1948,4.2436,4.2826,4.3214,4.3612,4.3968,4.4229,4.4602,4.4833,4.4833,4.4985,4.5185,4.547,0.0,4.5762,0.0,0.0,4.6118,4.6132,4.6136,4.6186,4.6303,4.63,4.63,4.63,4.63,4.63,4.63,4.63,4.6164,4.5897,4.5906,4.5742,4.5495,4.5438,4.5419,0.0,0.0,4.536,0.0,4.5297,4.5297,4.5297,4.5297,4.5297,4.5297,0.0,4.5297,0.0,0.0,0.0,0.0,0.0,0.0,0.0,0.0,0.0,0.0,0.0,0.0,0.0,4.5061,0.0,4.5103,0.0,0.0,0.0,0.0,0.0,0.0,0.0,4.5033,0.0,0.0,0.0,0.0,0.0,0.0,0.0,0.0,0.0,0.0,0.0,4.5472,4.5522,4.5703,4.5703,4.566,4.5587,4.5587,4.5558,4.5473,4.54,4.5381,4.5381,4.5319,4.5297,4.5297,4.5297,4.5297,4.5297,4.5297,4.5297,4.5297,4.5297,4.5297,4.5297,4.5297,4.5297,4.5297,4.5297,4.5297,4.5297,4.1157,4.1455,4.1803,4.2157,4.2595,4.3032,4.3373,4.3791,4.414,4.4199,4.443,4.4621,4.4681,4.4896,0.0,4.5428,4.5667,4.5862,0.0,0.0,4.6138,0.0,0.0,0.0,0.0,4.63,4.63,4.63,4.63,4.63,4.63,4.6269,4.6125,4.5906,4.5871,4.5699,4.5419,4.5419,4.54,4.5398,4.5398,4.5359,4.5297,4.5297,4.5297,4.5297,4.5297,4.5297,4.5297,4.5297,4.5297,0.0,4.5213,0.0,0.0,0.0,0.0,0.0,4.5254,0.0,0.0,0.0,0.0,0.0,0.0,0.0,0.0,0.0,0.0,0.0,0.0,0.0,4.4895,4.4895,0.0,4.4967,0.0,0.0,0.0,0.0,0.0,0.0,0.0,0.0,0.0,0.0,0.0,0.0,4.5587,4.5587,4.5558,4.5456,4.5456,4.54,4.5297,4.5297,4.5297,4.5297,4.5297,4.5297,4.5297,4.5297,4.5297,4.5297,4.5297,4.5297,4.5297,4.5297,4.5297,4.5297,4.5297,4.5297,4.5297,4.5297,4.5297,4.5297,4.199,4.2157,4.2157,4.2216,4.2595,4.3069,4.3612,4.3905,4.4199,4.444,4.4714,4.4966,0.0,0.0,0.0,0.0,0.0,4.6128,4.6199,0.0,4.6191,0.0,0.0,4.6228,0.0,4.63,4.63,4.63,4.63,4.63,4.63,4.6176,4.6041,4.5899,4.5764,4.5645,4.5495,4.5419,4.54,4.5398,4.5398,4.5359,4.5297,0.0,4.5297,4.5297,4.5297,0.0,0.0,4.5297,4.5297,0.0,0.0,0.0,0.0,0.0,0.0,0.0,0.0,0.0,0.0,4.5014,0.0,0.0,0.0,0.0,4.4914,0.0,0.0,0.0,0.0,4.4895,4.4895,4.4895,4.4895,0.0,0.0,0.0,0.0,0.0,0.0,0.0,0.0,0.0,0.0,0.0,0.0,0.0,4.5298,4.5298,4.5298,4.5317,4.5317,4.5298,4.5297,4.5297,4.5297,4.5297,4.5297,4.5297,4.5297,4.5297,4.5297,4.5297,4.5297,4.5297,4.5297,4.5297,4.5297,4.5297,4.5297,4.5297,4.5297,4.5297,4.5297,4.5297,4.1701,4.2169,4.2494,4.2634,4.2806,4.3087,4.3612,4.4079,4.4458,0.0,4.4843,0.0,0.0,4.551,4.5718,0.0,0.0,4.6156,4.6136,4.6182,0.0,0.0,0.0,4.6229,0.0,4.63,4.63,4.63,4.63,4.63,4.63,4.615,4.6041,4.5899,4.575,4.5594,4.5419,4.5419,4.536,0.0,0.0,4.5317,4.5297,0.0,0.0,4.5297,4.5297,4.5297,0.0,4.5297,4.5275,4.5213,4.5148,4.5148,4.5125,4.5038,4.508,0.0,0.0,0.0,4.4695,4.4669,0.0,0.0,0.0,0.0,0.0,0.0,0.0,0.0,0.0,0.0,4.4895,4.4895,4.4895,4.4895,0.0,0.0,0.0,0.0,0.0,0.0,0.0,0.0,0.0,0.0,4.5192,0.0,0.0,4.5297,4.5297,4.5297,4.5297,4.5297,4.5297,4.5297,4.5297,4.5297,4.5297,4.5297,4.5297,4.5297,4.5297,4.5297,4.5297,4.5297,4.5297,4.5297,4.5297,4.5297,4.5297,4.5297,4.5297,4.5297,4.5297,4.5297,4.1762,4.2205,4.257,4.2747,4.3032,0.0,0.0,0.0,0.0,0.0,4.4988,0.0,4.5379,0.0,4.5731,0.0,4.6062,4.619,4.6166,4.6211,0.0,4.6249,4.6249,0.0,0.0,4.6253,4.6253,4.6192,4.6253,4.6273,4.6236,4.6098,4.5959,4.582,4.5699,4.5582,4.54,4.54,4.536,0.0,0.0,4.5297,0.0,0.0,4.5297,4.5297,0.0,4.5297,4.5277,4.5173,4.5087,4.4995,4.4833,4.4758,4.4714,4.4636,4.4714,4.4764,4.4447,4.4411,0.0,4.4327,4.4252,0.0,4.4655,0.0,0.0,0.0,0.0,0.0,0.0,0.0,4.4707,4.4707,4.4827,4.4895,0.0,4.4895,0.0,0.0,0.0,0.0,0.0,0.0,0.0,4.5192,4.517,4.5192,0.0,0.0,4.5297,4.5297,4.5297,4.5297,4.5297,4.5297,4.5297,4.5297,4.5297,4.5297,4.5297,4.5297,4.5297,4.5297,4.5297,4.5297,4.5297,4.5297,4.5297,4.5297,4.5297,4.5297,4.5297,4.5297,4.5297,4.5297,4.2163,4.2287,4.2369,0.0,4.3196,0.0,0.0,0.0,4.4896,0.0,4.5165,4.5398,4.5603,4.5686,4.5822,4.6084,4.6166,4.6228,4.6303,4.63,0.0,0.0,4.63,4.6216,4.599,0.0,0.0,4.599,4.6192,4.6216,4.6098,4.5969,4.584,4.5703,4.5635,4.5533,4.5418,4.54,4.5361,4.5297,4.5297,4.5297,4.5297,4.5297,4.5297,4.5297,4.5297,4.5297,4.5235,4.4891,4.4726,4.4617,4.4289,4.4095,4.3986,4.3912,4.4125,4.4299,4.3974,4.4125,4.4299,4.3974,0.0,0.0,0.0,0.0,4.4374,0.0,0.0,0.0,0.0,0.0,0.0,4.4383,4.4681,4.4895,4.4895,0.0,0.0,0.0,0.0,0.0,0.0,0.0,4.4991,4.517,4.5148,4.517,0.0,0.0,4.5297,4.5297,4.5297,4.5297,4.5297,4.5297,4.5297,4.5297,4.5297,4.5297,4.5297,4.5297,4.5297,4.5297,4.5297,4.5297,4.5297,4.5297,4.5297,4.5297,4.5297,4.5297,4.5297,4.5297,4.5297,4.5297,4.1675,4.1892,4.221,0.0,4.3213,4.3575,0.0,0.0,0.0,0.0,4.5398,4.5615,4.5879,4.6002,4.6094,4.6179,4.623,0.0,0.0,0.0,0.0,4.63,4.63,4.6216,4.599,4.6192,0.0,4.599,4.6112,4.6138,4.6098,4.5906,4.5789,4.5703,4.5635,4.5533,4.5418,4.54,4.5361,4.5297,4.5297,4.5297,0.0,0.0,4.5151,4.4957,4.5194,4.5132,4.491,4.477,4.4565,4.4289,4.4125,4.3986,4.3924,4.3912,4.3974,4.3974,4.3623,4.3786,4.3943,4.3623,4.3721,4.3912,0.0,0.0,0.0,0.0,0.0,0.0,0.0,0.0,0.0,4.4383,4.4681,4.4895,0.0,0.0,0.0,4.4895,0.0,0.0,0.0,4.4991,4.508,4.5125,4.5148,4.5192,0.0,0.0,0.0,4.5233,4.5256,4.5297,4.5297,4.5297,4.5297,4.5297,4.5297,4.5297,4.5297,4.5297,4.5297,4.5297,4.5297,4.5297,4.5297,4.5297,4.5297,4.5297,4.5297,4.5297,4.5297,4.5297,4.5297,4.5297,4.1675,4.2002,0.0,4.3087,0.0,0.0,4.4165,0.0,0.0,4.5399,4.5638,0.0,4.5975,4.6118,4.6202,4.6202,4.6268,0.0,4.63,0.0,0.0,4.63,4.63,4.6181,4.592,4.6086,0.0,4.5817,0.0,4.5998,4.5978,4.5829,4.5688,4.556,4.5566,4.5477,4.5359,4.536,4.532,4.5297,4.5297,0.0,0.0,4.5087,4.4887,4.465,4.4838,4.4789,4.4546,4.4383,4.4106,4.3849,4.3675,4.3542,4.3456,4.3456,4.3557,4.359,4.3266,4.344,4.359,4.3284,4.3336,4.349,4.3656,4.3689,4.3689,0.0,0.0,0.0,0.0,0.0,0.0,4.4584,0.0,0.0,0.0,0.0,0.0,0.0,4.4662,0.0,0.0,4.5014,4.5103,4.5103,4.5148,0.0,0.0,0.0,0.0,4.5148,4.5192,4.5233,4.5254,4.5275,4.5275,4.5297,4.5297,4.5297,4.5297,4.5297,4.5297,4.5297,4.5297,4.5297,4.5297,4.5297,4.5297,4.5297,4.5297,4.5297,4.5297,4.5297,4.5297,4.5297,4.2026,4.2418,0.0,0.0,0.0,0.0,0.0,4.4916,0.0,4.5577,0.0,4.6003,4.6003,4.6112,4.6202,4.6202,0.0,4.63,4.63,4.63,4.63,4.63,4.6277,4.6131,4.582,4.592,4.5869,0.0,0.0,4.5854,4.58,4.5703,4.5577,4.54,4.5457,4.5419,4.5317,4.5297,4.5297,4.5297,4.5256,4.5045,4.48,4.4751,4.4572,4.4346,4.4346,4.4289,4.4173,4.3868,4.3642,4.3387,4.3142,4.2994,4.2882,4.2882,4.3124,4.3266,4.2995,4.3105,4.3266,4.2976,4.2882,4.2995,4.3284,4.3336,4.3336,4.3336,4.3336,0.0,0.0,0.0,0.0,0.0,0.0,0.0,0.0,0.0,0.0,0.0,0.0,0.0,0.0,0.0,4.4972,4.5014,4.4972,0.0,0.0,0.0,0.0,4.5103,4.5103,0.0,4.5192,0.0,4.5213,4.5256,4.5256,4.5256,4.5256,4.5256,4.5256,4.5256,4.5256,4.5256,4.5256,4.5256,4.5256,4.5256,4.5256,4.5275,4.5297,4.5297,4.5256,4.5235,4.2792,0.0,0.0,0.0,0.0,4.4376,4.496,4.5323,4.556,4.5587,4.5835,4.6003,4.5986,4.6118,4.6202,4.6202,4.6268,0.0,0.0,0.0,0.0,4.63,4.6187,4.6041,4.5801,4.5886,4.5808,0.0,0.0,4.5761,4.58,4.5632,4.5494,4.54,4.5419,4.54,4.5378,4.5317,0.0,4.5275,4.5,4.4843,4.4776,4.4546,4.4289,4.4079,4.4079,4.3999,4.3868,4.3758,4.3477,4.3142,4.2975,4.2938,4.2882,4.2882,4.2957,4.2976,4.292,4.2957,4.2976,4.292,4.2882,4.292,4.2976,4.2995,4.2995,4.2995,4.2995,4.2957,4.292,0.0,0.0,0.0,0.0,0.0,0.0,0.0,0.0,0.0,0.0,4.4016,0.0,0.0,0.0,0.0,0.0,0.0,0.0,0.0,0.0,0.0,4.508,0.0,0.0,0.0,4.5125,4.5148,4.5148,4.5148,4.5148,4.5148,4.5148,4.5148,4.5148,4.5148,4.5148,4.5148,4.5148,4.5148,4.5148,4.517,4.5213,4.5213,4.5087,4.4934,4.3318,0.0,0.0,0.0,0.0,0.0,0.0,4.5638,0.0,4.5756,4.5893,4.6003,4.5994,4.6118,4.6202,4.6202,4.6268,4.63,4.63,4.63,4.63,4.63,4.615,0.0,4.5801,4.5725,4.563,4.5509,0.0,0.0,4.5648,4.5513,4.5419,4.54,4.5361,4.536,0.0,0.0,0.0,4.5023,4.4701,4.4493,4.4374,4.425,4.3999,4.3749,4.3749,4.3631,4.3477,4.3442,4.325,4.2994,4.2938,4.2882,4.2882,4.2882,4.2882,4.2882,4.2882,4.2882,4.2882,4.2882,4.2882,4.2882,4.2882,4.2882,4.2882,4.2882,4.2882,4.2957,4.3124,4.3301,0.0,0.0,0.0,0.0,0.0,0.0,0.0,0.0,0.0,0.0,0.0,0.0,0.0,0.0,0.0,0.0,0.0,0.0,0.0,0.0,0.0,0.0,0.0,0.0,0.0,4.5103,4.4929,4.4929,4.5103,4.5103,4.5103,4.5103,4.5103,4.5103,4.5103,4.4905,4.4745,4.4572,4.4572,4.4643,4.4739,4.4739,4.4669,4.4624,0.0,4.4243,0.0,0.0,4.5207,0.0,4.5619,4.5841,4.6005,4.5929,4.5972,4.6014,4.6016,4.6118,4.6206,4.6192,4.6267,4.63,4.63,4.63,4.6296,4.6269,4.6079,4.5911,4.5751,4.5584,4.5454,0.0,0.0,0.0,0.0,4.5419,4.5398,0.0,0.0,0.0,0.0,0.0,4.4751,4.4676,4.4411,4.421,4.4005,4.391,4.3716,4.3463,4.3463,4.3358,4.3178,4.3178,4.305,4.2882,4.2882,4.2882,4.2882,4.2882,4.2882,4.2882,4.2882,4.2882,4.2882,4.2882,4.2882,4.2882,4.2882,4.2882,4.2882,4.2882,4.2882,4.2995,4.3249,4.3301,0.0,0.0,0.0,0.0,0.0,0.0,0.0,0.0,0.0,0.0,4.3623,0.0,0.0,0.0,0.0,0.0,0.0,0.0,0.0,0.0,0.0,4.4707,4.4758,0.0,4.4565,0.0,4.4695,4.472,4.5057,4.4972,4.4948,4.4948,4.4881,4.4857,4.4814,4.4572,4.4308,4.4058,4.4058,4.4136,4.4231,4.4231,4.4242,4.427,0.0,0.0,0.0,0.0,0.0,0.0,0.0,4.5919,4.6072,4.5994,4.5994,4.6018,4.6076,4.6153,4.6195,4.6191,4.6261,4.63,4.63,4.63,4.6245,4.6112,4.5988,4.5815,4.5615,4.5494,4.5399,0.0,0.0,0.0,0.0,0.0,0.0,0.0,0.0,0.0,0.0,4.4819,4.465,4.4411,4.4151,4.4017,4.3974,4.3649,4.3497,4.3429,4.3429,4.3287,4.3104,4.3104,4.2994,4.2882,4.2882,4.2882,4.2882,4.2882,4.2882,4.2882,4.2882,4.2882,4.2882,4.2882,4.2882,4.2882,4.2882,4.2882,4.2882,4.2882,4.2882,4.292,4.2957,4.2957,4.2957,0.0,0.0,0.0,0.0,0.0,4.2957,4.2995,0.0,0.0,0.0,4.292,0.0,0.0,0.0,0.0,0.0,0.0,0.0,4.4004,0.0,4.4004,4.4004,4.3974,0.0,4.4457,4.4438,4.461,4.4895,4.461,4.4484,4.4457,4.4136,4.3986,4.4004,4.3974,4.3943,4.3912,4.3912,4.3955,4.4016,4.4016,4.3912,4.3772,0.0,0.0,0.0,0.0,0.0,0.0,0.0,4.6086,4.6147,4.6118,4.6118,4.6131,4.6153,4.6173,4.6208,4.6191,4.6258,4.6296,4.6292,4.6296,4.6216,4.6049,4.5899,4.5757,4.5533,4.5419,4.5359,0.0,0.0,0.0,0.0,0.0,0.0,0.0,0.0,4.4934,4.4776,4.4624,4.4402,4.4151,4.3828,4.3716,4.3682,4.3516,4.3411,4.3394,4.3305,4.3196,4.3104,4.3104,4.2994,4.2882,4.2882,4.2882,4.2882,4.2882,4.2882,4.2882,4.2882,4.2882,4.2882,4.2882,4.2882,4.2882,4.2882,4.2882,4.2882,4.2882,4.2882,4.2882,4.2882,4.2882,4.2882,0.0,0.0,0.0,0.0,0.0,0.0,0.0,0.0,4.2882,0.0,0.0,0.0,0.0,0.0,0.0,0.0,0.0,0.0,4.3881,0.0,4.3912,4.3912,4.3689,4.3786,4.4095,4.3893,4.3974,4.4289,4.4154,4.4095,4.4095,4.3974,4.3786,4.359,4.359,4.3456,4.3301,4.3301,4.3355,4.3477,4.3477,4.3442,4.3391,4.543,0.0,4.5754,0.0,4.5988,4.6136,4.6167,4.6192,4.6198,4.6198,4.6223,4.6225,4.6198,4.6208,4.6211,4.6229,4.6273,4.6292,4.6303,4.6236,4.6138,4.594,4.5789,0.0,4.547,4.5341,4.5317,4.5359,4.5317,0.0,0.0,0.0,0.0,0.0,4.4819,4.4676,4.465,4.4402,4.4121,4.3846,4.3582,4.3497,4.3481,4.3429,4.3359,4.3287,4.3178,4.3105,4.3049,4.3049,4.2994,4.2882,4.2882,4.2882,4.2882,4.2882,4.2882,4.2882,4.2882,4.2882,4.2882,4.2882,4.2882,4.2882,4.2882,4.2882,4.2882,4.2882,4.2882,4.2882,4.2882,4.2882,4.2882,4.2882,0.0,0.0,0.0,0.0,0.0,0.0,4.2882,4.2882,4.2882,4.2882,0.0,0.0,0.0,0.0,0.0,0.0,0.0,0.0,0.0,0.0,0.0,4.3371,4.344,4.3754,4.3523,4.359,4.3912,4.3786,4.3689,4.359,4.359,4.3456,4.3231,4.3231,4.3105,4.2882,4.2882,4.2938,4.3049,4.3049,4.3068,4.3123,4.5753,4.5806,4.5852,4.6049,4.615,4.6186,4.6117,4.6169,4.6191,4.6191,4.6256,4.6267,4.6211,4.6191,4.6229,4.6284,4.6292,4.6303,4.6303,4.6118,4.594,0.0,0.0,4.5472,4.5399,4.5338,4.5297,4.5297,0.0,0.0,4.5297,0.0,4.4819,4.4776,4.4519,4.4383,4.4402,4.4121,4.3814,4.3532,4.3497,4.3463,4.3394,4.3394,4.3287,4.3104,4.3104,4.3012,4.2882,4.2882,4.2882,4.2882,4.2882,4.2882,4.2882,4.2882,4.2882,4.2882,4.2882,4.2882,4.2882,4.2882,4.2882,4.2882,4.2882,4.2882,4.2882,4.2882,4.2882,4.2882,4.2882,4.2882,4.2882,4.2882,0.0,0.0,0.0,0.0,0.0,0.0,4.2882,4.2882,4.2882,0.0,0.0,0.0,0.0,0.0,0.0,0.0,0.0,4.292,4.292,0.0,4.292,4.292,4.3087,4.3406,4.3406,4.359,4.3881,4.3557,4.3249,4.292,4.292,4.292,4.292,4.292,4.2882,4.2882,4.2882,4.2882,4.2882,4.2882,4.2882,4.2882,4.5987,4.6044,4.6093,4.6152,4.6228,4.6241,4.6175,4.6231,4.6248,4.6202,4.6225,4.6187,4.6072,4.6191,4.6284,0.0,4.6308,4.6245,0.0,4.6052,4.5889,4.5619,4.5517,4.5454,4.5338,4.5317,4.5297,4.5297,0.0,0.0,0.0,4.4484,4.4346,4.4519,4.425,4.4121,4.4121,4.4036,4.3814,4.3497,4.3446,4.3411,4.3394,4.3251,4.3141,4.3104,4.2994,4.2938,4.2882,4.2882,4.2882,4.2882,4.2882,4.2882,4.2882,4.2882,4.2882,4.2882,4.2882,4.2882,4.2882,4.2882,4.2882,4.2882,4.2882,4.2882,4.2882,4.2882,4.2882,4.2882,4.2882,4.2882,4.2882,4.2882,4.2882,0.0,0.0,0.0,0.0,0.0,4.2882,4.2882,0.0,4.2882,0.0,0.0,0.0,0.0,0.0,0.0,0.0,0.0,4.2882,0.0,4.2882,4.2882,4.2957,4.305,4.305,4.3124,4.3213,4.3124,4.2976,4.2882,4.2882,4.2882,4.2882,4.2882,4.2882,4.2882,4.2882,4.2882,4.2882,4.2882,4.2882,4.2882,4.6148,4.6178,4.6206,4.6206,4.623,4.6226,4.6151,4.6157,4.6157,4.6057,4.6041,4.6024,4.593,4.6044,0.0,4.6111,4.617,4.6115,4.5947,4.5844,4.5731,4.5507,4.5454,4.54,4.5297,0.0,0.0,4.5297,4.5173,4.4934,4.465,4.4192,4.4109,4.425,4.3923,4.3846,4.3905,4.3763,4.3582,4.3375,4.3322,4.3305,4.3287,4.3141,4.3067,4.2994,4.2938,4.2882,4.2882,4.2882,4.2882,4.2882,4.2882,4.2882,4.2882,4.2882,4.2882,4.2882,4.2882,4.2882,4.2882,4.2882,4.2882,4.2882,4.2882,4.2882,4.2882,4.2882,4.2882,4.2882,4.2882,4.2882,4.2882,4.2882,4.2882,4.2882,4.2882,0.0,0.0,0.0,0.0,0.0,0.0,4.2882,0.0,0.0,0.0,0.0,0.0,0.0,0.0,4.2882,4.2882,0.0,4.2882,4.2882,4.2882,4.2882,4.2882,4.2882,4.2882,4.2882,4.2882,4.2882,4.2882,4.2882,4.2882,4.2882,4.2882,4.2882,4.2882,4.2882,4.2882,4.2882,4.2882,4.2882,4.619,4.6177,0.0,0.0,4.6183,0.0,4.6008,4.5988,4.593,4.5801,4.5803,4.579,4.5783,4.579,4.5777,4.577,0.0,0.0,0.0,4.5607,4.5509,4.5491,4.538,4.5297,4.5297,4.5297,4.5297,4.5275,4.491,4.4624,4.4374,4.4091,4.3974,4.3942,4.3584,4.3513,4.3726,4.3356,4.3214,4.3214,4.3196,4.316,4.3104,4.3104,4.3012,4.2882,4.2882,4.2882,4.2882,4.2882,4.2882,4.2882,4.2882,4.2882,4.2882,4.2882,4.2882,4.2882,4.2882,4.2882,4.2882,4.2882,4.2882,4.2882,4.2882,4.2882,4.2882,4.2882,4.2882,4.2882,4.2882,4.2882,4.2882,4.2882,4.2882,4.2882,4.2882,0.0,0.0,0.0,0.0,0.0,0.0,4.2882,4.2882,0.0,0.0,0.0,0.0,0.0,4.2882,4.2882,4.2882,4.2882,4.2882,4.2882,4.2882,4.2882,4.2882,4.2882,4.2882,4.2882,4.2882,4.2882,4.2882,4.2882,4.2882,4.2882,4.2882,4.2882,4.2882,4.2882,4.2882,4.2882,4.2882,4.2882,0.0,0.0,4.5966,4.5966,4.5936,4.5863,4.5783,4.5815,4.5815,4.5725,4.5731,4.5675,4.5587,4.566,4.565,4.5438,4.5684,4.5783,4.5591,4.5524,4.5455,4.5341,4.5319,4.5297,4.5297,4.5297,4.5173,4.4934,4.443,4.4151,4.4109,4.3763,4.36,4.355,4.3446,4.3376,4.3321,4.3232,4.3214,4.3214,4.316,4.3104,4.3104,4.2994,4.2938,4.2882,4.2882,4.2882,4.2882,4.2882,4.2882,4.2882,4.2882,4.2882,4.2882,4.2882,4.2882,4.2882,4.2882,4.2882,4.2882,4.2882,4.2882,4.2882,4.2882,4.2882,4.2882,4.2882,4.2882,4.2882,4.2882,4.2882,4.2882,4.2882,4.2882,4.2882,4.2882,4.2882,0.0,0.0,4.2882,4.2882,4.2882,4.2882,4.2882,0.0,0.0,0.0,0.0,4.2882,4.2882,4.2882,4.2882,4.2882,4.2882,4.2882,4.2882,4.2882,4.2882,4.2882,4.2882,4.2882,4.2882,4.2882,4.2882,4.2882,4.2882,4.2882,4.2882,4.2882,4.2882,4.2882,4.2882,4.2882,4.2882,4.2882,4.5809,4.5783,4.5756,4.5756,4.5742,4.5679,4.5533,4.5552,4.5536,4.5453,4.5453,4.5454,4.5381,4.5455,4.5455,4.5298,4.5526,4.5591,4.5419,4.5419,4.538,4.5317,4.5297,4.5297,4.5297,4.5151,4.491,4.4624,4.4192,4.4005,4.4005,4.3634,4.3446,4.3394,4.3287,4.3196,4.316,4.3087,4.305,4.305,4.3031,4.3012,4.2994,4.2938,4.2882,4.2882,4.2882,4.2882,4.2882,4.2882,4.2882,4.2882,4.2882,4.2882,4.2882,4.2882,4.2882,4.2882,4.2882,4.2882,4.2882,4.2882,4.2882,4.2882,4.2882,4.2882,4.2882,4.2882,4.2882,4.2882,4.2882,4.2882,4.2882,4.2882,4.2882,4.2882,4.2882,4.2882,0.0,4.2882,4.2882,4.2882,4.2882,4.2882,4.2882,4.2882,0.0,0.0,4.2882,4.2882,4.2882,4.2882,4.2882,4.2882,4.2882,4.2882,4.2882,4.2882,4.2882,4.2882,4.2882,4.2882,4.2882,4.2882,4.2882,4.2882,4.2882,4.2882,4.2882,4.2882,4.2882,4.2882,4.2882,4.2882,4.2882,4.2882,4.5571,4.5555,4.5555,4.5555,4.5539,4.547,4.5304,4.5285,4.5223,4.5106,4.5148,4.5192,4.5192,4.5254,4.5256,4.5297,4.5381,4.54,4.5317,4.5297,4.5297,4.5235,4.5256,4.5256,4.5173,4.4862,4.4546,4.4299,4.406,4.391,4.386,4.3532,4.3394,4.3359,4.3178,4.3104,4.3049,4.2938,4.2882,4.2882,4.2882,4.2882,4.2882,4.2882,4.2882,4.2882,4.2882,4.2882,4.2882,4.2882,4.2882,4.2882,4.2882,4.2882,4.2882,4.2882,4.2882,4.2882,4.2882,4.2882,4.2882,4.2882,4.2882,4.2882,4.2882,4.2882,4.2882,4.2882,4.2882,4.2882,4.2882,4.2882,4.2882,4.2882,4.2882,4.2882,4.2882,0.0,4.2882,4.2882,4.2882,4.2882,4.2882,4.2882,4.2882,4.2882,4.2882,4.2882,0.0,4.2882,4.2882,4.2882,4.2882,4.2882,4.2882,4.2882,4.2882,4.2882,4.2882,4.2882,4.2882,4.2882,4.2882,4.2882,4.2882,4.2882,4.2882,4.2882,4.2882,4.2882,4.2882,4.2882,4.2882,4.2882,4.2882,4.2882,4.5419,4.5342,4.5264,4.5264,4.522,4.5175,4.5151,4.5132,4.5129,4.5084,4.5125,4.5125,4.5125,4.5125,4.5148,4.5213,4.5173,4.5194,4.5297,4.5297,4.5173,4.4891,4.5151,4.5065,4.4565,4.4279,4.406,4.3899,4.3697,4.3479,4.3339,4.3376,4.3323,4.3141,4.3104,4.3049,4.2938,4.29,4.2882,4.2882,4.2882,4.2882,4.2882,4.2882,4.2882,4.2882,4.2882,4.2882,4.2882,4.2882,4.2882,4.2882,4.2882,4.2882,4.2882,4.2882,4.2882,4.2882,4.2882,4.2882,4.2882,4.2882,4.2882,4.2882,4.2882,4.2882,4.2882,4.2882,4.2882,4.2882,4.2882,4.2882,4.2882,4.2882,4.2882,4.2882,4.2882,0.0,4.2882,4.2882,4.2882,4.2882,4.2882,4.2882,4.2882,4.2882,4.2882,4.2882,4.2882,4.2882,4.2882,4.2882,4.2882,4.2882,4.2882,4.2882,4.2882,4.2882,4.2882,4.2882,4.2882,4.2882,4.2882,4.2882,4.2882,4.2882,4.2882,4.2882,4.2882,4.2882,4.2882,4.2882,4.2882,4.2882,4.2882,4.2882,4.4757,4.4868,4.4953,4.5042,4.4995,4.4991,4.4991,4.4991,4.4991,4.4991,4.5014,4.4991,4.4789,4.4972,4.4972,4.465,4.4745,4.477,4.4657,4.4881,4.4948,4.4751,4.4795,4.4636,4.4192,4.3968,4.3763,4.3563,4.341,4.3268,4.3214,4.3233,4.3178,4.3104,4.2994,4.2938,4.2882,4.2882,4.2882,4.2882,4.2882,4.2882,4.2882,4.2882,4.2882,4.2882,4.2882,4.2882,4.2882,4.2882,4.2882,4.2882,4.2882,4.2882,4.2882,4.2882,4.2882,4.2882,4.2882,4.2882,4.2882,4.2882,4.2882,4.2882,4.2882,4.2882,4.2882,4.2882,4.2882,4.2882,4.2882,4.2882,4.2882,4.2882,4.2882,0.0,0.0,4.2882,4.2882,4.2882,4.2882,4.2882,4.2882,4.2882,4.2882,4.2882,4.2882,4.2882,4.2882,4.2882,4.2882,4.2882,4.2882,4.2882,4.2882,4.2882,4.2882,4.2882,4.2882,4.2882,4.2882,4.2882,4.2882,4.2882,4.2882,4.2882,4.2882,4.2882,4.2882,4.2882,4.2882,4.2882,4.2882,4.2882,4.2882,4.2882,4.4095,4.4336,4.4522,4.4629,4.4655,4.4655,4.4655,4.4655,4.4655,4.4655,4.4707,4.4662,4.4383,4.4643,4.4617,4.4117,4.429,4.4346,4.4098,4.4374,4.4522,4.4465,4.4223,4.4053,4.3923,4.3712,4.3495,4.3323,4.3251,4.3178,4.3123,4.3086,4.3104,4.3049,4.2938,4.2882,4.2882,4.2882,4.2882,4.2882,4.2882,4.2882,4.2882,4.2882,4.2882,4.2882,4.2882,4.2882,4.2882,4.2882,4.2882,4.2882,4.2882,4.2882,4.2882,4.2882,4.2882,4.2882,4.2882,4.2882,4.2882,4.2882,4.2882,4.2882,4.2882,4.2882,4.2882,4.2882,4.2882,4.2882,4.2882,4.2882,4.2882,4.2882,0.0,0.0,0.0,4.2882,4.2882,4.2882,4.2882,4.2882,4.2882,4.2882,4.2882,4.2882,4.2882,4.2882,4.2882,4.2882,4.2882,4.2882,4.2882,4.2882,4.2882,4.2882,4.2882,4.2882,4.2882,4.2882,4.2882,4.2882,4.2882,4.2882,4.2882,4.2882,4.2882,4.2882,4.2882,4.2882,4.2882,4.2882,4.2882,4.2882,4.2882,4.2882,4.3601,4.3767,4.3881,4.3881,4.3943,4.3974,4.3974,4.3974,4.3974,4.3974,4.3974,4.3974,4.3943,4.3974,4.3986,4.4016,4.3955,4.3986,4.4098,4.3836,4.3693,4.3772,4.3477,4.3408,4.3726,4.3391,4.3214,4.3104,4.3178,4.3087,4.292,4.3049,4.3049,4.292,4.2882,4.2882,4.2882,4.2882,4.2882,4.2882,4.2882,4.2882,4.2882,4.2882,4.2882,4.2882,4.2882,4.2882,4.2882,4.2882,4.2882,4.2882,4.2882,4.2882,4.2882,4.2882,4.2882,4.2882,4.2882,4.2882,4.2882,4.2882,4.2882,4.2882,4.2882,4.2882,4.2882,4.2882,4.2882,4.2882,4.2882,4.2882,4.2882,4.2882,0.0,0.0,4.2882,4.2882,4.2882,4.2882,4.2882,4.2882,4.2882,4.2882,4.2882,4.2882,4.2882,4.2882,4.2882,4.2882,4.2882,4.2882,4.2882,4.2882,4.2882,4.2882,4.2882,4.2882,4.2882,4.2882,4.2882,4.2882,4.2882,4.2882,4.2882,4.2882,4.2882,4.2882,4.2882,4.2882,4.2882,4.2882,4.2882,4.2882,4.2882,4.2882,4.3194,4.3422,4.359,4.3652,4.3767,4.3799,4.3717,4.3831,4.3881,4.3849,4.3881,4.3818,4.3623,4.3786,4.3754,4.3353,4.349,4.3523,4.3387,4.3249,4.3232,4.3373,4.3142,4.3142,4.3373,4.3142,4.3031,4.3104,4.3031,4.2957,4.2882,4.2938,4.2938,4.2882,4.2882,4.2882,4.2882,4.2882,4.2882,4.2882,4.2882,4.2882,4.2882,4.2882,4.2882,4.2882,4.2882,4.2882,4.2882,4.2882,4.2882,4.2882,4.2882,4.2882,4.2882,4.2882,4.2882,4.2882,4.2882,4.2882,4.2882,4.2882,4.2882,4.2882,4.2882,4.2882,4.2882,4.2882,4.2882,4.2882,4.2882,4.2882,4.2882,4.2882,0.0,4.2882,4.2882,4.2882,4.2882,4.2882,4.2882,4.2882,4.2882,4.2882,4.2882,4.2882,4.2882,4.2882,4.2882,4.2882,4.2882,4.2882,4.2882,4.2882,4.2882,4.2882,4.2882,4.2882,4.2882,4.2882,4.2882,4.2882,4.2882,4.2882,4.2882,4.2882,4.2882,4.2882,4.2882,4.2882,4.2882,4.2882,4.2882,4.2882,4.2882,4.2882,4.2732,4.2958,4.3142,4.323,4.3353,4.3422,4.3369,4.3422,4.349,4.3474,4.3542,4.3474,4.3249,4.344,4.3406,4.2957,4.3124,4.3142,4.292,4.2882,4.2975,4.3087,4.2957,4.2957,4.3087,4.2975,4.2938,4.3049,4.2938,4.2882,4.2882,4.2882,4.2882,4.2882,4.2882,4.2882,4.2882,4.275,4.2768,4.2882,4.275,4.2768,4.2882,4.2882,4.2806,4.2711,4.2844,4.2806,4.2711,4.2844,4.2882,4.2882,4.2882,4.2882,4.2882,4.2882,4.2882,4.2882,4.2882,4.2882,4.2882,4.2882,4.2882,4.2882,4.2882,4.2882,4.2882,4.2882,4.2882,4.2882,4.2882,4.2882,4.2882,4.2882,4.2882,4.2882,4.2882,4.2882,4.2882,4.2882,4.2882,4.2882,4.2882,4.2882,4.2882,4.2882,4.2882,4.2882,4.2882,4.2882,4.2882,4.2882,4.2882,4.2882,4.2882,4.2882,4.2882,4.2882,4.2882,4.2882,4.2882,4.2882,4.2882,4.2882,4.2882,4.2882,4.2882,4.2882,4.2882,4.2882,4.2882,4.2882,4.2882,4.2882,4.2882,4.2936,4.2287,4.2405,4.2503,4.2503,4.2548,4.2649,4.2783,4.2688,4.2649,4.2783,4.2783,4.2783,4.2783,4.288,4.2882,4.2882,4.2882,4.2882,4.2882,4.2882,4.2882,4.2882,4.2882,4.2882,4.2882,4.2882,4.2882,4.2882,4.2882,4.2882,4.2882,4.2882,4.2882,4.2882,4.29,4.2882,4.2844,4.2378,4.2458,4.2844,4.2378,4.2458,4.2882,4.2882,4.2595,4.2257,4.2711,4.2595,4.2297,4.275,4.29,4.2882,4.2882,4.29,4.2882,4.2882,4.2882,4.2882,4.2882,4.2882,4.2882,4.2882,4.2882,4.2882,4.2882,4.2882,4.2882,4.2882,4.2882,4.2882,4.2882,4.2882,4.2882,4.2882,4.2882,4.2882,4.2882,4.2882,4.2882,4.2882,4.2882,4.2882,4.2882,4.2882,4.2882,4.2882,4.2882,4.2882,4.2882,4.2882,4.2882,4.29,4.29,4.29,4.29,4.2882,4.2882,4.2882,4.2882,4.2882,4.2882,4.2882,4.2882,4.2882,4.2882,4.2882,4.2882,4.2882,4.2882,4.2882,4.2882,4.2882,4.2882,4.29,4.29,4.3009,4.1311,4.1534,4.1813,4.1813,4.1899,4.2068,4.2409,4.253,4.2588,4.2566,4.2627,4.2649,4.2649,4.2765,4.2804,4.2804,4.2862,4.2882,4.2882,4.2882,4.2882,4.2882,4.2882,4.2882,4.2882,4.2882,4.2882,4.2882,4.2882,4.2882,4.2882,4.2882,4.2882,4.2882,4.2555,4.2418,4.2378,4.1888,4.1973,4.2378,4.1888,4.1973,4.236,4.2056,4.1828,4.176,4.2239,4.2338,4.2297,4.275,4.2673,4.2418,4.2418,4.2634,4.2882,4.2882,4.2882,4.2882,4.2882,4.2882,4.2882,4.2882,4.2882,4.2882,4.2882,4.2882,4.2882,4.2882,4.2882,4.2882,4.2882,4.2882,4.2882,4.2882,4.2882,4.2882,4.2882,4.2882,4.2882,4.2882,4.2882,4.2882,4.2882,4.2882,4.2882,4.2882,4.2882,4.2862,4.2842,4.2804,4.2765,4.267,4.267,4.267,4.267,4.2824,4.2882,4.2882,4.2882,4.2882,4.2882,4.2882,4.2882,4.2882,4.2882,4.2882,4.2882,4.2882,4.2882,4.2882,4.2882,4.2882,4.2955,4.3516,4.3733,4.386,4.0849,4.1036,4.1202,4.1202,4.1293,4.1428,4.1692,4.1966,4.2169,4.2205,4.2228,4.2333,4.2552,4.2512,4.2552,4.2804,4.2842,4.2862,4.29,4.2824,4.2729,4.2634,4.2786,4.2862,4.2882,4.2882,4.2806,4.2634,4.2806,4.2806,4.2634,4.2806,4.2806,4.2634,4.2338,4.2115,4.1888,4.141,4.1499,4.1888,4.141,4.1499,4.1888,4.1613,4.1393,4.1276,4.176,4.1803,4.1717,4.2198,4.2157,4.1931,4.1931,4.2115,4.236,4.236,4.236,4.24,4.2577,4.2634,4.2673,4.2844,4.2882,4.2882,4.2882,4.2882,4.2882,4.2882,4.2882,4.2882,4.2882,4.2882,4.2882,4.2882,4.2882,4.2882,4.2882,4.2882,4.2882,4.2882,4.2882,4.2882,4.2882,4.2882,4.2882,4.2882,4.2882,4.2862,4.2783,4.2783,4.2745,4.2609,4.2609,4.2609,4.2609,4.2709,4.2824,4.288,4.288,4.2862,4.2882,4.2882,4.2882,4.2882,4.2882,4.2882,4.2882,4.2882,4.2882,4.2918,4.3244,4.3371,4.3462,4.4277,4.4566,4.4693,4.0594,4.0707,4.0707,4.0707,4.0707,4.0784,4.0874,4.1213,4.1472,4.1604,4.1622,4.1839,4.2374,4.205,4.205,4.2673,4.2709,4.2727,4.275,4.2613,4.2414,4.2115,4.2454,4.267,4.2768,4.2806,4.2634,4.2175,4.2634,4.2634,4.2198,4.2634,4.2577,4.2198,4.2115,4.1803,4.1393,4.0926,4.1019,4.1393,4.0926,4.1019,4.1393,4.1393,4.1094,4.0802,4.1276,4.1139,4.0849,4.1303,4.1481,4.1481,4.1437,4.1481,4.1481,4.1481,4.1481,4.1569,4.1973,4.2115,4.2239,4.2616,4.2788,4.2844,4.2882,4.2882,4.2882,4.2882,4.2882,4.2882,4.2882,4.2882,4.2882,4.2882,4.2882,4.2882,4.2882,4.2882,4.29,4.29,4.2844,4.2844,4.2806,4.2806,4.2806,4.2844,4.2844,4.2786,4.2783,4.2783,4.2706,4.257,4.257,4.257,4.257,4.257,4.2649,4.2783,4.2783,4.2842,4.2882,4.29,4.2882,4.2882,4.2882,4.2882,4.29,4.2973,4.2991,4.3081,4.3878,4.4204,4.4295,4.511,4.5399,4.5526,3.947,3.9749,4.0036,4.0153,4.0153,4.0302,4.0737,4.0896,4.0943,4.099,4.099,4.1019,4.1174,4.1168,4.1196,4.1313,4.1803,4.1906,4.1534,4.1846,4.1881,4.1525,4.1464,4.1508,4.1656,4.2098,4.2274,4.2127,4.2274,4.2297,4.2198,4.2279,4.2239,4.1997,4.1286,4.0891,4.0767,4.0286,4.0385,4.0767,4.0385,4.0466,4.0767,4.0514,4.0353,4.0303,4.0689,4.0784,4.0802,4.0943,4.1185,4.1455,4.1065,4.1185,4.1481,4.1393,4.1348,4.1348,4.1331,4.1674,4.1906,4.1595,4.1888,4.2374,4.2806,4.2882,4.2882,4.2882,4.2882,4.2882,4.2882,4.2882,4.2882,4.2882,4.2842,4.2842,4.2882,4.2824,4.2822,4.2822,4.2516,4.2338,4.2251,4.1906,4.1931,4.2631,4.2315,4.2251,4.2544,4.2584,4.2486,4.2369,4.2369,4.2369,4.2369,4.2369,4.245,4.2649,4.2745,4.2822,4.2822,4.2862,4.2882,4.2882,4.2882,4.2882,4.2936,4.357,4.3824,4.3914,4.4729,4.5037,4.5146,4.5943,4.625,4.63,3.9023,3.9222,3.9454,3.9644,3.9696,3.9731,4.0037,4.0269,4.04,4.04,4.04,4.0546,4.0814,4.0607,4.059,4.0856,4.1241,4.1331,4.1133,4.1258,4.123,4.0908,4.0967,4.092,4.0767,4.1168,4.1321,4.1311,4.1525,4.1569,4.1348,4.1569,4.1508,4.1241,4.0703,4.04,4.012,3.9918,3.9969,4.0187,3.9969,4.0003,4.0137,3.9969,3.9918,3.9918,4.0087,4.0237,4.0353,4.0353,4.0514,4.0689,4.0385,4.0449,4.0625,4.0546,4.0546,4.0577,4.0703,4.0984,4.1185,4.1087,4.1375,4.176,4.2342,4.2537,4.2555,4.2555,4.2729,4.2786,4.2573,4.267,4.2747,4.2747,4.2552,4.2374,4.2436,4.2157,4.199,4.199,4.1785,4.1656,4.1648,4.1348,4.1375,4.1846,4.1864,4.1941,4.2103,4.2364,4.2305,4.1941,4.1917,4.1813,4.1596,4.1578,4.1622,4.1753,4.211,4.2333,4.249,4.2476,4.2498,4.2613,4.3204,4.3462,4.3516,4.4331,4.4675,4.4747,4.5562,4.573,4.5594,4.6385,4.6542,4.6337,3.886,3.8969,3.9023,3.9218,3.9272,3.9272,3.9272,3.9592,3.9868,3.9868,3.9868,4.0053,4.059,4.0186,4.0086,4.059,4.0685,4.0763,4.0763,4.072,4.0563,4.0269,4.0511,4.0463,4.0087,4.017,4.0252,4.0368,4.078,4.078,4.04,4.078,4.0733,4.0351,4.0269,4.0037,3.9677,3.9677,3.9677,3.9677,3.9677,3.9677,3.9677,3.9677,3.9677,3.9677,3.9677,3.9746,3.9849,3.9849,3.9849,3.9849,3.9729,3.9677,3.9677,3.9677,3.9677,3.9729,4.012,4.0252,4.04,4.0733,4.0856,4.1087,4.1578,4.1871,4.2015,4.2015,4.2257,4.2374,4.1984,4.2151,4.2315,4.2315,4.2008,4.1735,4.1778,4.1375,4.1087,4.1087,4.0995,4.0949,4.0949,4.0856,4.0874,4.1059,4.1393,4.1561,4.1561,4.1977,4.1934,4.1401,4.1383,4.1202,4.0802,4.0802,4.0802,4.0802,4.1202,4.1561,4.1899,4.1888,4.2068,4.243,4.3494,4.4032,4.4231,4.5124,4.5409,4.5299,4.6212,4.6227,4.5863,4.6522,4.6406,4.595,3.8616,3.8766,3.886,3.886,3.9094,3.9218,3.9094,3.9255,3.9415,3.9415,3.9415,3.9415,3.9504,3.9451,3.9415,3.9504,3.9868,3.9969,3.954,3.9919,3.9969,3.9642,3.9556,3.9573,3.959,3.9468,3.9696,4.022,4.04,4.0449,4.04,4.0431,4.0383,4.0186,3.9799,3.959,3.9554,3.9554,3.9554,3.9554,3.9625,3.9642,3.9537,3.9642,3.9677,3.9677,3.959,3.9554,3.959,3.9694,3.9729,3.9729,3.9729,3.9677,3.9677,3.9537,3.9554,3.9501,3.9468,3.9731,3.9952,3.9644,3.9935,4.0351,4.0414,4.0856,4.1268,4.1268,4.1268,4.1313,4.1241,4.1268,4.1313,4.1313,4.1133,4.1105,4.1178,4.1041,4.0949,4.0949,4.0559,4.0302,4.0302,3.9935,4.0054,4.0784,4.0497,4.0431,4.0896,4.099,4.099,4.0896,4.0896,4.0849,4.0802,4.0802,4.0802,4.0802,4.04,4.0511,4.1059,4.1286,4.2027,4.307,4.3382,4.3853,4.4532,4.5815,4.5807,4.5105,4.6336,4.65,4.6055,4.6178,4.585,4.5407,3.856,3.8672,3.8711,3.8805,3.8969,3.9094,3.9023,3.9148,3.9272,3.9272,3.9272,3.9272,3.9272,3.9272,3.9272,3.9272,3.9504,3.9504,3.9325,3.9504,3.9556,3.9379,3.9325,3.9325,3.9395,3.9325,3.9415,3.9713,3.9747,3.9799,3.9799,3.9799,3.9731,3.9679,3.9468,3.9395,3.9395,3.9395,3.9395,3.9379,3.9432,3.9432,3.9379,3.9432,3.9484,3.9484,3.9484,3.9501,3.9501,3.959,3.959,3.959,3.9484,3.9484,3.9468,3.9379,3.9395,3.9395,3.9325,3.9468,3.9556,3.9379,3.952,3.9696,3.9696,3.9902,4.0235,4.0607,4.0874,4.0903,4.0655,4.0797,4.0955,4.0955,4.0607,4.0414,4.0511,4.0235,4.0003,4.0003,3.9833,3.9713,3.9713,3.952,3.952,3.9952,3.9969,4.0103,4.0351,4.0659,4.0659,4.0351,4.0351,4.022,3.9935,3.9935,3.9935,3.9952,4.0115,4.0543,4.1146,4.1243,4.1881,4.3027,4.3792,4.4364,4.4827,4.5853,4.5988,4.5624,4.6217,4.6116,4.5614,4.5337,4.5089,4.4889]}]]